<?xml version="1.0" encoding="UTF-8" standalone="no" ?>
<gpx xmlns="http://www.topografix.com/GPX/1/1" xmlns:xsi="http://www.w3.org/2001/XMLSchema-instance" xsi:schemaLocation="http://www.topografix.com/GPX/1/1 http://www.topografix.com/GPX/1/1/gpx.xsd" version="1.1" creator="VisuGPX - https://www.visugpx.com">
  <metadata>
    <name>autour de Farnay</name>
    <desc><![CDATA[super parcours]]></desc>
  </metadata>
  <trk>
    <name><![CDATA[entrainement de nuit]]></name>
    <cmt><![CDATA[17]]></cmt>
    <trkseg>
      <trkpt lat="45.4916" lon="4.59719">
        <ele>451</ele>
        <time>2014-11-14T19:06:42Z</time>
      </trkpt>
      <trkpt lat="45.49133" lon="4.59706">
        <ele>451</ele>
        <time>2014-11-14T19:07:00Z</time>
      </trkpt>
      <trkpt lat="45.49125" lon="4.59704">
        <ele>451</ele>
        <time>2014-11-14T19:07:03Z</time>
      </trkpt>
      <trkpt lat="45.49121" lon="4.59702">
        <ele>451</ele>
        <time>2014-11-14T19:07:06Z</time>
      </trkpt>
      <trkpt lat="45.49117" lon="4.59701">
        <ele>451</ele>
        <time>2014-11-14T19:08:14Z</time>
      </trkpt>
      <trkpt lat="45.49112" lon="4.597">
        <ele>451</ele>
        <time>2014-11-14T19:08:17Z</time>
      </trkpt>
      <trkpt lat="45.49105" lon="4.597">
        <ele>451</ele>
        <time>2014-11-14T19:08:20Z</time>
      </trkpt>
      <trkpt lat="45.49097" lon="4.59699">
        <ele>451</ele>
        <time>2014-11-14T19:08:23Z</time>
      </trkpt>
      <trkpt lat="45.49089" lon="4.59697">
        <ele>451</ele>
        <time>2014-11-14T19:08:26Z</time>
      </trkpt>
      <trkpt lat="45.49081" lon="4.59696">
        <ele>451</ele>
        <time>2014-11-14T19:08:29Z</time>
      </trkpt>
      <trkpt lat="45.49072" lon="4.59696">
        <ele>451</ele>
        <time>2014-11-14T19:08:32Z</time>
      </trkpt>
      <trkpt lat="45.49063" lon="4.59694">
        <ele>451</ele>
        <time>2014-11-14T19:08:35Z</time>
      </trkpt>
      <trkpt lat="45.49055" lon="4.59693">
        <ele>451</ele>
        <time>2014-11-14T19:08:38Z</time>
      </trkpt>
      <trkpt lat="45.49047" lon="4.59693">
        <ele>451</ele>
        <time>2014-11-14T19:08:41Z</time>
      </trkpt>
      <trkpt lat="45.4904" lon="4.59692">
        <ele>451</ele>
        <time>2014-11-14T19:08:44Z</time>
      </trkpt>
      <trkpt lat="45.49034" lon="4.59691">
        <ele>451</ele>
        <time>2014-11-14T19:08:47Z</time>
      </trkpt>
      <trkpt lat="45.49027" lon="4.59689">
        <ele>451</ele>
        <time>2014-11-14T19:08:50Z</time>
      </trkpt>
      <trkpt lat="45.4902" lon="4.59687">
        <ele>453</ele>
        <time>2014-11-14T19:08:53Z</time>
      </trkpt>
      <trkpt lat="45.49013" lon="4.59684">
        <ele>454</ele>
        <time>2014-11-14T19:08:56Z</time>
      </trkpt>
      <trkpt lat="45.49007" lon="4.59681">
        <ele>455</ele>
        <time>2014-11-14T19:08:59Z</time>
      </trkpt>
      <trkpt lat="45.49" lon="4.59677">
        <ele>455</ele>
        <time>2014-11-14T19:09:02Z</time>
      </trkpt>
      <trkpt lat="45.48995" lon="4.59673">
        <ele>456</ele>
        <time>2014-11-14T19:09:05Z</time>
      </trkpt>
      <trkpt lat="45.48992" lon="4.59669">
        <ele>456</ele>
        <time>2014-11-14T19:09:08Z</time>
      </trkpt>
      <trkpt lat="45.48991" lon="4.59668">
        <ele>456</ele>
        <time>2014-11-14T19:09:11Z</time>
      </trkpt>
      <trkpt lat="45.48993" lon="4.59668">
        <ele>456</ele>
        <time>2014-11-14T19:09:18Z</time>
      </trkpt>
      <trkpt lat="45.48994" lon="4.59667">
        <ele>456</ele>
        <time>2014-11-14T19:09:32Z</time>
      </trkpt>
      <trkpt lat="45.48994" lon="4.59665">
        <ele>456</ele>
        <time>2014-11-14T19:09:36Z</time>
      </trkpt>
      <trkpt lat="45.48993" lon="4.59658">
        <ele>456</ele>
        <time>2014-11-14T19:09:39Z</time>
      </trkpt>
      <trkpt lat="45.48992" lon="4.59649">
        <ele>456</ele>
        <time>2014-11-14T19:09:42Z</time>
      </trkpt>
      <trkpt lat="45.48991" lon="4.59639">
        <ele>456</ele>
        <time>2014-11-14T19:09:45Z</time>
      </trkpt>
      <trkpt lat="45.48988" lon="4.5963">
        <ele>456</ele>
        <time>2014-11-14T19:09:48Z</time>
      </trkpt>
      <trkpt lat="45.48985" lon="4.59619">
        <ele>456</ele>
        <time>2014-11-14T19:09:51Z</time>
      </trkpt>
      <trkpt lat="45.48981" lon="4.59608">
        <ele>456</ele>
        <time>2014-11-14T19:09:54Z</time>
      </trkpt>
      <trkpt lat="45.48977" lon="4.59598">
        <ele>456</ele>
        <time>2014-11-14T19:09:57Z</time>
      </trkpt>
      <trkpt lat="45.48972" lon="4.59589">
        <ele>455</ele>
        <time>2014-11-14T19:10:00Z</time>
      </trkpt>
      <trkpt lat="45.48969" lon="4.5958">
        <ele>455</ele>
        <time>2014-11-14T19:10:03Z</time>
      </trkpt>
      <trkpt lat="45.48964" lon="4.59571">
        <ele>454</ele>
        <time>2014-11-14T19:10:06Z</time>
      </trkpt>
      <trkpt lat="45.48959" lon="4.59563">
        <ele>454</ele>
        <time>2014-11-14T19:10:09Z</time>
      </trkpt>
      <trkpt lat="45.48955" lon="4.59555">
        <ele>454</ele>
        <time>2014-11-14T19:10:12Z</time>
      </trkpt>
      <trkpt lat="45.4895" lon="4.59546">
        <ele>454</ele>
        <time>2014-11-14T19:10:15Z</time>
      </trkpt>
      <trkpt lat="45.48945" lon="4.59538">
        <ele>454</ele>
        <time>2014-11-14T19:10:18Z</time>
      </trkpt>
      <trkpt lat="45.48938" lon="4.59526">
        <ele>454</ele>
        <time>2014-11-14T19:10:22Z</time>
      </trkpt>
      <trkpt lat="45.48933" lon="4.59518">
        <ele>454</ele>
        <time>2014-11-14T19:10:25Z</time>
      </trkpt>
      <trkpt lat="45.48928" lon="4.59511">
        <ele>454</ele>
        <time>2014-11-14T19:10:28Z</time>
      </trkpt>
      <trkpt lat="45.48923" lon="4.59502">
        <ele>454</ele>
        <time>2014-11-14T19:10:31Z</time>
      </trkpt>
      <trkpt lat="45.48918" lon="4.59496">
        <ele>454</ele>
        <time>2014-11-14T19:10:34Z</time>
      </trkpt>
      <trkpt lat="45.48914" lon="4.59489">
        <ele>454</ele>
        <time>2014-11-14T19:10:37Z</time>
      </trkpt>
      <trkpt lat="45.48908" lon="4.59481">
        <ele>454</ele>
        <time>2014-11-14T19:10:40Z</time>
      </trkpt>
      <trkpt lat="45.48903" lon="4.59474">
        <ele>454</ele>
        <time>2014-11-14T19:10:43Z</time>
      </trkpt>
      <trkpt lat="45.48898" lon="4.59465">
        <ele>454</ele>
        <time>2014-11-14T19:10:46Z</time>
      </trkpt>
      <trkpt lat="45.48893" lon="4.59457">
        <ele>454</ele>
        <time>2014-11-14T19:10:49Z</time>
      </trkpt>
      <trkpt lat="45.48887" lon="4.59448">
        <ele>454</ele>
        <time>2014-11-14T19:10:52Z</time>
      </trkpt>
      <trkpt lat="45.48882" lon="4.59441">
        <ele>454</ele>
        <time>2014-11-14T19:10:55Z</time>
      </trkpt>
      <trkpt lat="45.48876" lon="4.59433">
        <ele>454</ele>
        <time>2014-11-14T19:10:58Z</time>
      </trkpt>
      <trkpt lat="45.48871" lon="4.59426">
        <ele>454</ele>
        <time>2014-11-14T19:11:01Z</time>
      </trkpt>
      <trkpt lat="45.48866" lon="4.59419">
        <ele>454</ele>
        <time>2014-11-14T19:11:04Z</time>
      </trkpt>
      <trkpt lat="45.48861" lon="4.59413">
        <ele>454</ele>
        <time>2014-11-14T19:11:07Z</time>
      </trkpt>
      <trkpt lat="45.48856" lon="4.59406">
        <ele>454</ele>
        <time>2014-11-14T19:11:10Z</time>
      </trkpt>
      <trkpt lat="45.48851" lon="4.59398">
        <ele>454</ele>
        <time>2014-11-14T19:11:13Z</time>
      </trkpt>
      <trkpt lat="45.48846" lon="4.59393">
        <ele>454</ele>
        <time>2014-11-14T19:11:16Z</time>
      </trkpt>
      <trkpt lat="45.48841" lon="4.59388">
        <ele>454</ele>
        <time>2014-11-14T19:11:19Z</time>
      </trkpt>
      <trkpt lat="45.48835" lon="4.59382">
        <ele>454</ele>
        <time>2014-11-14T19:11:22Z</time>
      </trkpt>
      <trkpt lat="45.48829" lon="4.59378">
        <ele>454</ele>
        <time>2014-11-14T19:11:25Z</time>
      </trkpt>
      <trkpt lat="45.48824" lon="4.59374">
        <ele>454</ele>
        <time>2014-11-14T19:11:28Z</time>
      </trkpt>
      <trkpt lat="45.48817" lon="4.5937">
        <ele>454</ele>
        <time>2014-11-14T19:11:31Z</time>
      </trkpt>
      <trkpt lat="45.48811" lon="4.59367">
        <ele>454</ele>
        <time>2014-11-14T19:11:34Z</time>
      </trkpt>
      <trkpt lat="45.48804" lon="4.59365">
        <ele>455</ele>
        <time>2014-11-14T19:11:37Z</time>
      </trkpt>
      <trkpt lat="45.48798" lon="4.59365">
        <ele>456</ele>
        <time>2014-11-14T19:11:40Z</time>
      </trkpt>
      <trkpt lat="45.48792" lon="4.59366">
        <ele>458</ele>
        <time>2014-11-14T19:11:43Z</time>
      </trkpt>
      <trkpt lat="45.48785" lon="4.59368">
        <ele>460</ele>
        <time>2014-11-14T19:11:46Z</time>
      </trkpt>
      <trkpt lat="45.48779" lon="4.59368">
        <ele>462</ele>
        <time>2014-11-14T19:11:49Z</time>
      </trkpt>
      <trkpt lat="45.48774" lon="4.59367">
        <ele>463</ele>
        <time>2014-11-14T19:11:52Z</time>
      </trkpt>
      <trkpt lat="45.48767" lon="4.59365">
        <ele>464</ele>
        <time>2014-11-14T19:11:55Z</time>
      </trkpt>
      <trkpt lat="45.4876" lon="4.59362">
        <ele>464</ele>
        <time>2014-11-14T19:11:58Z</time>
      </trkpt>
      <trkpt lat="45.48753" lon="4.5936">
        <ele>464</ele>
        <time>2014-11-14T19:12:01Z</time>
      </trkpt>
      <trkpt lat="45.48746" lon="4.59358">
        <ele>464</ele>
        <time>2014-11-14T19:12:04Z</time>
      </trkpt>
      <trkpt lat="45.48738" lon="4.59356">
        <ele>464</ele>
        <time>2014-11-14T19:12:07Z</time>
      </trkpt>
      <trkpt lat="45.48731" lon="4.59351">
        <ele>465</ele>
        <time>2014-11-14T19:12:10Z</time>
      </trkpt>
      <trkpt lat="45.48724" lon="4.59347">
        <ele>465</ele>
        <time>2014-11-14T19:12:13Z</time>
      </trkpt>
      <trkpt lat="45.48719" lon="4.59342">
        <ele>465</ele>
        <time>2014-11-14T19:12:16Z</time>
      </trkpt>
      <trkpt lat="45.48713" lon="4.59337">
        <ele>465</ele>
        <time>2014-11-14T19:12:19Z</time>
      </trkpt>
      <trkpt lat="45.48707" lon="4.59332">
        <ele>465</ele>
        <time>2014-11-14T19:12:22Z</time>
      </trkpt>
      <trkpt lat="45.48702" lon="4.59327">
        <ele>465</ele>
        <time>2014-11-14T19:12:25Z</time>
      </trkpt>
      <trkpt lat="45.48696" lon="4.59321">
        <ele>465</ele>
        <time>2014-11-14T19:12:28Z</time>
      </trkpt>
      <trkpt lat="45.4869" lon="4.59315">
        <ele>465</ele>
        <time>2014-11-14T19:12:31Z</time>
      </trkpt>
      <trkpt lat="45.48684" lon="4.5931">
        <ele>465</ele>
        <time>2014-11-14T19:12:34Z</time>
      </trkpt>
      <trkpt lat="45.48678" lon="4.59305">
        <ele>465</ele>
        <time>2014-11-14T19:12:37Z</time>
      </trkpt>
      <trkpt lat="45.48672" lon="4.593">
        <ele>465</ele>
        <time>2014-11-14T19:12:40Z</time>
      </trkpt>
      <trkpt lat="45.48666" lon="4.59295">
        <ele>465</ele>
        <time>2014-11-14T19:12:43Z</time>
      </trkpt>
      <trkpt lat="45.4866" lon="4.5929">
        <ele>465</ele>
        <time>2014-11-14T19:12:46Z</time>
      </trkpt>
      <trkpt lat="45.48656" lon="4.59283">
        <ele>465</ele>
        <time>2014-11-14T19:12:49Z</time>
      </trkpt>
      <trkpt lat="45.48651" lon="4.59277">
        <ele>465</ele>
        <time>2014-11-14T19:12:52Z</time>
      </trkpt>
      <trkpt lat="45.48646" lon="4.59272">
        <ele>465</ele>
        <time>2014-11-14T19:12:55Z</time>
      </trkpt>
      <trkpt lat="45.4864" lon="4.59268">
        <ele>465</ele>
        <time>2014-11-14T19:12:58Z</time>
      </trkpt>
      <trkpt lat="45.48634" lon="4.59263">
        <ele>465</ele>
        <time>2014-11-14T19:13:01Z</time>
      </trkpt>
      <trkpt lat="45.48629" lon="4.59256">
        <ele>465</ele>
        <time>2014-11-14T19:13:04Z</time>
      </trkpt>
      <trkpt lat="45.48623" lon="4.5925">
        <ele>465</ele>
        <time>2014-11-14T19:13:07Z</time>
      </trkpt>
      <trkpt lat="45.48618" lon="4.59245">
        <ele>465</ele>
        <time>2014-11-14T19:13:10Z</time>
      </trkpt>
      <trkpt lat="45.48613" lon="4.5924">
        <ele>466</ele>
        <time>2014-11-14T19:13:13Z</time>
      </trkpt>
      <trkpt lat="45.48608" lon="4.59235">
        <ele>467</ele>
        <time>2014-11-14T19:13:16Z</time>
      </trkpt>
      <trkpt lat="45.48602" lon="4.5923">
        <ele>468</ele>
        <time>2014-11-14T19:13:19Z</time>
      </trkpt>
      <trkpt lat="45.48596" lon="4.59226">
        <ele>468</ele>
        <time>2014-11-14T19:13:22Z</time>
      </trkpt>
      <trkpt lat="45.48591" lon="4.59219">
        <ele>468</ele>
        <time>2014-11-14T19:13:25Z</time>
      </trkpt>
      <trkpt lat="45.48586" lon="4.59212">
        <ele>468</ele>
        <time>2014-11-14T19:13:28Z</time>
      </trkpt>
      <trkpt lat="45.48581" lon="4.59202">
        <ele>468</ele>
        <time>2014-11-14T19:13:31Z</time>
      </trkpt>
      <trkpt lat="45.48575" lon="4.59195">
        <ele>468</ele>
        <time>2014-11-14T19:13:34Z</time>
      </trkpt>
      <trkpt lat="45.48569" lon="4.59186">
        <ele>468</ele>
        <time>2014-11-14T19:13:37Z</time>
      </trkpt>
      <trkpt lat="45.48562" lon="4.59179">
        <ele>468</ele>
        <time>2014-11-14T19:13:40Z</time>
      </trkpt>
      <trkpt lat="45.48556" lon="4.59173">
        <ele>468</ele>
        <time>2014-11-14T19:13:43Z</time>
      </trkpt>
      <trkpt lat="45.48555" lon="4.59166">
        <ele>468</ele>
        <time>2014-11-14T19:13:48Z</time>
      </trkpt>
      <trkpt lat="45.48556" lon="4.59166">
        <ele>468</ele>
        <time>2014-11-14T19:13:54Z</time>
      </trkpt>
      <trkpt lat="45.48558" lon="4.59166">
        <ele>469</ele>
        <time>2014-11-14T19:14:03Z</time>
      </trkpt>
      <trkpt lat="45.48556" lon="4.59164">
        <ele>470</ele>
        <time>2014-11-14T19:14:11Z</time>
      </trkpt>
      <trkpt lat="45.48555" lon="4.59163">
        <ele>470</ele>
        <time>2014-11-14T19:14:19Z</time>
      </trkpt>
      <trkpt lat="45.48556" lon="4.59165">
        <ele>470</ele>
        <time>2014-11-14T19:14:33Z</time>
      </trkpt>
      <trkpt lat="45.48557" lon="4.59164">
        <ele>471</ele>
        <time>2014-11-14T19:15:21Z</time>
      </trkpt>
      <trkpt lat="45.4856" lon="4.59171">
        <ele>471</ele>
        <time>2014-11-14T19:15:24Z</time>
      </trkpt>
      <trkpt lat="45.48565" lon="4.59181">
        <ele>471</ele>
        <time>2014-11-14T19:15:27Z</time>
      </trkpt>
      <trkpt lat="45.48572" lon="4.59192">
        <ele>471</ele>
        <time>2014-11-14T19:15:30Z</time>
      </trkpt>
      <trkpt lat="45.48579" lon="4.59201">
        <ele>471</ele>
        <time>2014-11-14T19:15:33Z</time>
      </trkpt>
      <trkpt lat="45.48586" lon="4.59208">
        <ele>471</ele>
        <time>2014-11-14T19:15:36Z</time>
      </trkpt>
      <trkpt lat="45.48591" lon="4.59214">
        <ele>471</ele>
        <time>2014-11-14T19:15:40Z</time>
      </trkpt>
      <trkpt lat="45.48592" lon="4.59215">
        <ele>471</ele>
        <time>2014-11-14T19:15:47Z</time>
      </trkpt>
      <trkpt lat="45.4859" lon="4.59213">
        <ele>471</ele>
        <time>2014-11-14T19:15:50Z</time>
      </trkpt>
      <trkpt lat="45.48586" lon="4.59207">
        <ele>471</ele>
        <time>2014-11-14T19:15:53Z</time>
      </trkpt>
      <trkpt lat="45.48581" lon="4.59201">
        <ele>471</ele>
        <time>2014-11-14T19:15:56Z</time>
      </trkpt>
      <trkpt lat="45.48576" lon="4.59195">
        <ele>471</ele>
        <time>2014-11-14T19:15:59Z</time>
      </trkpt>
      <trkpt lat="45.48571" lon="4.5919">
        <ele>471</ele>
        <time>2014-11-14T19:16:02Z</time>
      </trkpt>
      <trkpt lat="45.48566" lon="4.59184">
        <ele>471</ele>
        <time>2014-11-14T19:16:05Z</time>
      </trkpt>
      <trkpt lat="45.48561" lon="4.59178">
        <ele>471</ele>
        <time>2014-11-14T19:16:08Z</time>
      </trkpt>
      <trkpt lat="45.48556" lon="4.5917">
        <ele>471</ele>
        <time>2014-11-14T19:16:11Z</time>
      </trkpt>
      <trkpt lat="45.48552" lon="4.59162">
        <ele>471</ele>
        <time>2014-11-14T19:16:14Z</time>
      </trkpt>
      <trkpt lat="45.48549" lon="4.59154">
        <ele>471</ele>
        <time>2014-11-14T19:16:17Z</time>
      </trkpt>
      <trkpt lat="45.48545" lon="4.59147">
        <ele>471</ele>
        <time>2014-11-14T19:16:20Z</time>
      </trkpt>
      <trkpt lat="45.48543" lon="4.59139">
        <ele>471</ele>
        <time>2014-11-14T19:16:23Z</time>
      </trkpt>
      <trkpt lat="45.48539" lon="4.59131">
        <ele>471</ele>
        <time>2014-11-14T19:16:26Z</time>
      </trkpt>
      <trkpt lat="45.48537" lon="4.59122">
        <ele>471</ele>
        <time>2014-11-14T19:16:29Z</time>
      </trkpt>
      <trkpt lat="45.48535" lon="4.59114">
        <ele>471</ele>
        <time>2014-11-14T19:16:32Z</time>
      </trkpt>
      <trkpt lat="45.48533" lon="4.59105">
        <ele>471</ele>
        <time>2014-11-14T19:16:35Z</time>
      </trkpt>
      <trkpt lat="45.48531" lon="4.59095">
        <ele>471</ele>
        <time>2014-11-14T19:16:38Z</time>
      </trkpt>
      <trkpt lat="45.48528" lon="4.59084">
        <ele>471</ele>
        <time>2014-11-14T19:16:41Z</time>
      </trkpt>
      <trkpt lat="45.48524" lon="4.59074">
        <ele>471</ele>
        <time>2014-11-14T19:16:44Z</time>
      </trkpt>
      <trkpt lat="45.48518" lon="4.59065">
        <ele>471</ele>
        <time>2014-11-14T19:16:47Z</time>
      </trkpt>
      <trkpt lat="45.48513" lon="4.59057">
        <ele>471</ele>
        <time>2014-11-14T19:16:50Z</time>
      </trkpt>
      <trkpt lat="45.4851" lon="4.59051">
        <ele>471</ele>
        <time>2014-11-14T19:16:53Z</time>
      </trkpt>
      <trkpt lat="45.48506" lon="4.59046">
        <ele>471</ele>
        <time>2014-11-14T19:16:56Z</time>
      </trkpt>
      <trkpt lat="45.48501" lon="4.59043">
        <ele>471</ele>
        <time>2014-11-14T19:16:59Z</time>
      </trkpt>
      <trkpt lat="45.48494" lon="4.59038">
        <ele>471</ele>
        <time>2014-11-14T19:17:02Z</time>
      </trkpt>
      <trkpt lat="45.48488" lon="4.59035">
        <ele>471</ele>
        <time>2014-11-14T19:17:05Z</time>
      </trkpt>
      <trkpt lat="45.48483" lon="4.59031">
        <ele>471</ele>
        <time>2014-11-14T19:17:08Z</time>
      </trkpt>
      <trkpt lat="45.48478" lon="4.59029">
        <ele>472</ele>
        <time>2014-11-14T19:17:11Z</time>
      </trkpt>
      <trkpt lat="45.48472" lon="4.59026">
        <ele>472</ele>
        <time>2014-11-14T19:17:14Z</time>
      </trkpt>
      <trkpt lat="45.48466" lon="4.59024">
        <ele>473</ele>
        <time>2014-11-14T19:17:17Z</time>
      </trkpt>
      <trkpt lat="45.4846" lon="4.59021">
        <ele>474</ele>
        <time>2014-11-14T19:17:20Z</time>
      </trkpt>
      <trkpt lat="45.48451" lon="4.59017">
        <ele>474</ele>
        <time>2014-11-14T19:17:24Z</time>
      </trkpt>
      <trkpt lat="45.48446" lon="4.59016">
        <ele>474</ele>
        <time>2014-11-14T19:17:27Z</time>
      </trkpt>
      <trkpt lat="45.48441" lon="4.59014">
        <ele>474</ele>
        <time>2014-11-14T19:17:30Z</time>
      </trkpt>
      <trkpt lat="45.48436" lon="4.59013">
        <ele>474</ele>
        <time>2014-11-14T19:17:33Z</time>
      </trkpt>
      <trkpt lat="45.4843" lon="4.5901">
        <ele>475</ele>
        <time>2014-11-14T19:17:36Z</time>
      </trkpt>
      <trkpt lat="45.48423" lon="4.59009">
        <ele>476</ele>
        <time>2014-11-14T19:17:39Z</time>
      </trkpt>
      <trkpt lat="45.48417" lon="4.59008">
        <ele>476</ele>
        <time>2014-11-14T19:17:42Z</time>
      </trkpt>
      <trkpt lat="45.48411" lon="4.59008">
        <ele>477</ele>
        <time>2014-11-14T19:17:45Z</time>
      </trkpt>
      <trkpt lat="45.48405" lon="4.59008">
        <ele>477</ele>
        <time>2014-11-14T19:17:48Z</time>
      </trkpt>
      <trkpt lat="45.484" lon="4.59007">
        <ele>478</ele>
        <time>2014-11-14T19:17:51Z</time>
      </trkpt>
      <trkpt lat="45.48393" lon="4.59007">
        <ele>478</ele>
        <time>2014-11-14T19:17:54Z</time>
      </trkpt>
      <trkpt lat="45.48386" lon="4.59008">
        <ele>478</ele>
        <time>2014-11-14T19:17:57Z</time>
      </trkpt>
      <trkpt lat="45.4838" lon="4.59011">
        <ele>478</ele>
        <time>2014-11-14T19:18:00Z</time>
      </trkpt>
      <trkpt lat="45.48375" lon="4.59014">
        <ele>478</ele>
        <time>2014-11-14T19:18:03Z</time>
      </trkpt>
      <trkpt lat="45.48369" lon="4.59017">
        <ele>478</ele>
        <time>2014-11-14T19:18:06Z</time>
      </trkpt>
      <trkpt lat="45.48363" lon="4.5902">
        <ele>478</ele>
        <time>2014-11-14T19:18:09Z</time>
      </trkpt>
      <trkpt lat="45.48357" lon="4.59021">
        <ele>478</ele>
        <time>2014-11-14T19:18:12Z</time>
      </trkpt>
      <trkpt lat="45.4835" lon="4.59023">
        <ele>478</ele>
        <time>2014-11-14T19:18:15Z</time>
      </trkpt>
      <trkpt lat="45.48344" lon="4.59027">
        <ele>478</ele>
        <time>2014-11-14T19:18:18Z</time>
      </trkpt>
      <trkpt lat="45.48338" lon="4.59029">
        <ele>478</ele>
        <time>2014-11-14T19:18:21Z</time>
      </trkpt>
      <trkpt lat="45.48332" lon="4.59031">
        <ele>478</ele>
        <time>2014-11-14T19:18:24Z</time>
      </trkpt>
      <trkpt lat="45.48325" lon="4.59034">
        <ele>478</ele>
        <time>2014-11-14T19:18:27Z</time>
      </trkpt>
      <trkpt lat="45.48319" lon="4.59037">
        <ele>478</ele>
        <time>2014-11-14T19:18:30Z</time>
      </trkpt>
      <trkpt lat="45.48312" lon="4.59039">
        <ele>478</ele>
        <time>2014-11-14T19:18:33Z</time>
      </trkpt>
      <trkpt lat="45.48306" lon="4.59042">
        <ele>478</ele>
        <time>2014-11-14T19:18:36Z</time>
      </trkpt>
      <trkpt lat="45.48299" lon="4.59045">
        <ele>478</ele>
        <time>2014-11-14T19:18:39Z</time>
      </trkpt>
      <trkpt lat="45.48293" lon="4.59048">
        <ele>478</ele>
        <time>2014-11-14T19:18:42Z</time>
      </trkpt>
      <trkpt lat="45.48287" lon="4.59051">
        <ele>478</ele>
        <time>2014-11-14T19:18:45Z</time>
      </trkpt>
      <trkpt lat="45.4828" lon="4.59053">
        <ele>478</ele>
        <time>2014-11-14T19:18:48Z</time>
      </trkpt>
      <trkpt lat="45.48273" lon="4.59057">
        <ele>478</ele>
        <time>2014-11-14T19:18:51Z</time>
      </trkpt>
      <trkpt lat="45.48266" lon="4.5906">
        <ele>478</ele>
        <time>2014-11-14T19:18:54Z</time>
      </trkpt>
      <trkpt lat="45.48259" lon="4.59062">
        <ele>478</ele>
        <time>2014-11-14T19:18:57Z</time>
      </trkpt>
      <trkpt lat="45.48252" lon="4.59065">
        <ele>478</ele>
        <time>2014-11-14T19:19:00Z</time>
      </trkpt>
      <trkpt lat="45.48244" lon="4.59068">
        <ele>478</ele>
        <time>2014-11-14T19:19:03Z</time>
      </trkpt>
      <trkpt lat="45.48237" lon="4.59073">
        <ele>478</ele>
        <time>2014-11-14T19:19:06Z</time>
      </trkpt>
      <trkpt lat="45.4823" lon="4.59075">
        <ele>478</ele>
        <time>2014-11-14T19:19:09Z</time>
      </trkpt>
      <trkpt lat="45.48223" lon="4.59076">
        <ele>478</ele>
        <time>2014-11-14T19:19:12Z</time>
      </trkpt>
      <trkpt lat="45.48216" lon="4.59079">
        <ele>478</ele>
        <time>2014-11-14T19:19:15Z</time>
      </trkpt>
      <trkpt lat="45.4821" lon="4.59081">
        <ele>478</ele>
        <time>2014-11-14T19:19:18Z</time>
      </trkpt>
      <trkpt lat="45.48206" lon="4.59082">
        <ele>478</ele>
        <time>2014-11-14T19:19:22Z</time>
      </trkpt>
      <trkpt lat="45.48201" lon="4.59083">
        <ele>477</ele>
        <time>2014-11-14T19:19:25Z</time>
      </trkpt>
      <trkpt lat="45.48195" lon="4.59084">
        <ele>476</ele>
        <time>2014-11-14T19:19:28Z</time>
      </trkpt>
      <trkpt lat="45.48188" lon="4.59086">
        <ele>476</ele>
        <time>2014-11-14T19:19:31Z</time>
      </trkpt>
      <trkpt lat="45.48182" lon="4.59087">
        <ele>475</ele>
        <time>2014-11-14T19:19:34Z</time>
      </trkpt>
      <trkpt lat="45.48176" lon="4.59088">
        <ele>475</ele>
        <time>2014-11-14T19:19:37Z</time>
      </trkpt>
      <trkpt lat="45.4817" lon="4.59088">
        <ele>474</ele>
        <time>2014-11-14T19:19:40Z</time>
      </trkpt>
      <trkpt lat="45.48163" lon="4.59087">
        <ele>473</ele>
        <time>2014-11-14T19:19:43Z</time>
      </trkpt>
      <trkpt lat="45.48156" lon="4.59088">
        <ele>472</ele>
        <time>2014-11-14T19:19:46Z</time>
      </trkpt>
      <trkpt lat="45.4815" lon="4.59088">
        <ele>471</ele>
        <time>2014-11-14T19:19:49Z</time>
      </trkpt>
      <trkpt lat="45.48145" lon="4.5909">
        <ele>471</ele>
        <time>2014-11-14T19:19:52Z</time>
      </trkpt>
      <trkpt lat="45.4814" lon="4.59092">
        <ele>470</ele>
        <time>2014-11-14T19:19:55Z</time>
      </trkpt>
      <trkpt lat="45.48131" lon="4.59094">
        <ele>470</ele>
        <time>2014-11-14T19:19:59Z</time>
      </trkpt>
      <trkpt lat="45.48124" lon="4.59094">
        <ele>470</ele>
        <time>2014-11-14T19:20:02Z</time>
      </trkpt>
      <trkpt lat="45.48114" lon="4.59095">
        <ele>469</ele>
        <time>2014-11-14T19:20:05Z</time>
      </trkpt>
      <trkpt lat="45.48108" lon="4.59095">
        <ele>469</ele>
        <time>2014-11-14T19:20:08Z</time>
      </trkpt>
      <trkpt lat="45.48101" lon="4.59097">
        <ele>469</ele>
        <time>2014-11-14T19:20:12Z</time>
      </trkpt>
      <trkpt lat="45.48093" lon="4.59098">
        <ele>469</ele>
        <time>2014-11-14T19:20:15Z</time>
      </trkpt>
      <trkpt lat="45.48084" lon="4.59099">
        <ele>469</ele>
        <time>2014-11-14T19:20:19Z</time>
      </trkpt>
      <trkpt lat="45.48075" lon="4.591">
        <ele>469</ele>
        <time>2014-11-14T19:20:23Z</time>
      </trkpt>
      <trkpt lat="45.4807" lon="4.591">
        <ele>469</ele>
        <time>2014-11-14T19:20:26Z</time>
      </trkpt>
      <trkpt lat="45.48067" lon="4.59103">
        <ele>469</ele>
        <time>2014-11-14T19:20:29Z</time>
      </trkpt>
      <trkpt lat="45.48058" lon="4.59106">
        <ele>469</ele>
        <time>2014-11-14T19:20:32Z</time>
      </trkpt>
      <trkpt lat="45.48051" lon="4.59109">
        <ele>469</ele>
        <time>2014-11-14T19:20:36Z</time>
      </trkpt>
      <trkpt lat="45.48044" lon="4.5911">
        <ele>469</ele>
        <time>2014-11-14T19:20:39Z</time>
      </trkpt>
      <trkpt lat="45.48037" lon="4.59111">
        <ele>469</ele>
        <time>2014-11-14T19:20:42Z</time>
      </trkpt>
      <trkpt lat="45.48029" lon="4.59113">
        <ele>469</ele>
        <time>2014-11-14T19:20:45Z</time>
      </trkpt>
      <trkpt lat="45.48022" lon="4.59115">
        <ele>469</ele>
        <time>2014-11-14T19:20:48Z</time>
      </trkpt>
      <trkpt lat="45.48015" lon="4.59116">
        <ele>469</ele>
        <time>2014-11-14T19:20:51Z</time>
      </trkpt>
      <trkpt lat="45.48008" lon="4.59118">
        <ele>469</ele>
        <time>2014-11-14T19:20:54Z</time>
      </trkpt>
      <trkpt lat="45.48003" lon="4.5912">
        <ele>469</ele>
        <time>2014-11-14T19:20:58Z</time>
      </trkpt>
      <trkpt lat="45.47998" lon="4.59122">
        <ele>469</ele>
        <time>2014-11-14T19:21:01Z</time>
      </trkpt>
      <trkpt lat="45.4799" lon="4.59124">
        <ele>469</ele>
        <time>2014-11-14T19:21:04Z</time>
      </trkpt>
      <trkpt lat="45.47984" lon="4.59126">
        <ele>469</ele>
        <time>2014-11-14T19:21:08Z</time>
      </trkpt>
      <trkpt lat="45.47977" lon="4.59133">
        <ele>469</ele>
        <time>2014-11-14T19:21:11Z</time>
      </trkpt>
      <trkpt lat="45.47973" lon="4.5914">
        <ele>469</ele>
        <time>2014-11-14T19:21:15Z</time>
      </trkpt>
      <trkpt lat="45.4797" lon="4.59147">
        <ele>469</ele>
        <time>2014-11-14T19:21:18Z</time>
      </trkpt>
      <trkpt lat="45.47965" lon="4.59156">
        <ele>469</ele>
        <time>2014-11-14T19:21:22Z</time>
      </trkpt>
      <trkpt lat="45.47961" lon="4.59162">
        <ele>469</ele>
        <time>2014-11-14T19:21:25Z</time>
      </trkpt>
      <trkpt lat="45.4796" lon="4.59173">
        <ele>468</ele>
        <time>2014-11-14T19:21:29Z</time>
      </trkpt>
      <trkpt lat="45.4796" lon="4.59187">
        <ele>466</ele>
        <time>2014-11-14T19:21:32Z</time>
      </trkpt>
      <trkpt lat="45.4796" lon="4.59199">
        <ele>466</ele>
        <time>2014-11-14T19:21:35Z</time>
      </trkpt>
      <trkpt lat="45.47958" lon="4.59209">
        <ele>465</ele>
        <time>2014-11-14T19:21:39Z</time>
      </trkpt>
      <trkpt lat="45.47958" lon="4.59222">
        <ele>463</ele>
        <time>2014-11-14T19:21:42Z</time>
      </trkpt>
      <trkpt lat="45.47958" lon="4.59231">
        <ele>462</ele>
        <time>2014-11-14T19:21:45Z</time>
      </trkpt>
      <trkpt lat="45.47959" lon="4.59241">
        <ele>462</ele>
        <time>2014-11-14T19:21:49Z</time>
      </trkpt>
      <trkpt lat="45.47958" lon="4.5925">
        <ele>462</ele>
        <time>2014-11-14T19:21:52Z</time>
      </trkpt>
      <trkpt lat="45.47956" lon="4.59263">
        <ele>462</ele>
        <time>2014-11-14T19:21:56Z</time>
      </trkpt>
      <trkpt lat="45.47949" lon="4.59271">
        <ele>462</ele>
        <time>2014-11-14T19:21:59Z</time>
      </trkpt>
      <trkpt lat="45.47941" lon="4.59271">
        <ele>462</ele>
        <time>2014-11-14T19:22:02Z</time>
      </trkpt>
      <trkpt lat="45.47935" lon="4.59269">
        <ele>462</ele>
        <time>2014-11-14T19:22:06Z</time>
      </trkpt>
      <trkpt lat="45.47926" lon="4.59271">
        <ele>462</ele>
        <time>2014-11-14T19:22:09Z</time>
      </trkpt>
      <trkpt lat="45.47919" lon="4.59272">
        <ele>462</ele>
        <time>2014-11-14T19:22:12Z</time>
      </trkpt>
      <trkpt lat="45.47913" lon="4.59275">
        <ele>462</ele>
        <time>2014-11-14T19:22:16Z</time>
      </trkpt>
      <trkpt lat="45.47906" lon="4.5928">
        <ele>462</ele>
        <time>2014-11-14T19:22:19Z</time>
      </trkpt>
      <trkpt lat="45.47902" lon="4.59285">
        <ele>462</ele>
        <time>2014-11-14T19:22:22Z</time>
      </trkpt>
      <trkpt lat="45.47898" lon="4.59291">
        <ele>462</ele>
        <time>2014-11-14T19:22:26Z</time>
      </trkpt>
      <trkpt lat="45.47893" lon="4.59298">
        <ele>462</ele>
        <time>2014-11-14T19:22:29Z</time>
      </trkpt>
      <trkpt lat="45.47889" lon="4.59304">
        <ele>462</ele>
        <time>2014-11-14T19:22:32Z</time>
      </trkpt>
      <trkpt lat="45.47884" lon="4.59309">
        <ele>462</ele>
        <time>2014-11-14T19:22:36Z</time>
      </trkpt>
      <trkpt lat="45.47878" lon="4.59313">
        <ele>462</ele>
        <time>2014-11-14T19:22:39Z</time>
      </trkpt>
      <trkpt lat="45.47872" lon="4.59315">
        <ele>462</ele>
        <time>2014-11-14T19:22:42Z</time>
      </trkpt>
      <trkpt lat="45.47864" lon="4.59318">
        <ele>462</ele>
        <time>2014-11-14T19:22:46Z</time>
      </trkpt>
      <trkpt lat="45.47857" lon="4.5932">
        <ele>462</ele>
        <time>2014-11-14T19:22:49Z</time>
      </trkpt>
      <trkpt lat="45.47852" lon="4.59321">
        <ele>462</ele>
        <time>2014-11-14T19:22:52Z</time>
      </trkpt>
      <trkpt lat="45.47846" lon="4.59323">
        <ele>462</ele>
        <time>2014-11-14T19:22:56Z</time>
      </trkpt>
      <trkpt lat="45.47838" lon="4.59327">
        <ele>463</ele>
        <time>2014-11-14T19:22:59Z</time>
      </trkpt>
      <trkpt lat="45.47832" lon="4.59331">
        <ele>464</ele>
        <time>2014-11-14T19:23:02Z</time>
      </trkpt>
      <trkpt lat="45.47826" lon="4.59336">
        <ele>465</ele>
        <time>2014-11-14T19:23:06Z</time>
      </trkpt>
      <trkpt lat="45.4782" lon="4.5934">
        <ele>467</ele>
        <time>2014-11-14T19:23:09Z</time>
      </trkpt>
      <trkpt lat="45.47815" lon="4.59345">
        <ele>468</ele>
        <time>2014-11-14T19:23:12Z</time>
      </trkpt>
      <trkpt lat="45.47807" lon="4.59351">
        <ele>470</ele>
        <time>2014-11-14T19:23:15Z</time>
      </trkpt>
      <trkpt lat="45.47802" lon="4.59355">
        <ele>471</ele>
        <time>2014-11-14T19:23:18Z</time>
      </trkpt>
      <trkpt lat="45.47796" lon="4.59361">
        <ele>471</ele>
        <time>2014-11-14T19:23:22Z</time>
      </trkpt>
      <trkpt lat="45.47789" lon="4.59365">
        <ele>471</ele>
        <time>2014-11-14T19:23:25Z</time>
      </trkpt>
      <trkpt lat="45.47784" lon="4.59369">
        <ele>471</ele>
        <time>2014-11-14T19:23:28Z</time>
      </trkpt>
      <trkpt lat="45.47779" lon="4.59373">
        <ele>471</ele>
        <time>2014-11-14T19:23:31Z</time>
      </trkpt>
      <trkpt lat="45.47775" lon="4.59377">
        <ele>471</ele>
        <time>2014-11-14T19:23:34Z</time>
      </trkpt>
      <trkpt lat="45.4777" lon="4.59383">
        <ele>471</ele>
        <time>2014-11-14T19:23:38Z</time>
      </trkpt>
      <trkpt lat="45.47767" lon="4.59387">
        <ele>471</ele>
        <time>2014-11-14T19:23:42Z</time>
      </trkpt>
      <trkpt lat="45.47762" lon="4.59397">
        <ele>471</ele>
        <time>2014-11-14T19:23:45Z</time>
      </trkpt>
      <trkpt lat="45.47758" lon="4.59404">
        <ele>471</ele>
        <time>2014-11-14T19:23:48Z</time>
      </trkpt>
      <trkpt lat="45.47755" lon="4.59411">
        <ele>471</ele>
        <time>2014-11-14T19:23:52Z</time>
      </trkpt>
      <trkpt lat="45.47751" lon="4.5942">
        <ele>470</ele>
        <time>2014-11-14T19:23:55Z</time>
      </trkpt>
      <trkpt lat="45.47748" lon="4.59425">
        <ele>469</ele>
        <time>2014-11-14T19:23:58Z</time>
      </trkpt>
      <trkpt lat="45.47745" lon="4.59431">
        <ele>469</ele>
        <time>2014-11-14T19:24:02Z</time>
      </trkpt>
      <trkpt lat="45.47738" lon="4.59434">
        <ele>468</ele>
        <time>2014-11-14T19:24:05Z</time>
      </trkpt>
      <trkpt lat="45.47732" lon="4.59431">
        <ele>468</ele>
        <time>2014-11-14T19:24:08Z</time>
      </trkpt>
      <trkpt lat="45.4773" lon="4.59424">
        <ele>468</ele>
        <time>2014-11-14T19:24:12Z</time>
      </trkpt>
      <trkpt lat="45.47729" lon="4.59415">
        <ele>467</ele>
        <time>2014-11-14T19:24:15Z</time>
      </trkpt>
      <trkpt lat="45.47727" lon="4.59409">
        <ele>467</ele>
        <time>2014-11-14T19:24:18Z</time>
      </trkpt>
      <trkpt lat="45.47726" lon="4.59403">
        <ele>466</ele>
        <time>2014-11-14T19:24:22Z</time>
      </trkpt>
      <trkpt lat="45.47721" lon="4.59392">
        <ele>465</ele>
        <time>2014-11-14T19:24:25Z</time>
      </trkpt>
      <trkpt lat="45.47718" lon="4.59385">
        <ele>465</ele>
        <time>2014-11-14T19:24:28Z</time>
      </trkpt>
      <trkpt lat="45.47715" lon="4.59378">
        <ele>465</ele>
        <time>2014-11-14T19:24:32Z</time>
      </trkpt>
      <trkpt lat="45.47711" lon="4.59369">
        <ele>465</ele>
        <time>2014-11-14T19:24:35Z</time>
      </trkpt>
      <trkpt lat="45.47708" lon="4.59361">
        <ele>465</ele>
        <time>2014-11-14T19:24:38Z</time>
      </trkpt>
      <trkpt lat="45.47706" lon="4.59354">
        <ele>465</ele>
        <time>2014-11-14T19:24:41Z</time>
      </trkpt>
      <trkpt lat="45.47702" lon="4.59347">
        <ele>465</ele>
        <time>2014-11-14T19:24:44Z</time>
      </trkpt>
      <trkpt lat="45.47699" lon="4.59339">
        <ele>465</ele>
        <time>2014-11-14T19:24:47Z</time>
      </trkpt>
      <trkpt lat="45.47694" lon="4.59333">
        <ele>465</ele>
        <time>2014-11-14T19:24:50Z</time>
      </trkpt>
      <trkpt lat="45.4769" lon="4.59328">
        <ele>465</ele>
        <time>2014-11-14T19:24:54Z</time>
      </trkpt>
      <trkpt lat="45.47683" lon="4.59321">
        <ele>465</ele>
        <time>2014-11-14T19:24:57Z</time>
      </trkpt>
      <trkpt lat="45.47678" lon="4.59315">
        <ele>466</ele>
        <time>2014-11-14T19:25:00Z</time>
      </trkpt>
      <trkpt lat="45.47674" lon="4.59309">
        <ele>467</ele>
        <time>2014-11-14T19:25:03Z</time>
      </trkpt>
      <trkpt lat="45.4767" lon="4.59305">
        <ele>468</ele>
        <time>2014-11-14T19:25:06Z</time>
      </trkpt>
      <trkpt lat="45.47666" lon="4.59299">
        <ele>468</ele>
        <time>2014-11-14T19:25:09Z</time>
      </trkpt>
      <trkpt lat="45.47662" lon="4.59294">
        <ele>468</ele>
        <time>2014-11-14T19:25:12Z</time>
      </trkpt>
      <trkpt lat="45.47657" lon="4.59289">
        <ele>469</ele>
        <time>2014-11-14T19:25:15Z</time>
      </trkpt>
      <trkpt lat="45.47653" lon="4.59284">
        <ele>469</ele>
        <time>2014-11-14T19:25:18Z</time>
      </trkpt>
      <trkpt lat="45.47647" lon="4.59279">
        <ele>469</ele>
        <time>2014-11-14T19:25:21Z</time>
      </trkpt>
      <trkpt lat="45.47642" lon="4.59275">
        <ele>470</ele>
        <time>2014-11-14T19:25:24Z</time>
      </trkpt>
      <trkpt lat="45.47636" lon="4.59269">
        <ele>471</ele>
        <time>2014-11-14T19:25:27Z</time>
      </trkpt>
      <trkpt lat="45.4763" lon="4.59263">
        <ele>471</ele>
        <time>2014-11-14T19:25:30Z</time>
      </trkpt>
      <trkpt lat="45.47624" lon="4.59258">
        <ele>471</ele>
        <time>2014-11-14T19:25:33Z</time>
      </trkpt>
      <trkpt lat="45.4762" lon="4.59251">
        <ele>471</ele>
        <time>2014-11-14T19:25:37Z</time>
      </trkpt>
      <trkpt lat="45.47614" lon="4.59241">
        <ele>472</ele>
        <time>2014-11-14T19:25:40Z</time>
      </trkpt>
      <trkpt lat="45.47612" lon="4.59231">
        <ele>473</ele>
        <time>2014-11-14T19:25:43Z</time>
      </trkpt>
      <trkpt lat="45.4761" lon="4.5922">
        <ele>474</ele>
        <time>2014-11-14T19:25:46Z</time>
      </trkpt>
      <trkpt lat="45.47608" lon="4.59211">
        <ele>475</ele>
        <time>2014-11-14T19:25:49Z</time>
      </trkpt>
      <trkpt lat="45.47607" lon="4.59201">
        <ele>476</ele>
        <time>2014-11-14T19:25:52Z</time>
      </trkpt>
      <trkpt lat="45.47605" lon="4.59192">
        <ele>476</ele>
        <time>2014-11-14T19:25:55Z</time>
      </trkpt>
      <trkpt lat="45.47605" lon="4.59183">
        <ele>476</ele>
        <time>2014-11-14T19:25:58Z</time>
      </trkpt>
      <trkpt lat="45.47604" lon="4.59176">
        <ele>476</ele>
        <time>2014-11-14T19:26:01Z</time>
      </trkpt>
      <trkpt lat="45.47603" lon="4.59169">
        <ele>476</ele>
        <time>2014-11-14T19:26:04Z</time>
      </trkpt>
      <trkpt lat="45.47602" lon="4.59163">
        <ele>476</ele>
        <time>2014-11-14T19:26:07Z</time>
      </trkpt>
      <trkpt lat="45.47601" lon="4.59156">
        <ele>476</ele>
        <time>2014-11-14T19:26:10Z</time>
      </trkpt>
      <trkpt lat="45.476" lon="4.5915">
        <ele>476</ele>
        <time>2014-11-14T19:26:13Z</time>
      </trkpt>
      <trkpt lat="45.47597" lon="4.59141">
        <ele>476</ele>
        <time>2014-11-14T19:26:16Z</time>
      </trkpt>
      <trkpt lat="45.47595" lon="4.59134">
        <ele>476</ele>
        <time>2014-11-14T19:26:19Z</time>
      </trkpt>
      <trkpt lat="45.47593" lon="4.59128">
        <ele>476</ele>
        <time>2014-11-14T19:26:22Z</time>
      </trkpt>
      <trkpt lat="45.47589" lon="4.59123">
        <ele>476</ele>
        <time>2014-11-14T19:26:25Z</time>
      </trkpt>
      <trkpt lat="45.47585" lon="4.59118">
        <ele>476</ele>
        <time>2014-11-14T19:26:28Z</time>
      </trkpt>
      <trkpt lat="45.47581" lon="4.5911">
        <ele>476</ele>
        <time>2014-11-14T19:26:31Z</time>
      </trkpt>
      <trkpt lat="45.47578" lon="4.59102">
        <ele>477</ele>
        <time>2014-11-14T19:26:34Z</time>
      </trkpt>
      <trkpt lat="45.47575" lon="4.59097">
        <ele>478</ele>
        <time>2014-11-14T19:26:37Z</time>
      </trkpt>
      <trkpt lat="45.4757" lon="4.59092">
        <ele>478</ele>
        <time>2014-11-14T19:26:41Z</time>
      </trkpt>
      <trkpt lat="45.47567" lon="4.59089">
        <ele>479</ele>
        <time>2014-11-14T19:26:45Z</time>
      </trkpt>
      <trkpt lat="45.47563" lon="4.59088">
        <ele>479</ele>
        <time>2014-11-14T19:26:48Z</time>
      </trkpt>
      <trkpt lat="45.4756" lon="4.59089">
        <ele>479</ele>
        <time>2014-11-14T19:26:51Z</time>
      </trkpt>
      <trkpt lat="45.47556" lon="4.59089">
        <ele>480</ele>
        <time>2014-11-14T19:26:55Z</time>
      </trkpt>
      <trkpt lat="45.47552" lon="4.59089">
        <ele>480</ele>
        <time>2014-11-14T19:26:59Z</time>
      </trkpt>
      <trkpt lat="45.47548" lon="4.5909">
        <ele>480</ele>
        <time>2014-11-14T19:27:02Z</time>
      </trkpt>
      <trkpt lat="45.47544" lon="4.59091">
        <ele>481</ele>
        <time>2014-11-14T19:27:06Z</time>
      </trkpt>
      <trkpt lat="45.47541" lon="4.59094">
        <ele>481</ele>
        <time>2014-11-14T19:27:09Z</time>
      </trkpt>
      <trkpt lat="45.47537" lon="4.59096">
        <ele>481</ele>
        <time>2014-11-14T19:27:13Z</time>
      </trkpt>
      <trkpt lat="45.47535" lon="4.59101">
        <ele>482</ele>
        <time>2014-11-14T19:27:16Z</time>
      </trkpt>
      <trkpt lat="45.47533" lon="4.59106">
        <ele>482</ele>
        <time>2014-11-14T19:27:19Z</time>
      </trkpt>
      <trkpt lat="45.47533" lon="4.59112">
        <ele>483</ele>
        <time>2014-11-14T19:27:22Z</time>
      </trkpt>
      <trkpt lat="45.47533" lon="4.59117">
        <ele>484</ele>
        <time>2014-11-14T19:27:25Z</time>
      </trkpt>
      <trkpt lat="45.47533" lon="4.59123">
        <ele>484</ele>
        <time>2014-11-14T19:27:28Z</time>
      </trkpt>
      <trkpt lat="45.47531" lon="4.59128">
        <ele>485</ele>
        <time>2014-11-14T19:27:31Z</time>
      </trkpt>
      <trkpt lat="45.47529" lon="4.59133">
        <ele>485</ele>
        <time>2014-11-14T19:27:34Z</time>
      </trkpt>
      <trkpt lat="45.47524" lon="4.59134">
        <ele>486</ele>
        <time>2014-11-14T19:27:37Z</time>
      </trkpt>
      <trkpt lat="45.4752" lon="4.59132">
        <ele>486</ele>
        <time>2014-11-14T19:27:40Z</time>
      </trkpt>
      <trkpt lat="45.47516" lon="4.59129">
        <ele>486</ele>
        <time>2014-11-14T19:27:43Z</time>
      </trkpt>
      <trkpt lat="45.47512" lon="4.59126">
        <ele>486</ele>
        <time>2014-11-14T19:27:46Z</time>
      </trkpt>
      <trkpt lat="45.47509" lon="4.59122">
        <ele>487</ele>
        <time>2014-11-14T19:27:49Z</time>
      </trkpt>
      <trkpt lat="45.47504" lon="4.59119">
        <ele>487</ele>
        <time>2014-11-14T19:27:52Z</time>
      </trkpt>
      <trkpt lat="45.47498" lon="4.59118">
        <ele>488</ele>
        <time>2014-11-14T19:27:55Z</time>
      </trkpt>
      <trkpt lat="45.47493" lon="4.59118">
        <ele>489</ele>
        <time>2014-11-14T19:27:58Z</time>
      </trkpt>
      <trkpt lat="45.47488" lon="4.59118">
        <ele>491</ele>
        <time>2014-11-14T19:28:02Z</time>
      </trkpt>
      <trkpt lat="45.47483" lon="4.59118">
        <ele>492</ele>
        <time>2014-11-14T19:28:05Z</time>
      </trkpt>
      <trkpt lat="45.47478" lon="4.59119">
        <ele>493</ele>
        <time>2014-11-14T19:28:08Z</time>
      </trkpt>
      <trkpt lat="45.47475" lon="4.59121">
        <ele>495</ele>
        <time>2014-11-14T19:28:11Z</time>
      </trkpt>
      <trkpt lat="45.4747" lon="4.59124">
        <ele>496</ele>
        <time>2014-11-14T19:28:14Z</time>
      </trkpt>
      <trkpt lat="45.47466" lon="4.59126">
        <ele>498</ele>
        <time>2014-11-14T19:28:18Z</time>
      </trkpt>
      <trkpt lat="45.47462" lon="4.5913">
        <ele>498</ele>
        <time>2014-11-14T19:28:21Z</time>
      </trkpt>
      <trkpt lat="45.47456" lon="4.59133">
        <ele>499</ele>
        <time>2014-11-14T19:28:24Z</time>
      </trkpt>
      <trkpt lat="45.47452" lon="4.59136">
        <ele>501</ele>
        <time>2014-11-14T19:28:27Z</time>
      </trkpt>
      <trkpt lat="45.47451" lon="4.59141">
        <ele>502</ele>
        <time>2014-11-14T19:28:30Z</time>
      </trkpt>
      <trkpt lat="45.47449" lon="4.59146">
        <ele>503</ele>
        <time>2014-11-14T19:28:33Z</time>
      </trkpt>
      <trkpt lat="45.47448" lon="4.59151">
        <ele>503</ele>
        <time>2014-11-14T19:28:36Z</time>
      </trkpt>
      <trkpt lat="45.47446" lon="4.59157">
        <ele>504</ele>
        <time>2014-11-14T19:28:39Z</time>
      </trkpt>
      <trkpt lat="45.47443" lon="4.59163">
        <ele>505</ele>
        <time>2014-11-14T19:28:42Z</time>
      </trkpt>
      <trkpt lat="45.4744" lon="4.59169">
        <ele>505</ele>
        <time>2014-11-14T19:28:45Z</time>
      </trkpt>
      <trkpt lat="45.47439" lon="4.59175">
        <ele>505</ele>
        <time>2014-11-14T19:28:48Z</time>
      </trkpt>
      <trkpt lat="45.47437" lon="4.59181">
        <ele>505</ele>
        <time>2014-11-14T19:28:51Z</time>
      </trkpt>
      <trkpt lat="45.47436" lon="4.59187">
        <ele>505</ele>
        <time>2014-11-14T19:28:54Z</time>
      </trkpt>
      <trkpt lat="45.47436" lon="4.59193">
        <ele>505</ele>
        <time>2014-11-14T19:28:57Z</time>
      </trkpt>
      <trkpt lat="45.47434" lon="4.592">
        <ele>505</ele>
        <time>2014-11-14T19:29:00Z</time>
      </trkpt>
      <trkpt lat="45.47433" lon="4.59207">
        <ele>505</ele>
        <time>2014-11-14T19:29:03Z</time>
      </trkpt>
      <trkpt lat="45.47433" lon="4.59214">
        <ele>505</ele>
        <time>2014-11-14T19:29:06Z</time>
      </trkpt>
      <trkpt lat="45.47433" lon="4.59222">
        <ele>505</ele>
        <time>2014-11-14T19:29:09Z</time>
      </trkpt>
      <trkpt lat="45.47434" lon="4.59229">
        <ele>505</ele>
        <time>2014-11-14T19:29:12Z</time>
      </trkpt>
      <trkpt lat="45.47435" lon="4.59236">
        <ele>505</ele>
        <time>2014-11-14T19:29:15Z</time>
      </trkpt>
      <trkpt lat="45.47435" lon="4.59244">
        <ele>505</ele>
        <time>2014-11-14T19:29:18Z</time>
      </trkpt>
      <trkpt lat="45.47435" lon="4.59251">
        <ele>505</ele>
        <time>2014-11-14T19:29:21Z</time>
      </trkpt>
      <trkpt lat="45.47434" lon="4.59258">
        <ele>505</ele>
        <time>2014-11-14T19:29:24Z</time>
      </trkpt>
      <trkpt lat="45.47432" lon="4.59266">
        <ele>505</ele>
        <time>2014-11-14T19:29:27Z</time>
      </trkpt>
      <trkpt lat="45.47431" lon="4.59273">
        <ele>505</ele>
        <time>2014-11-14T19:29:30Z</time>
      </trkpt>
      <trkpt lat="45.47429" lon="4.59282">
        <ele>505</ele>
        <time>2014-11-14T19:29:33Z</time>
      </trkpt>
      <trkpt lat="45.4743" lon="4.59291">
        <ele>505</ele>
        <time>2014-11-14T19:29:36Z</time>
      </trkpt>
      <trkpt lat="45.47429" lon="4.59299">
        <ele>505</ele>
        <time>2014-11-14T19:29:39Z</time>
      </trkpt>
      <trkpt lat="45.47429" lon="4.59308">
        <ele>505</ele>
        <time>2014-11-14T19:29:42Z</time>
      </trkpt>
      <trkpt lat="45.4743" lon="4.59314">
        <ele>505</ele>
        <time>2014-11-14T19:29:45Z</time>
      </trkpt>
      <trkpt lat="45.4743" lon="4.59322">
        <ele>505</ele>
        <time>2014-11-14T19:29:48Z</time>
      </trkpt>
      <trkpt lat="45.4743" lon="4.5933">
        <ele>505</ele>
        <time>2014-11-14T19:29:51Z</time>
      </trkpt>
      <trkpt lat="45.4743" lon="4.59338">
        <ele>505</ele>
        <time>2014-11-14T19:29:54Z</time>
      </trkpt>
      <trkpt lat="45.47431" lon="4.59347">
        <ele>505</ele>
        <time>2014-11-14T19:29:57Z</time>
      </trkpt>
      <trkpt lat="45.47432" lon="4.59357">
        <ele>505</ele>
        <time>2014-11-14T19:30:00Z</time>
      </trkpt>
      <trkpt lat="45.47433" lon="4.59366">
        <ele>505</ele>
        <time>2014-11-14T19:30:03Z</time>
      </trkpt>
      <trkpt lat="45.47435" lon="4.59377">
        <ele>505</ele>
        <time>2014-11-14T19:30:06Z</time>
      </trkpt>
      <trkpt lat="45.47438" lon="4.59386">
        <ele>505</ele>
        <time>2014-11-14T19:30:09Z</time>
      </trkpt>
      <trkpt lat="45.47438" lon="4.59396">
        <ele>505</ele>
        <time>2014-11-14T19:30:12Z</time>
      </trkpt>
      <trkpt lat="45.47439" lon="4.59406">
        <ele>505</ele>
        <time>2014-11-14T19:30:15Z</time>
      </trkpt>
      <trkpt lat="45.47441" lon="4.59414">
        <ele>505</ele>
        <time>2014-11-14T19:30:18Z</time>
      </trkpt>
      <trkpt lat="45.47445" lon="4.59423">
        <ele>505</ele>
        <time>2014-11-14T19:30:21Z</time>
      </trkpt>
      <trkpt lat="45.47449" lon="4.59429">
        <ele>505</ele>
        <time>2014-11-14T19:30:24Z</time>
      </trkpt>
      <trkpt lat="45.47455" lon="4.59432">
        <ele>505</ele>
        <time>2014-11-14T19:30:27Z</time>
      </trkpt>
      <trkpt lat="45.4746" lon="4.59434">
        <ele>505</ele>
        <time>2014-11-14T19:30:30Z</time>
      </trkpt>
      <trkpt lat="45.47466" lon="4.59435">
        <ele>505</ele>
        <time>2014-11-14T19:30:33Z</time>
      </trkpt>
      <trkpt lat="45.47471" lon="4.59437">
        <ele>505</ele>
        <time>2014-11-14T19:30:36Z</time>
      </trkpt>
      <trkpt lat="45.47476" lon="4.59439">
        <ele>505</ele>
        <time>2014-11-14T19:30:39Z</time>
      </trkpt>
      <trkpt lat="45.47481" lon="4.59441">
        <ele>505</ele>
        <time>2014-11-14T19:30:42Z</time>
      </trkpt>
      <trkpt lat="45.47487" lon="4.59443">
        <ele>506</ele>
        <time>2014-11-14T19:30:45Z</time>
      </trkpt>
      <trkpt lat="45.47492" lon="4.59445">
        <ele>507</ele>
        <time>2014-11-14T19:30:48Z</time>
      </trkpt>
      <trkpt lat="45.47497" lon="4.59447">
        <ele>508</ele>
        <time>2014-11-14T19:30:51Z</time>
      </trkpt>
      <trkpt lat="45.47502" lon="4.59449">
        <ele>509</ele>
        <time>2014-11-14T19:30:54Z</time>
      </trkpt>
      <trkpt lat="45.47508" lon="4.59452">
        <ele>509</ele>
        <time>2014-11-14T19:30:58Z</time>
      </trkpt>
      <trkpt lat="45.47514" lon="4.59458">
        <ele>511</ele>
        <time>2014-11-14T19:31:01Z</time>
      </trkpt>
      <trkpt lat="45.47518" lon="4.59464">
        <ele>512</ele>
        <time>2014-11-14T19:31:04Z</time>
      </trkpt>
      <trkpt lat="45.47521" lon="4.59469">
        <ele>512</ele>
        <time>2014-11-14T19:31:07Z</time>
      </trkpt>
      <trkpt lat="45.47524" lon="4.59474">
        <ele>513</ele>
        <time>2014-11-14T19:31:10Z</time>
      </trkpt>
      <trkpt lat="45.47527" lon="4.5948">
        <ele>513</ele>
        <time>2014-11-14T19:31:13Z</time>
      </trkpt>
      <trkpt lat="45.47531" lon="4.59485">
        <ele>514</ele>
        <time>2014-11-14T19:31:16Z</time>
      </trkpt>
      <trkpt lat="45.47533" lon="4.59491">
        <ele>515</ele>
        <time>2014-11-14T19:31:19Z</time>
      </trkpt>
      <trkpt lat="45.47536" lon="4.59497">
        <ele>515</ele>
        <time>2014-11-14T19:31:22Z</time>
      </trkpt>
      <trkpt lat="45.47538" lon="4.59504">
        <ele>515</ele>
        <time>2014-11-14T19:31:25Z</time>
      </trkpt>
      <trkpt lat="45.47539" lon="4.5951">
        <ele>516</ele>
        <time>2014-11-14T19:31:28Z</time>
      </trkpt>
      <trkpt lat="45.4754" lon="4.59517">
        <ele>517</ele>
        <time>2014-11-14T19:31:31Z</time>
      </trkpt>
      <trkpt lat="45.47537" lon="4.59523">
        <ele>517</ele>
        <time>2014-11-14T19:31:35Z</time>
      </trkpt>
      <trkpt lat="45.47533" lon="4.59525">
        <ele>518</ele>
        <time>2014-11-14T19:31:39Z</time>
      </trkpt>
      <trkpt lat="45.47529" lon="4.59527">
        <ele>520</ele>
        <time>2014-11-14T19:31:42Z</time>
      </trkpt>
      <trkpt lat="45.47526" lon="4.59528">
        <ele>520</ele>
        <time>2014-11-14T19:31:45Z</time>
      </trkpt>
      <trkpt lat="45.47522" lon="4.59528">
        <ele>521</ele>
        <time>2014-11-14T19:31:48Z</time>
      </trkpt>
      <trkpt lat="45.47518" lon="4.59529">
        <ele>521</ele>
        <time>2014-11-14T19:31:51Z</time>
      </trkpt>
      <trkpt lat="45.47515" lon="4.5953">
        <ele>522</ele>
        <time>2014-11-14T19:31:54Z</time>
      </trkpt>
      <trkpt lat="45.47511" lon="4.59531">
        <ele>522</ele>
        <time>2014-11-14T19:31:57Z</time>
      </trkpt>
      <trkpt lat="45.47508" lon="4.59533">
        <ele>523</ele>
        <time>2014-11-14T19:32:00Z</time>
      </trkpt>
      <trkpt lat="45.47504" lon="4.59535">
        <ele>523</ele>
        <time>2014-11-14T19:32:03Z</time>
      </trkpt>
      <trkpt lat="45.47501" lon="4.59538">
        <ele>524</ele>
        <time>2014-11-14T19:32:06Z</time>
      </trkpt>
      <trkpt lat="45.47497" lon="4.59541">
        <ele>525</ele>
        <time>2014-11-14T19:32:09Z</time>
      </trkpt>
      <trkpt lat="45.47492" lon="4.59547">
        <ele>525</ele>
        <time>2014-11-14T19:32:13Z</time>
      </trkpt>
      <trkpt lat="45.47488" lon="4.59553">
        <ele>526</ele>
        <time>2014-11-14T19:32:18Z</time>
      </trkpt>
      <trkpt lat="45.47483" lon="4.59562">
        <ele>527</ele>
        <time>2014-11-14T19:32:21Z</time>
      </trkpt>
      <trkpt lat="45.47482" lon="4.59569">
        <ele>528</ele>
        <time>2014-11-14T19:32:24Z</time>
      </trkpt>
      <trkpt lat="45.47482" lon="4.59576">
        <ele>528</ele>
        <time>2014-11-14T19:32:27Z</time>
      </trkpt>
      <trkpt lat="45.47482" lon="4.59582">
        <ele>529</ele>
        <time>2014-11-14T19:32:30Z</time>
      </trkpt>
      <trkpt lat="45.47483" lon="4.59587">
        <ele>529</ele>
        <time>2014-11-14T19:32:33Z</time>
      </trkpt>
      <trkpt lat="45.47484" lon="4.59592">
        <ele>529</ele>
        <time>2014-11-14T19:32:36Z</time>
      </trkpt>
      <trkpt lat="45.47486" lon="4.59597">
        <ele>529</ele>
        <time>2014-11-14T19:32:39Z</time>
      </trkpt>
      <trkpt lat="45.47487" lon="4.59602">
        <ele>529</ele>
        <time>2014-11-14T19:32:42Z</time>
      </trkpt>
      <trkpt lat="45.47488" lon="4.59607">
        <ele>529</ele>
        <time>2014-11-14T19:32:45Z</time>
      </trkpt>
      <trkpt lat="45.4749" lon="4.59613">
        <ele>529</ele>
        <time>2014-11-14T19:32:48Z</time>
      </trkpt>
      <trkpt lat="45.47492" lon="4.59619">
        <ele>531</ele>
        <time>2014-11-14T19:32:51Z</time>
      </trkpt>
      <trkpt lat="45.47493" lon="4.59624">
        <ele>532</ele>
        <time>2014-11-14T19:32:54Z</time>
      </trkpt>
      <trkpt lat="45.47496" lon="4.5963">
        <ele>532</ele>
        <time>2014-11-14T19:32:57Z</time>
      </trkpt>
      <trkpt lat="45.47499" lon="4.59636">
        <ele>534</ele>
        <time>2014-11-14T19:33:00Z</time>
      </trkpt>
      <trkpt lat="45.47501" lon="4.59643">
        <ele>535</ele>
        <time>2014-11-14T19:33:03Z</time>
      </trkpt>
      <trkpt lat="45.47503" lon="4.59648">
        <ele>537</ele>
        <time>2014-11-14T19:33:06Z</time>
      </trkpt>
      <trkpt lat="45.47505" lon="4.59653">
        <ele>537</ele>
        <time>2014-11-14T19:33:09Z</time>
      </trkpt>
      <trkpt lat="45.47508" lon="4.59657">
        <ele>538</ele>
        <time>2014-11-14T19:33:12Z</time>
      </trkpt>
      <trkpt lat="45.4751" lon="4.59662">
        <ele>538</ele>
        <time>2014-11-14T19:33:15Z</time>
      </trkpt>
      <trkpt lat="45.47511" lon="4.59668">
        <ele>538</ele>
        <time>2014-11-14T19:33:18Z</time>
      </trkpt>
      <trkpt lat="45.47512" lon="4.59673">
        <ele>538</ele>
        <time>2014-11-14T19:33:21Z</time>
      </trkpt>
      <trkpt lat="45.47515" lon="4.5968">
        <ele>539</ele>
        <time>2014-11-14T19:33:24Z</time>
      </trkpt>
      <trkpt lat="45.47517" lon="4.59684">
        <ele>540</ele>
        <time>2014-11-14T19:33:27Z</time>
      </trkpt>
      <trkpt lat="45.47521" lon="4.5969">
        <ele>541</ele>
        <time>2014-11-14T19:33:30Z</time>
      </trkpt>
      <trkpt lat="45.47523" lon="4.59696">
        <ele>542</ele>
        <time>2014-11-14T19:33:33Z</time>
      </trkpt>
      <trkpt lat="45.47526" lon="4.59702">
        <ele>544</ele>
        <time>2014-11-14T19:33:36Z</time>
      </trkpt>
      <trkpt lat="45.47528" lon="4.59707">
        <ele>546</ele>
        <time>2014-11-14T19:33:39Z</time>
      </trkpt>
      <trkpt lat="45.4753" lon="4.59712">
        <ele>547</ele>
        <time>2014-11-14T19:33:42Z</time>
      </trkpt>
      <trkpt lat="45.47532" lon="4.59718">
        <ele>548</ele>
        <time>2014-11-14T19:33:45Z</time>
      </trkpt>
      <trkpt lat="45.47533" lon="4.59723">
        <ele>549</ele>
        <time>2014-11-14T19:33:48Z</time>
      </trkpt>
      <trkpt lat="45.47535" lon="4.59728">
        <ele>549</ele>
        <time>2014-11-14T19:33:51Z</time>
      </trkpt>
      <trkpt lat="45.47537" lon="4.59733">
        <ele>550</ele>
        <time>2014-11-14T19:33:54Z</time>
      </trkpt>
      <trkpt lat="45.47539" lon="4.5974">
        <ele>551</ele>
        <time>2014-11-14T19:33:57Z</time>
      </trkpt>
      <trkpt lat="45.47543" lon="4.59748">
        <ele>551</ele>
        <time>2014-11-14T19:34:00Z</time>
      </trkpt>
      <trkpt lat="45.47545" lon="4.59754">
        <ele>552</ele>
        <time>2014-11-14T19:34:03Z</time>
      </trkpt>
      <trkpt lat="45.47546" lon="4.59759">
        <ele>552</ele>
        <time>2014-11-14T19:34:06Z</time>
      </trkpt>
      <trkpt lat="45.47549" lon="4.59763">
        <ele>553</ele>
        <time>2014-11-14T19:34:09Z</time>
      </trkpt>
      <trkpt lat="45.4755" lon="4.59768">
        <ele>553</ele>
        <time>2014-11-14T19:34:12Z</time>
      </trkpt>
      <trkpt lat="45.47551" lon="4.59773">
        <ele>553</ele>
        <time>2014-11-14T19:34:15Z</time>
      </trkpt>
      <trkpt lat="45.47552" lon="4.59778">
        <ele>553</ele>
        <time>2014-11-14T19:34:18Z</time>
      </trkpt>
      <trkpt lat="45.47554" lon="4.59784">
        <ele>554</ele>
        <time>2014-11-14T19:34:21Z</time>
      </trkpt>
      <trkpt lat="45.47555" lon="4.59789">
        <ele>555</ele>
        <time>2014-11-14T19:34:24Z</time>
      </trkpt>
      <trkpt lat="45.47557" lon="4.59795">
        <ele>555</ele>
        <time>2014-11-14T19:34:27Z</time>
      </trkpt>
      <trkpt lat="45.47558" lon="4.598">
        <ele>555</ele>
        <time>2014-11-14T19:34:30Z</time>
      </trkpt>
      <trkpt lat="45.47559" lon="4.59806">
        <ele>556</ele>
        <time>2014-11-14T19:34:33Z</time>
      </trkpt>
      <trkpt lat="45.47561" lon="4.59812">
        <ele>557</ele>
        <time>2014-11-14T19:34:36Z</time>
      </trkpt>
      <trkpt lat="45.47562" lon="4.59818">
        <ele>558</ele>
        <time>2014-11-14T19:34:39Z</time>
      </trkpt>
      <trkpt lat="45.47564" lon="4.59824">
        <ele>559</ele>
        <time>2014-11-14T19:34:42Z</time>
      </trkpt>
      <trkpt lat="45.47565" lon="4.59829">
        <ele>560</ele>
        <time>2014-11-14T19:34:45Z</time>
      </trkpt>
      <trkpt lat="45.47567" lon="4.59834">
        <ele>561</ele>
        <time>2014-11-14T19:34:48Z</time>
      </trkpt>
      <trkpt lat="45.47567" lon="4.59839">
        <ele>562</ele>
        <time>2014-11-14T19:34:51Z</time>
      </trkpt>
      <trkpt lat="45.47568" lon="4.59845">
        <ele>562</ele>
        <time>2014-11-14T19:34:54Z</time>
      </trkpt>
      <trkpt lat="45.4757" lon="4.5985">
        <ele>562</ele>
        <time>2014-11-14T19:34:57Z</time>
      </trkpt>
      <trkpt lat="45.4757" lon="4.59856">
        <ele>563</ele>
        <time>2014-11-14T19:35:00Z</time>
      </trkpt>
      <trkpt lat="45.47571" lon="4.59861">
        <ele>563</ele>
        <time>2014-11-14T19:35:03Z</time>
      </trkpt>
      <trkpt lat="45.47571" lon="4.59866">
        <ele>563</ele>
        <time>2014-11-14T19:35:06Z</time>
      </trkpt>
      <trkpt lat="45.47571" lon="4.59872">
        <ele>564</ele>
        <time>2014-11-14T19:35:09Z</time>
      </trkpt>
      <trkpt lat="45.47571" lon="4.59878">
        <ele>565</ele>
        <time>2014-11-14T19:35:12Z</time>
      </trkpt>
      <trkpt lat="45.47571" lon="4.59884">
        <ele>566</ele>
        <time>2014-11-14T19:35:15Z</time>
      </trkpt>
      <trkpt lat="45.47571" lon="4.5989">
        <ele>566</ele>
        <time>2014-11-14T19:35:18Z</time>
      </trkpt>
      <trkpt lat="45.47572" lon="4.59895">
        <ele>566</ele>
        <time>2014-11-14T19:35:21Z</time>
      </trkpt>
      <trkpt lat="45.47572" lon="4.59899">
        <ele>566</ele>
        <time>2014-11-14T19:35:24Z</time>
      </trkpt>
      <trkpt lat="45.47573" lon="4.59904">
        <ele>566</ele>
        <time>2014-11-14T19:35:27Z</time>
      </trkpt>
      <trkpt lat="45.47573" lon="4.59909">
        <ele>566</ele>
        <time>2014-11-14T19:35:30Z</time>
      </trkpt>
      <trkpt lat="45.47572" lon="4.59914">
        <ele>566</ele>
        <time>2014-11-14T19:35:33Z</time>
      </trkpt>
      <trkpt lat="45.47571" lon="4.59919">
        <ele>566</ele>
        <time>2014-11-14T19:35:36Z</time>
      </trkpt>
      <trkpt lat="45.4757" lon="4.59925">
        <ele>567</ele>
        <time>2014-11-14T19:35:39Z</time>
      </trkpt>
      <trkpt lat="45.47569" lon="4.59932">
        <ele>568</ele>
        <time>2014-11-14T19:35:42Z</time>
      </trkpt>
      <trkpt lat="45.47567" lon="4.59939">
        <ele>571</ele>
        <time>2014-11-14T19:35:46Z</time>
      </trkpt>
      <trkpt lat="45.47566" lon="4.59944">
        <ele>572</ele>
        <time>2014-11-14T19:35:49Z</time>
      </trkpt>
      <trkpt lat="45.47565" lon="4.5995">
        <ele>572</ele>
        <time>2014-11-14T19:35:52Z</time>
      </trkpt>
      <trkpt lat="45.47564" lon="4.59956">
        <ele>573</ele>
        <time>2014-11-14T19:35:55Z</time>
      </trkpt>
      <trkpt lat="45.47564" lon="4.59962">
        <ele>574</ele>
        <time>2014-11-14T19:35:58Z</time>
      </trkpt>
      <trkpt lat="45.47562" lon="4.59968">
        <ele>575</ele>
        <time>2014-11-14T19:36:01Z</time>
      </trkpt>
      <trkpt lat="45.47561" lon="4.59973">
        <ele>575</ele>
        <time>2014-11-14T19:36:04Z</time>
      </trkpt>
      <trkpt lat="45.47561" lon="4.59977">
        <ele>576</ele>
        <time>2014-11-14T19:36:07Z</time>
      </trkpt>
      <trkpt lat="45.47559" lon="4.59984">
        <ele>577</ele>
        <time>2014-11-14T19:36:10Z</time>
      </trkpt>
      <trkpt lat="45.47558" lon="4.59989">
        <ele>577</ele>
        <time>2014-11-14T19:36:13Z</time>
      </trkpt>
      <trkpt lat="45.47557" lon="4.59994">
        <ele>578</ele>
        <time>2014-11-14T19:36:16Z</time>
      </trkpt>
      <trkpt lat="45.47555" lon="4.6">
        <ele>578</ele>
        <time>2014-11-14T19:36:19Z</time>
      </trkpt>
      <trkpt lat="45.47554" lon="4.60005">
        <ele>579</ele>
        <time>2014-11-14T19:36:22Z</time>
      </trkpt>
      <trkpt lat="45.47553" lon="4.60011">
        <ele>579</ele>
        <time>2014-11-14T19:36:25Z</time>
      </trkpt>
      <trkpt lat="45.47551" lon="4.60016">
        <ele>580</ele>
        <time>2014-11-14T19:36:28Z</time>
      </trkpt>
      <trkpt lat="45.47551" lon="4.60021">
        <ele>581</ele>
        <time>2014-11-14T19:36:31Z</time>
      </trkpt>
      <trkpt lat="45.47549" lon="4.60028">
        <ele>581</ele>
        <time>2014-11-14T19:36:34Z</time>
      </trkpt>
      <trkpt lat="45.47548" lon="4.60034">
        <ele>582</ele>
        <time>2014-11-14T19:36:37Z</time>
      </trkpt>
      <trkpt lat="45.47546" lon="4.6004">
        <ele>582</ele>
        <time>2014-11-14T19:36:40Z</time>
      </trkpt>
      <trkpt lat="45.47545" lon="4.60045">
        <ele>583</ele>
        <time>2014-11-14T19:36:43Z</time>
      </trkpt>
      <trkpt lat="45.47543" lon="4.60048">
        <ele>583</ele>
        <time>2014-11-14T19:36:46Z</time>
      </trkpt>
      <trkpt lat="45.47542" lon="4.60049">
        <ele>583</ele>
        <time>2014-11-14T19:36:57Z</time>
      </trkpt>
      <trkpt lat="45.47542" lon="4.6005">
        <ele>584</ele>
        <time>2014-11-14T19:37:15Z</time>
      </trkpt>
      <trkpt lat="45.47541" lon="4.60052">
        <ele>584</ele>
        <time>2014-11-14T19:37:27Z</time>
      </trkpt>
      <trkpt lat="45.4754" lon="4.60053">
        <ele>584</ele>
        <time>2014-11-14T19:37:30Z</time>
      </trkpt>
      <trkpt lat="45.47536" lon="4.60055">
        <ele>584</ele>
        <time>2014-11-14T19:37:33Z</time>
      </trkpt>
      <trkpt lat="45.4753" lon="4.60057">
        <ele>584</ele>
        <time>2014-11-14T19:37:36Z</time>
      </trkpt>
      <trkpt lat="45.47524" lon="4.60059">
        <ele>584</ele>
        <time>2014-11-14T19:37:39Z</time>
      </trkpt>
      <trkpt lat="45.47517" lon="4.60059">
        <ele>584</ele>
        <time>2014-11-14T19:37:42Z</time>
      </trkpt>
      <trkpt lat="45.4751" lon="4.60058">
        <ele>584</ele>
        <time>2014-11-14T19:37:45Z</time>
      </trkpt>
      <trkpt lat="45.47503" lon="4.60058">
        <ele>584</ele>
        <time>2014-11-14T19:37:48Z</time>
      </trkpt>
      <trkpt lat="45.47496" lon="4.60058">
        <ele>584</ele>
        <time>2014-11-14T19:37:51Z</time>
      </trkpt>
      <trkpt lat="45.4749" lon="4.60057">
        <ele>584</ele>
        <time>2014-11-14T19:37:54Z</time>
      </trkpt>
      <trkpt lat="45.47483" lon="4.60057">
        <ele>585</ele>
        <time>2014-11-14T19:37:57Z</time>
      </trkpt>
      <trkpt lat="45.47476" lon="4.60058">
        <ele>585</ele>
        <time>2014-11-14T19:38:00Z</time>
      </trkpt>
      <trkpt lat="45.4747" lon="4.60059">
        <ele>586</ele>
        <time>2014-11-14T19:38:03Z</time>
      </trkpt>
      <trkpt lat="45.47463" lon="4.6006">
        <ele>586</ele>
        <time>2014-11-14T19:38:06Z</time>
      </trkpt>
      <trkpt lat="45.47456" lon="4.60056">
        <ele>586</ele>
        <time>2014-11-14T19:38:09Z</time>
      </trkpt>
      <trkpt lat="45.47449" lon="4.60057">
        <ele>587</ele>
        <time>2014-11-14T19:38:12Z</time>
      </trkpt>
      <trkpt lat="45.47443" lon="4.60057">
        <ele>587</ele>
        <time>2014-11-14T19:38:15Z</time>
      </trkpt>
      <trkpt lat="45.47436" lon="4.60058">
        <ele>587</ele>
        <time>2014-11-14T19:38:18Z</time>
      </trkpt>
      <trkpt lat="45.47429" lon="4.60057">
        <ele>588</ele>
        <time>2014-11-14T19:38:21Z</time>
      </trkpt>
      <trkpt lat="45.47422" lon="4.60058">
        <ele>588</ele>
        <time>2014-11-14T19:38:24Z</time>
      </trkpt>
      <trkpt lat="45.47414" lon="4.60059">
        <ele>589</ele>
        <time>2014-11-14T19:38:27Z</time>
      </trkpt>
      <trkpt lat="45.47408" lon="4.60059">
        <ele>589</ele>
        <time>2014-11-14T19:38:30Z</time>
      </trkpt>
      <trkpt lat="45.474" lon="4.60058">
        <ele>589</ele>
        <time>2014-11-14T19:38:33Z</time>
      </trkpt>
      <trkpt lat="45.47394" lon="4.60059">
        <ele>590</ele>
        <time>2014-11-14T19:38:36Z</time>
      </trkpt>
      <trkpt lat="45.47387" lon="4.60059">
        <ele>591</ele>
        <time>2014-11-14T19:38:39Z</time>
      </trkpt>
      <trkpt lat="45.47381" lon="4.6006">
        <ele>592</ele>
        <time>2014-11-14T19:38:42Z</time>
      </trkpt>
      <trkpt lat="45.47374" lon="4.6006">
        <ele>592</ele>
        <time>2014-11-14T19:38:45Z</time>
      </trkpt>
      <trkpt lat="45.47368" lon="4.60062">
        <ele>592</ele>
        <time>2014-11-14T19:38:48Z</time>
      </trkpt>
      <trkpt lat="45.47361" lon="4.60065">
        <ele>592</ele>
        <time>2014-11-14T19:38:51Z</time>
      </trkpt>
      <trkpt lat="45.47355" lon="4.6007">
        <ele>592</ele>
        <time>2014-11-14T19:38:54Z</time>
      </trkpt>
      <trkpt lat="45.47348" lon="4.6007">
        <ele>592</ele>
        <time>2014-11-14T19:38:57Z</time>
      </trkpt>
      <trkpt lat="45.47341" lon="4.60074">
        <ele>592</ele>
        <time>2014-11-14T19:39:00Z</time>
      </trkpt>
      <trkpt lat="45.47335" lon="4.60076">
        <ele>592</ele>
        <time>2014-11-14T19:39:03Z</time>
      </trkpt>
      <trkpt lat="45.47328" lon="4.60079">
        <ele>592</ele>
        <time>2014-11-14T19:39:06Z</time>
      </trkpt>
      <trkpt lat="45.47322" lon="4.60082">
        <ele>592</ele>
        <time>2014-11-14T19:39:09Z</time>
      </trkpt>
      <trkpt lat="45.47315" lon="4.60086">
        <ele>592</ele>
        <time>2014-11-14T19:39:12Z</time>
      </trkpt>
      <trkpt lat="45.47309" lon="4.60088">
        <ele>592</ele>
        <time>2014-11-14T19:39:15Z</time>
      </trkpt>
      <trkpt lat="45.47302" lon="4.60091">
        <ele>592</ele>
        <time>2014-11-14T19:39:18Z</time>
      </trkpt>
      <trkpt lat="45.47296" lon="4.60094">
        <ele>592</ele>
        <time>2014-11-14T19:39:21Z</time>
      </trkpt>
      <trkpt lat="45.47289" lon="4.60096">
        <ele>592</ele>
        <time>2014-11-14T19:39:24Z</time>
      </trkpt>
      <trkpt lat="45.47282" lon="4.60098">
        <ele>592</ele>
        <time>2014-11-14T19:39:27Z</time>
      </trkpt>
      <trkpt lat="45.47275" lon="4.60101">
        <ele>592</ele>
        <time>2014-11-14T19:39:30Z</time>
      </trkpt>
      <trkpt lat="45.47268" lon="4.60103">
        <ele>592</ele>
        <time>2014-11-14T19:39:33Z</time>
      </trkpt>
      <trkpt lat="45.47261" lon="4.60104">
        <ele>592</ele>
        <time>2014-11-14T19:39:36Z</time>
      </trkpt>
      <trkpt lat="45.47255" lon="4.60105">
        <ele>592</ele>
        <time>2014-11-14T19:39:39Z</time>
      </trkpt>
      <trkpt lat="45.4725" lon="4.60108">
        <ele>592</ele>
        <time>2014-11-14T19:39:42Z</time>
      </trkpt>
      <trkpt lat="45.47244" lon="4.60111">
        <ele>592</ele>
        <time>2014-11-14T19:39:45Z</time>
      </trkpt>
      <trkpt lat="45.47239" lon="4.60112">
        <ele>592</ele>
        <time>2014-11-14T19:39:48Z</time>
      </trkpt>
      <trkpt lat="45.47233" lon="4.60117">
        <ele>592</ele>
        <time>2014-11-14T19:39:51Z</time>
      </trkpt>
      <trkpt lat="45.4723" lon="4.60123">
        <ele>592</ele>
        <time>2014-11-14T19:39:54Z</time>
      </trkpt>
      <trkpt lat="45.47228" lon="4.6013">
        <ele>592</ele>
        <time>2014-11-14T19:39:57Z</time>
      </trkpt>
      <trkpt lat="45.47227" lon="4.60138">
        <ele>592</ele>
        <time>2014-11-14T19:40:00Z</time>
      </trkpt>
      <trkpt lat="45.47225" lon="4.60146">
        <ele>591</ele>
        <time>2014-11-14T19:40:03Z</time>
      </trkpt>
      <trkpt lat="45.47223" lon="4.60156">
        <ele>590</ele>
        <time>2014-11-14T19:40:06Z</time>
      </trkpt>
      <trkpt lat="45.47222" lon="4.60163">
        <ele>589</ele>
        <time>2014-11-14T19:40:09Z</time>
      </trkpt>
      <trkpt lat="45.47221" lon="4.60169">
        <ele>588</ele>
        <time>2014-11-14T19:40:12Z</time>
      </trkpt>
      <trkpt lat="45.47219" lon="4.60178">
        <ele>586</ele>
        <time>2014-11-14T19:40:15Z</time>
      </trkpt>
      <trkpt lat="45.47217" lon="4.60188">
        <ele>585</ele>
        <time>2014-11-14T19:40:18Z</time>
      </trkpt>
      <trkpt lat="45.47215" lon="4.60197">
        <ele>584</ele>
        <time>2014-11-14T19:40:22Z</time>
      </trkpt>
      <trkpt lat="45.47212" lon="4.60209">
        <ele>583</ele>
        <time>2014-11-14T19:40:25Z</time>
      </trkpt>
      <trkpt lat="45.47211" lon="4.60218">
        <ele>582</ele>
        <time>2014-11-14T19:40:28Z</time>
      </trkpt>
      <trkpt lat="45.47209" lon="4.60227">
        <ele>581</ele>
        <time>2014-11-14T19:40:31Z</time>
      </trkpt>
      <trkpt lat="45.47206" lon="4.60236">
        <ele>581</ele>
        <time>2014-11-14T19:40:34Z</time>
      </trkpt>
      <trkpt lat="45.47206" lon="4.60245">
        <ele>580</ele>
        <time>2014-11-14T19:40:37Z</time>
      </trkpt>
      <trkpt lat="45.47206" lon="4.60253">
        <ele>579</ele>
        <time>2014-11-14T19:40:40Z</time>
      </trkpt>
      <trkpt lat="45.47209" lon="4.60259">
        <ele>579</ele>
        <time>2014-11-14T19:40:43Z</time>
      </trkpt>
      <trkpt lat="45.47214" lon="4.60263">
        <ele>577</ele>
        <time>2014-11-14T19:40:46Z</time>
      </trkpt>
      <trkpt lat="45.4722" lon="4.60266">
        <ele>577</ele>
        <time>2014-11-14T19:40:49Z</time>
      </trkpt>
      <trkpt lat="45.47223" lon="4.60269">
        <ele>577</ele>
        <time>2014-11-14T19:40:52Z</time>
      </trkpt>
      <trkpt lat="45.47228" lon="4.60273">
        <ele>577</ele>
        <time>2014-11-14T19:40:55Z</time>
      </trkpt>
      <trkpt lat="45.47234" lon="4.60278">
        <ele>577</ele>
        <time>2014-11-14T19:40:58Z</time>
      </trkpt>
      <trkpt lat="45.47238" lon="4.60283">
        <ele>577</ele>
        <time>2014-11-14T19:41:01Z</time>
      </trkpt>
      <trkpt lat="45.47243" lon="4.60289">
        <ele>577</ele>
        <time>2014-11-14T19:41:04Z</time>
      </trkpt>
      <trkpt lat="45.47248" lon="4.60294">
        <ele>577</ele>
        <time>2014-11-14T19:41:07Z</time>
      </trkpt>
      <trkpt lat="45.47253" lon="4.603">
        <ele>577</ele>
        <time>2014-11-14T19:41:10Z</time>
      </trkpt>
      <trkpt lat="45.47258" lon="4.60306">
        <ele>577</ele>
        <time>2014-11-14T19:41:13Z</time>
      </trkpt>
      <trkpt lat="45.47264" lon="4.60311">
        <ele>577</ele>
        <time>2014-11-14T19:41:16Z</time>
      </trkpt>
      <trkpt lat="45.47271" lon="4.60318">
        <ele>577</ele>
        <time>2014-11-14T19:41:19Z</time>
      </trkpt>
      <trkpt lat="45.47278" lon="4.60324">
        <ele>577</ele>
        <time>2014-11-14T19:41:22Z</time>
      </trkpt>
      <trkpt lat="45.47285" lon="4.60329">
        <ele>577</ele>
        <time>2014-11-14T19:41:25Z</time>
      </trkpt>
      <trkpt lat="45.47291" lon="4.60335">
        <ele>577</ele>
        <time>2014-11-14T19:41:28Z</time>
      </trkpt>
      <trkpt lat="45.47297" lon="4.6034">
        <ele>577</ele>
        <time>2014-11-14T19:41:31Z</time>
      </trkpt>
      <trkpt lat="45.47303" lon="4.60346">
        <ele>577</ele>
        <time>2014-11-14T19:41:34Z</time>
      </trkpt>
      <trkpt lat="45.47309" lon="4.60352">
        <ele>577</ele>
        <time>2014-11-14T19:41:37Z</time>
      </trkpt>
      <trkpt lat="45.47314" lon="4.60358">
        <ele>577</ele>
        <time>2014-11-14T19:41:40Z</time>
      </trkpt>
      <trkpt lat="45.4732" lon="4.60364">
        <ele>577</ele>
        <time>2014-11-14T19:41:43Z</time>
      </trkpt>
      <trkpt lat="45.47325" lon="4.6037">
        <ele>577</ele>
        <time>2014-11-14T19:41:46Z</time>
      </trkpt>
      <trkpt lat="45.47331" lon="4.60375">
        <ele>577</ele>
        <time>2014-11-14T19:41:49Z</time>
      </trkpt>
      <trkpt lat="45.47335" lon="4.60381">
        <ele>576</ele>
        <time>2014-11-14T19:41:52Z</time>
      </trkpt>
      <trkpt lat="45.47341" lon="4.60388">
        <ele>576</ele>
        <time>2014-11-14T19:41:55Z</time>
      </trkpt>
      <trkpt lat="45.47346" lon="4.60394">
        <ele>575</ele>
        <time>2014-11-14T19:41:58Z</time>
      </trkpt>
      <trkpt lat="45.47351" lon="4.604">
        <ele>575</ele>
        <time>2014-11-14T19:42:01Z</time>
      </trkpt>
      <trkpt lat="45.47356" lon="4.60408">
        <ele>574</ele>
        <time>2014-11-14T19:42:04Z</time>
      </trkpt>
      <trkpt lat="45.47359" lon="4.60416">
        <ele>572</ele>
        <time>2014-11-14T19:42:07Z</time>
      </trkpt>
      <trkpt lat="45.47362" lon="4.60423">
        <ele>571</ele>
        <time>2014-11-14T19:42:10Z</time>
      </trkpt>
      <trkpt lat="45.47363" lon="4.6043">
        <ele>571</ele>
        <time>2014-11-14T19:42:13Z</time>
      </trkpt>
      <trkpt lat="45.47364" lon="4.60436">
        <ele>570</ele>
        <time>2014-11-14T19:42:16Z</time>
      </trkpt>
      <trkpt lat="45.47365" lon="4.60441">
        <ele>569</ele>
        <time>2014-11-14T19:42:19Z</time>
      </trkpt>
      <trkpt lat="45.47367" lon="4.60447">
        <ele>569</ele>
        <time>2014-11-14T19:42:23Z</time>
      </trkpt>
      <trkpt lat="45.47368" lon="4.60451">
        <ele>568</ele>
        <time>2014-11-14T19:42:26Z</time>
      </trkpt>
      <trkpt lat="45.47369" lon="4.60458">
        <ele>567</ele>
        <time>2014-11-14T19:42:29Z</time>
      </trkpt>
      <trkpt lat="45.47371" lon="4.60466">
        <ele>567</ele>
        <time>2014-11-14T19:42:32Z</time>
      </trkpt>
      <trkpt lat="45.47372" lon="4.60474">
        <ele>566</ele>
        <time>2014-11-14T19:42:35Z</time>
      </trkpt>
      <trkpt lat="45.47372" lon="4.60481">
        <ele>565</ele>
        <time>2014-11-14T19:42:38Z</time>
      </trkpt>
      <trkpt lat="45.47374" lon="4.60486">
        <ele>565</ele>
        <time>2014-11-14T19:42:41Z</time>
      </trkpt>
      <trkpt lat="45.47375" lon="4.60494">
        <ele>564</ele>
        <time>2014-11-14T19:42:44Z</time>
      </trkpt>
      <trkpt lat="45.47375" lon="4.60502">
        <ele>562</ele>
        <time>2014-11-14T19:42:47Z</time>
      </trkpt>
      <trkpt lat="45.47375" lon="4.6051">
        <ele>562</ele>
        <time>2014-11-14T19:42:50Z</time>
      </trkpt>
      <trkpt lat="45.47374" lon="4.60517">
        <ele>561</ele>
        <time>2014-11-14T19:42:53Z</time>
      </trkpt>
      <trkpt lat="45.47372" lon="4.60523">
        <ele>560</ele>
        <time>2014-11-14T19:42:56Z</time>
      </trkpt>
      <trkpt lat="45.47371" lon="4.60527">
        <ele>559</ele>
        <time>2014-11-14T19:42:59Z</time>
      </trkpt>
      <trkpt lat="45.47369" lon="4.60534">
        <ele>558</ele>
        <time>2014-11-14T19:43:02Z</time>
      </trkpt>
      <trkpt lat="45.47366" lon="4.60541">
        <ele>558</ele>
        <time>2014-11-14T19:43:05Z</time>
      </trkpt>
      <trkpt lat="45.47362" lon="4.60548">
        <ele>557</ele>
        <time>2014-11-14T19:43:08Z</time>
      </trkpt>
      <trkpt lat="45.47358" lon="4.60555">
        <ele>556</ele>
        <time>2014-11-14T19:43:11Z</time>
      </trkpt>
      <trkpt lat="45.47353" lon="4.60559">
        <ele>554</ele>
        <time>2014-11-14T19:43:14Z</time>
      </trkpt>
      <trkpt lat="45.47349" lon="4.60564">
        <ele>553</ele>
        <time>2014-11-14T19:43:17Z</time>
      </trkpt>
      <trkpt lat="45.47346" lon="4.60569">
        <ele>553</ele>
        <time>2014-11-14T19:43:20Z</time>
      </trkpt>
      <trkpt lat="45.47343" lon="4.60574">
        <ele>552</ele>
        <time>2014-11-14T19:43:23Z</time>
      </trkpt>
      <trkpt lat="45.4734" lon="4.60579">
        <ele>551</ele>
        <time>2014-11-14T19:43:26Z</time>
      </trkpt>
      <trkpt lat="45.47336" lon="4.60583">
        <ele>551</ele>
        <time>2014-11-14T19:43:29Z</time>
      </trkpt>
      <trkpt lat="45.47333" lon="4.60588">
        <ele>550</ele>
        <time>2014-11-14T19:43:32Z</time>
      </trkpt>
      <trkpt lat="45.4733" lon="4.60592">
        <ele>550</ele>
        <time>2014-11-14T19:43:35Z</time>
      </trkpt>
      <trkpt lat="45.47327" lon="4.60596">
        <ele>550</ele>
        <time>2014-11-14T19:43:38Z</time>
      </trkpt>
      <trkpt lat="45.47324" lon="4.606">
        <ele>549</ele>
        <time>2014-11-14T19:43:42Z</time>
      </trkpt>
      <trkpt lat="45.47321" lon="4.60605">
        <ele>548</ele>
        <time>2014-11-14T19:43:46Z</time>
      </trkpt>
      <trkpt lat="45.47318" lon="4.60609">
        <ele>547</ele>
        <time>2014-11-14T19:43:49Z</time>
      </trkpt>
      <trkpt lat="45.47315" lon="4.60614">
        <ele>546</ele>
        <time>2014-11-14T19:43:52Z</time>
      </trkpt>
      <trkpt lat="45.47311" lon="4.60619">
        <ele>545</ele>
        <time>2014-11-14T19:43:56Z</time>
      </trkpt>
      <trkpt lat="45.47307" lon="4.60625">
        <ele>545</ele>
        <time>2014-11-14T19:44:00Z</time>
      </trkpt>
      <trkpt lat="45.47304" lon="4.6063">
        <ele>545</ele>
        <time>2014-11-14T19:44:03Z</time>
      </trkpt>
      <trkpt lat="45.47301" lon="4.60636">
        <ele>545</ele>
        <time>2014-11-14T19:44:07Z</time>
      </trkpt>
      <trkpt lat="45.47297" lon="4.60642">
        <ele>544</ele>
        <time>2014-11-14T19:44:11Z</time>
      </trkpt>
      <trkpt lat="45.47294" lon="4.60647">
        <ele>543</ele>
        <time>2014-11-14T19:44:14Z</time>
      </trkpt>
      <trkpt lat="45.4729" lon="4.60653">
        <ele>543</ele>
        <time>2014-11-14T19:44:17Z</time>
      </trkpt>
      <trkpt lat="45.47287" lon="4.60658">
        <ele>543</ele>
        <time>2014-11-14T19:44:20Z</time>
      </trkpt>
      <trkpt lat="45.47284" lon="4.60663">
        <ele>543</ele>
        <time>2014-11-14T19:44:23Z</time>
      </trkpt>
      <trkpt lat="45.4728" lon="4.60669">
        <ele>542</ele>
        <time>2014-11-14T19:44:26Z</time>
      </trkpt>
      <trkpt lat="45.47276" lon="4.60674">
        <ele>541</ele>
        <time>2014-11-14T19:44:29Z</time>
      </trkpt>
      <trkpt lat="45.47272" lon="4.60678">
        <ele>540</ele>
        <time>2014-11-14T19:44:33Z</time>
      </trkpt>
      <trkpt lat="45.47268" lon="4.60681">
        <ele>539</ele>
        <time>2014-11-14T19:44:36Z</time>
      </trkpt>
      <trkpt lat="45.47263" lon="4.60687">
        <ele>538</ele>
        <time>2014-11-14T19:44:39Z</time>
      </trkpt>
      <trkpt lat="45.47259" lon="4.60693">
        <ele>537</ele>
        <time>2014-11-14T19:44:42Z</time>
      </trkpt>
      <trkpt lat="45.47256" lon="4.60698">
        <ele>537</ele>
        <time>2014-11-14T19:44:45Z</time>
      </trkpt>
      <trkpt lat="45.47252" lon="4.60701">
        <ele>537</ele>
        <time>2014-11-14T19:44:48Z</time>
      </trkpt>
      <trkpt lat="45.47248" lon="4.60707">
        <ele>537</ele>
        <time>2014-11-14T19:44:51Z</time>
      </trkpt>
      <trkpt lat="45.47244" lon="4.60711">
        <ele>537</ele>
        <time>2014-11-14T19:44:54Z</time>
      </trkpt>
      <trkpt lat="45.47239" lon="4.60717">
        <ele>537</ele>
        <time>2014-11-14T19:44:57Z</time>
      </trkpt>
      <trkpt lat="45.47235" lon="4.60722">
        <ele>537</ele>
        <time>2014-11-14T19:45:00Z</time>
      </trkpt>
      <trkpt lat="45.47232" lon="4.60728">
        <ele>537</ele>
        <time>2014-11-14T19:45:03Z</time>
      </trkpt>
      <trkpt lat="45.4723" lon="4.60731">
        <ele>537</ele>
        <time>2014-11-14T19:45:06Z</time>
      </trkpt>
      <trkpt lat="45.47228" lon="4.60736">
        <ele>537</ele>
        <time>2014-11-14T19:45:10Z</time>
      </trkpt>
      <trkpt lat="45.47228" lon="4.60739">
        <ele>537</ele>
        <time>2014-11-14T19:45:27Z</time>
      </trkpt>
      <trkpt lat="45.4723" lon="4.6074">
        <ele>537</ele>
        <time>2014-11-14T19:45:42Z</time>
      </trkpt>
      <trkpt lat="45.4723" lon="4.60741">
        <ele>538</ele>
        <time>2014-11-14T19:46:26Z</time>
      </trkpt>
      <trkpt lat="45.4723" lon="4.60743">
        <ele>538</ele>
        <time>2014-11-14T19:46:32Z</time>
      </trkpt>
      <trkpt lat="45.47232" lon="4.60749">
        <ele>538</ele>
        <time>2014-11-14T19:46:35Z</time>
      </trkpt>
      <trkpt lat="45.47237" lon="4.60755">
        <ele>538</ele>
        <time>2014-11-14T19:46:38Z</time>
      </trkpt>
      <trkpt lat="45.47243" lon="4.60759">
        <ele>538</ele>
        <time>2014-11-14T19:46:41Z</time>
      </trkpt>
      <trkpt lat="45.47249" lon="4.60763">
        <ele>538</ele>
        <time>2014-11-14T19:46:44Z</time>
      </trkpt>
      <trkpt lat="45.47255" lon="4.60767">
        <ele>538</ele>
        <time>2014-11-14T19:46:47Z</time>
      </trkpt>
      <trkpt lat="45.47263" lon="4.60771">
        <ele>538</ele>
        <time>2014-11-14T19:46:50Z</time>
      </trkpt>
      <trkpt lat="45.47271" lon="4.60774">
        <ele>538</ele>
        <time>2014-11-14T19:46:53Z</time>
      </trkpt>
      <trkpt lat="45.47278" lon="4.60778">
        <ele>538</ele>
        <time>2014-11-14T19:46:56Z</time>
      </trkpt>
      <trkpt lat="45.47286" lon="4.60781">
        <ele>537</ele>
        <time>2014-11-14T19:46:59Z</time>
      </trkpt>
      <trkpt lat="45.47292" lon="4.60784">
        <ele>537</ele>
        <time>2014-11-14T19:47:02Z</time>
      </trkpt>
      <trkpt lat="45.47298" lon="4.60787">
        <ele>536</ele>
        <time>2014-11-14T19:47:05Z</time>
      </trkpt>
      <trkpt lat="45.47306" lon="4.60792">
        <ele>535</ele>
        <time>2014-11-14T19:47:08Z</time>
      </trkpt>
      <trkpt lat="45.47314" lon="4.60796">
        <ele>535</ele>
        <time>2014-11-14T19:47:11Z</time>
      </trkpt>
      <trkpt lat="45.47319" lon="4.60802">
        <ele>535</ele>
        <time>2014-11-14T19:47:14Z</time>
      </trkpt>
      <trkpt lat="45.47325" lon="4.60809">
        <ele>534</ele>
        <time>2014-11-14T19:47:17Z</time>
      </trkpt>
      <trkpt lat="45.4733" lon="4.60816">
        <ele>534</ele>
        <time>2014-11-14T19:47:20Z</time>
      </trkpt>
      <trkpt lat="45.47338" lon="4.60821">
        <ele>534</ele>
        <time>2014-11-14T19:47:23Z</time>
      </trkpt>
      <trkpt lat="45.47346" lon="4.60824">
        <ele>534</ele>
        <time>2014-11-14T19:47:26Z</time>
      </trkpt>
      <trkpt lat="45.47353" lon="4.60825">
        <ele>534</ele>
        <time>2014-11-14T19:47:29Z</time>
      </trkpt>
      <trkpt lat="45.47359" lon="4.60828">
        <ele>534</ele>
        <time>2014-11-14T19:47:32Z</time>
      </trkpt>
      <trkpt lat="45.47366" lon="4.60831">
        <ele>534</ele>
        <time>2014-11-14T19:47:35Z</time>
      </trkpt>
      <trkpt lat="45.47373" lon="4.60836">
        <ele>534</ele>
        <time>2014-11-14T19:47:38Z</time>
      </trkpt>
      <trkpt lat="45.4738" lon="4.6084">
        <ele>534</ele>
        <time>2014-11-14T19:47:41Z</time>
      </trkpt>
      <trkpt lat="45.47387" lon="4.60845">
        <ele>534</ele>
        <time>2014-11-14T19:47:44Z</time>
      </trkpt>
      <trkpt lat="45.47393" lon="4.6085">
        <ele>534</ele>
        <time>2014-11-14T19:47:47Z</time>
      </trkpt>
      <trkpt lat="45.47399" lon="4.60857">
        <ele>534</ele>
        <time>2014-11-14T19:47:50Z</time>
      </trkpt>
      <trkpt lat="45.47405" lon="4.60863">
        <ele>534</ele>
        <time>2014-11-14T19:47:53Z</time>
      </trkpt>
      <trkpt lat="45.4741" lon="4.6087">
        <ele>534</ele>
        <time>2014-11-14T19:47:56Z</time>
      </trkpt>
      <trkpt lat="45.47414" lon="4.60876">
        <ele>534</ele>
        <time>2014-11-14T19:47:59Z</time>
      </trkpt>
      <trkpt lat="45.47419" lon="4.60882">
        <ele>534</ele>
        <time>2014-11-14T19:48:02Z</time>
      </trkpt>
      <trkpt lat="45.47424" lon="4.60886">
        <ele>534</ele>
        <time>2014-11-14T19:48:05Z</time>
      </trkpt>
      <trkpt lat="45.4743" lon="4.60891">
        <ele>534</ele>
        <time>2014-11-14T19:48:08Z</time>
      </trkpt>
      <trkpt lat="45.47436" lon="4.60895">
        <ele>535</ele>
        <time>2014-11-14T19:48:11Z</time>
      </trkpt>
      <trkpt lat="45.47441" lon="4.609">
        <ele>535</ele>
        <time>2014-11-14T19:48:14Z</time>
      </trkpt>
      <trkpt lat="45.47447" lon="4.60906">
        <ele>535</ele>
        <time>2014-11-14T19:48:17Z</time>
      </trkpt>
      <trkpt lat="45.47454" lon="4.60911">
        <ele>536</ele>
        <time>2014-11-14T19:48:20Z</time>
      </trkpt>
      <trkpt lat="45.4746" lon="4.60916">
        <ele>536</ele>
        <time>2014-11-14T19:48:23Z</time>
      </trkpt>
      <trkpt lat="45.47468" lon="4.60919">
        <ele>536</ele>
        <time>2014-11-14T19:48:26Z</time>
      </trkpt>
      <trkpt lat="45.47475" lon="4.60922">
        <ele>536</ele>
        <time>2014-11-14T19:48:29Z</time>
      </trkpt>
      <trkpt lat="45.47482" lon="4.60926">
        <ele>536</ele>
        <time>2014-11-14T19:48:32Z</time>
      </trkpt>
      <trkpt lat="45.47485" lon="4.60935">
        <ele>536</ele>
        <time>2014-11-14T19:48:35Z</time>
      </trkpt>
      <trkpt lat="45.47485" lon="4.60945">
        <ele>536</ele>
        <time>2014-11-14T19:48:38Z</time>
      </trkpt>
      <trkpt lat="45.47485" lon="4.60954">
        <ele>536</ele>
        <time>2014-11-14T19:48:41Z</time>
      </trkpt>
      <trkpt lat="45.47484" lon="4.60963">
        <ele>536</ele>
        <time>2014-11-14T19:48:44Z</time>
      </trkpt>
      <trkpt lat="45.47481" lon="4.60973">
        <ele>536</ele>
        <time>2014-11-14T19:48:47Z</time>
      </trkpt>
      <trkpt lat="45.47479" lon="4.6098">
        <ele>535</ele>
        <time>2014-11-14T19:48:50Z</time>
      </trkpt>
      <trkpt lat="45.47476" lon="4.6099">
        <ele>534</ele>
        <time>2014-11-14T19:48:53Z</time>
      </trkpt>
      <trkpt lat="45.47474" lon="4.60999">
        <ele>532</ele>
        <time>2014-11-14T19:48:56Z</time>
      </trkpt>
      <trkpt lat="45.47474" lon="4.6101">
        <ele>531</ele>
        <time>2014-11-14T19:48:59Z</time>
      </trkpt>
      <trkpt lat="45.47473" lon="4.61021">
        <ele>530</ele>
        <time>2014-11-14T19:49:02Z</time>
      </trkpt>
      <trkpt lat="45.47475" lon="4.6103">
        <ele>529</ele>
        <time>2014-11-14T19:49:05Z</time>
      </trkpt>
      <trkpt lat="45.47478" lon="4.61037">
        <ele>528</ele>
        <time>2014-11-14T19:49:08Z</time>
      </trkpt>
      <trkpt lat="45.47481" lon="4.61043">
        <ele>528</ele>
        <time>2014-11-14T19:49:11Z</time>
      </trkpt>
      <trkpt lat="45.47486" lon="4.61046">
        <ele>528</ele>
        <time>2014-11-14T19:49:14Z</time>
      </trkpt>
      <trkpt lat="45.47491" lon="4.61051">
        <ele>528</ele>
        <time>2014-11-14T19:49:17Z</time>
      </trkpt>
      <trkpt lat="45.47497" lon="4.61055">
        <ele>528</ele>
        <time>2014-11-14T19:49:20Z</time>
      </trkpt>
      <trkpt lat="45.47503" lon="4.61061">
        <ele>528</ele>
        <time>2014-11-14T19:49:23Z</time>
      </trkpt>
      <trkpt lat="45.47508" lon="4.61067">
        <ele>528</ele>
        <time>2014-11-14T19:49:26Z</time>
      </trkpt>
      <trkpt lat="45.47514" lon="4.61074">
        <ele>528</ele>
        <time>2014-11-14T19:49:29Z</time>
      </trkpt>
      <trkpt lat="45.47518" lon="4.61082">
        <ele>528</ele>
        <time>2014-11-14T19:49:32Z</time>
      </trkpt>
      <trkpt lat="45.47523" lon="4.61088">
        <ele>528</ele>
        <time>2014-11-14T19:49:35Z</time>
      </trkpt>
      <trkpt lat="45.47527" lon="4.61096">
        <ele>528</ele>
        <time>2014-11-14T19:49:38Z</time>
      </trkpt>
      <trkpt lat="45.47532" lon="4.61103">
        <ele>528</ele>
        <time>2014-11-14T19:49:41Z</time>
      </trkpt>
      <trkpt lat="45.47537" lon="4.61109">
        <ele>529</ele>
        <time>2014-11-14T19:49:44Z</time>
      </trkpt>
      <trkpt lat="45.47542" lon="4.61116">
        <ele>529</ele>
        <time>2014-11-14T19:49:47Z</time>
      </trkpt>
      <trkpt lat="45.47546" lon="4.61122">
        <ele>530</ele>
        <time>2014-11-14T19:49:50Z</time>
      </trkpt>
      <trkpt lat="45.4755" lon="4.61129">
        <ele>530</ele>
        <time>2014-11-14T19:49:53Z</time>
      </trkpt>
      <trkpt lat="45.47554" lon="4.61135">
        <ele>530</ele>
        <time>2014-11-14T19:49:56Z</time>
      </trkpt>
      <trkpt lat="45.47557" lon="4.61141">
        <ele>530</ele>
        <time>2014-11-14T19:49:59Z</time>
      </trkpt>
      <trkpt lat="45.4756" lon="4.61147">
        <ele>530</ele>
        <time>2014-11-14T19:50:02Z</time>
      </trkpt>
      <trkpt lat="45.47563" lon="4.61155">
        <ele>530</ele>
        <time>2014-11-14T19:50:05Z</time>
      </trkpt>
      <trkpt lat="45.47567" lon="4.61161">
        <ele>530</ele>
        <time>2014-11-14T19:50:08Z</time>
      </trkpt>
      <trkpt lat="45.4757" lon="4.61167">
        <ele>530</ele>
        <time>2014-11-14T19:50:11Z</time>
      </trkpt>
      <trkpt lat="45.47573" lon="4.61174">
        <ele>530</ele>
        <time>2014-11-14T19:50:14Z</time>
      </trkpt>
      <trkpt lat="45.47578" lon="4.61181">
        <ele>530</ele>
        <time>2014-11-14T19:50:17Z</time>
      </trkpt>
      <trkpt lat="45.47581" lon="4.61188">
        <ele>530</ele>
        <time>2014-11-14T19:50:20Z</time>
      </trkpt>
      <trkpt lat="45.47586" lon="4.61196">
        <ele>530</ele>
        <time>2014-11-14T19:50:23Z</time>
      </trkpt>
      <trkpt lat="45.47589" lon="4.61203">
        <ele>530</ele>
        <time>2014-11-14T19:50:26Z</time>
      </trkpt>
      <trkpt lat="45.47593" lon="4.61209">
        <ele>531</ele>
        <time>2014-11-14T19:50:29Z</time>
      </trkpt>
      <trkpt lat="45.47596" lon="4.61216">
        <ele>531</ele>
        <time>2014-11-14T19:50:32Z</time>
      </trkpt>
      <trkpt lat="45.47599" lon="4.61223">
        <ele>531</ele>
        <time>2014-11-14T19:50:35Z</time>
      </trkpt>
      <trkpt lat="45.47601" lon="4.61231">
        <ele>531</ele>
        <time>2014-11-14T19:50:38Z</time>
      </trkpt>
      <trkpt lat="45.47601" lon="4.61238">
        <ele>532</ele>
        <time>2014-11-14T19:50:41Z</time>
      </trkpt>
      <trkpt lat="45.47602" lon="4.61245">
        <ele>532</ele>
        <time>2014-11-14T19:50:44Z</time>
      </trkpt>
      <trkpt lat="45.47602" lon="4.61254">
        <ele>533</ele>
        <time>2014-11-14T19:50:47Z</time>
      </trkpt>
      <trkpt lat="45.47603" lon="4.61262">
        <ele>533</ele>
        <time>2014-11-14T19:50:50Z</time>
      </trkpt>
      <trkpt lat="45.47601" lon="4.6127">
        <ele>533</ele>
        <time>2014-11-14T19:50:53Z</time>
      </trkpt>
      <trkpt lat="45.47602" lon="4.61277">
        <ele>534</ele>
        <time>2014-11-14T19:50:56Z</time>
      </trkpt>
      <trkpt lat="45.47601" lon="4.61283">
        <ele>534</ele>
        <time>2014-11-14T19:50:59Z</time>
      </trkpt>
      <trkpt lat="45.476" lon="4.6129">
        <ele>535</ele>
        <time>2014-11-14T19:51:02Z</time>
      </trkpt>
      <trkpt lat="45.47599" lon="4.61298">
        <ele>536</ele>
        <time>2014-11-14T19:51:05Z</time>
      </trkpt>
      <trkpt lat="45.47598" lon="4.61306">
        <ele>536</ele>
        <time>2014-11-14T19:51:08Z</time>
      </trkpt>
      <trkpt lat="45.47598" lon="4.61316">
        <ele>537</ele>
        <time>2014-11-14T19:51:11Z</time>
      </trkpt>
      <trkpt lat="45.47599" lon="4.61326">
        <ele>538</ele>
        <time>2014-11-14T19:51:14Z</time>
      </trkpt>
      <trkpt lat="45.47599" lon="4.6134">
        <ele>541</ele>
        <time>2014-11-14T19:51:17Z</time>
      </trkpt>
      <trkpt lat="45.476" lon="4.61349">
        <ele>542</ele>
        <time>2014-11-14T19:51:20Z</time>
      </trkpt>
      <trkpt lat="45.47601" lon="4.61358">
        <ele>542</ele>
        <time>2014-11-14T19:51:23Z</time>
      </trkpt>
      <trkpt lat="45.47603" lon="4.61367">
        <ele>542</ele>
        <time>2014-11-14T19:51:26Z</time>
      </trkpt>
      <trkpt lat="45.47603" lon="4.61376">
        <ele>542</ele>
        <time>2014-11-14T19:51:29Z</time>
      </trkpt>
      <trkpt lat="45.47606" lon="4.61379">
        <ele>542</ele>
        <time>2014-11-14T19:51:32Z</time>
      </trkpt>
      <trkpt lat="45.47612" lon="4.61377">
        <ele>542</ele>
        <time>2014-11-14T19:51:36Z</time>
      </trkpt>
      <trkpt lat="45.47616" lon="4.61372">
        <ele>542</ele>
        <time>2014-11-14T19:51:39Z</time>
      </trkpt>
      <trkpt lat="45.47618" lon="4.61367">
        <ele>542</ele>
        <time>2014-11-14T19:51:42Z</time>
      </trkpt>
      <trkpt lat="45.47623" lon="4.61363">
        <ele>541</ele>
        <time>2014-11-14T19:51:45Z</time>
      </trkpt>
      <trkpt lat="45.47627" lon="4.61357">
        <ele>540</ele>
        <time>2014-11-14T19:51:48Z</time>
      </trkpt>
      <trkpt lat="45.4763" lon="4.6135">
        <ele>539</ele>
        <time>2014-11-14T19:51:51Z</time>
      </trkpt>
      <trkpt lat="45.47634" lon="4.61345">
        <ele>538</ele>
        <time>2014-11-14T19:51:54Z</time>
      </trkpt>
      <trkpt lat="45.47637" lon="4.6134">
        <ele>537</ele>
        <time>2014-11-14T19:51:57Z</time>
      </trkpt>
      <trkpt lat="45.4764" lon="4.61335">
        <ele>537</ele>
        <time>2014-11-14T19:52:00Z</time>
      </trkpt>
      <trkpt lat="45.47645" lon="4.6133">
        <ele>536</ele>
        <time>2014-11-14T19:52:03Z</time>
      </trkpt>
      <trkpt lat="45.47649" lon="4.61326">
        <ele>535</ele>
        <time>2014-11-14T19:52:06Z</time>
      </trkpt>
      <trkpt lat="45.47654" lon="4.6132">
        <ele>533</ele>
        <time>2014-11-14T19:52:10Z</time>
      </trkpt>
      <trkpt lat="45.47659" lon="4.61316">
        <ele>533</ele>
        <time>2014-11-14T19:52:13Z</time>
      </trkpt>
      <trkpt lat="45.47665" lon="4.61311">
        <ele>532</ele>
        <time>2014-11-14T19:52:16Z</time>
      </trkpt>
      <trkpt lat="45.47669" lon="4.61307">
        <ele>531</ele>
        <time>2014-11-14T19:52:19Z</time>
      </trkpt>
      <trkpt lat="45.47674" lon="4.61302">
        <ele>531</ele>
        <time>2014-11-14T19:52:22Z</time>
      </trkpt>
      <trkpt lat="45.47679" lon="4.61296">
        <ele>531</ele>
        <time>2014-11-14T19:52:25Z</time>
      </trkpt>
      <trkpt lat="45.47683" lon="4.61292">
        <ele>531</ele>
        <time>2014-11-14T19:52:28Z</time>
      </trkpt>
      <trkpt lat="45.47687" lon="4.61288">
        <ele>531</ele>
        <time>2014-11-14T19:52:31Z</time>
      </trkpt>
      <trkpt lat="45.47692" lon="4.61282">
        <ele>531</ele>
        <time>2014-11-14T19:52:34Z</time>
      </trkpt>
      <trkpt lat="45.47699" lon="4.61276">
        <ele>531</ele>
        <time>2014-11-14T19:52:37Z</time>
      </trkpt>
      <trkpt lat="45.47705" lon="4.61269">
        <ele>531</ele>
        <time>2014-11-14T19:52:40Z</time>
      </trkpt>
      <trkpt lat="45.4771" lon="4.61262">
        <ele>530</ele>
        <time>2014-11-14T19:52:43Z</time>
      </trkpt>
      <trkpt lat="45.47716" lon="4.61254">
        <ele>529</ele>
        <time>2014-11-14T19:52:46Z</time>
      </trkpt>
      <trkpt lat="45.47718" lon="4.61246">
        <ele>529</ele>
        <time>2014-11-14T19:52:49Z</time>
      </trkpt>
      <trkpt lat="45.47723" lon="4.61238">
        <ele>529</ele>
        <time>2014-11-14T19:52:52Z</time>
      </trkpt>
      <trkpt lat="45.47727" lon="4.6123">
        <ele>529</ele>
        <time>2014-11-14T19:52:55Z</time>
      </trkpt>
      <trkpt lat="45.47731" lon="4.61222">
        <ele>529</ele>
        <time>2014-11-14T19:52:58Z</time>
      </trkpt>
      <trkpt lat="45.47736" lon="4.61213">
        <ele>529</ele>
        <time>2014-11-14T19:53:01Z</time>
      </trkpt>
      <trkpt lat="45.47741" lon="4.61207">
        <ele>529</ele>
        <time>2014-11-14T19:53:04Z</time>
      </trkpt>
      <trkpt lat="45.47746" lon="4.612">
        <ele>529</ele>
        <time>2014-11-14T19:53:07Z</time>
      </trkpt>
      <trkpt lat="45.4775" lon="4.61193">
        <ele>529</ele>
        <time>2014-11-14T19:53:10Z</time>
      </trkpt>
      <trkpt lat="45.47755" lon="4.61187">
        <ele>528</ele>
        <time>2014-11-14T19:53:13Z</time>
      </trkpt>
      <trkpt lat="45.4776" lon="4.61181">
        <ele>528</ele>
        <time>2014-11-14T19:53:16Z</time>
      </trkpt>
      <trkpt lat="45.47764" lon="4.61176">
        <ele>528</ele>
        <time>2014-11-14T19:53:19Z</time>
      </trkpt>
      <trkpt lat="45.47773" lon="4.61168">
        <ele>528</ele>
        <time>2014-11-14T19:53:23Z</time>
      </trkpt>
      <trkpt lat="45.47778" lon="4.61164">
        <ele>528</ele>
        <time>2014-11-14T19:53:26Z</time>
      </trkpt>
      <trkpt lat="45.47784" lon="4.61159">
        <ele>528</ele>
        <time>2014-11-14T19:53:29Z</time>
      </trkpt>
      <trkpt lat="45.47791" lon="4.61155">
        <ele>528</ele>
        <time>2014-11-14T19:53:32Z</time>
      </trkpt>
      <trkpt lat="45.47797" lon="4.61152">
        <ele>528</ele>
        <time>2014-11-14T19:53:35Z</time>
      </trkpt>
      <trkpt lat="45.47802" lon="4.61147">
        <ele>528</ele>
        <time>2014-11-14T19:53:38Z</time>
      </trkpt>
      <trkpt lat="45.47809" lon="4.61142">
        <ele>528</ele>
        <time>2014-11-14T19:53:41Z</time>
      </trkpt>
      <trkpt lat="45.47816" lon="4.61138">
        <ele>528</ele>
        <time>2014-11-14T19:53:44Z</time>
      </trkpt>
      <trkpt lat="45.47822" lon="4.61133">
        <ele>528</ele>
        <time>2014-11-14T19:53:47Z</time>
      </trkpt>
      <trkpt lat="45.47827" lon="4.61131">
        <ele>528</ele>
        <time>2014-11-14T19:53:50Z</time>
      </trkpt>
      <trkpt lat="45.47833" lon="4.61125">
        <ele>528</ele>
        <time>2014-11-14T19:53:53Z</time>
      </trkpt>
      <trkpt lat="45.4784" lon="4.6112">
        <ele>528</ele>
        <time>2014-11-14T19:53:56Z</time>
      </trkpt>
      <trkpt lat="45.47847" lon="4.61117">
        <ele>528</ele>
        <time>2014-11-14T19:53:59Z</time>
      </trkpt>
      <trkpt lat="45.47854" lon="4.61115">
        <ele>528</ele>
        <time>2014-11-14T19:54:02Z</time>
      </trkpt>
      <trkpt lat="45.4786" lon="4.61113">
        <ele>528</ele>
        <time>2014-11-14T19:54:05Z</time>
      </trkpt>
      <trkpt lat="45.47866" lon="4.61111">
        <ele>528</ele>
        <time>2014-11-14T19:54:08Z</time>
      </trkpt>
      <trkpt lat="45.47873" lon="4.61111">
        <ele>528</ele>
        <time>2014-11-14T19:54:11Z</time>
      </trkpt>
      <trkpt lat="45.47879" lon="4.61109">
        <ele>528</ele>
        <time>2014-11-14T19:54:14Z</time>
      </trkpt>
      <trkpt lat="45.47889" lon="4.61107">
        <ele>528</ele>
        <time>2014-11-14T19:54:18Z</time>
      </trkpt>
      <trkpt lat="45.47895" lon="4.61106">
        <ele>528</ele>
        <time>2014-11-14T19:54:21Z</time>
      </trkpt>
      <trkpt lat="45.47903" lon="4.61106">
        <ele>528</ele>
        <time>2014-11-14T19:54:24Z</time>
      </trkpt>
      <trkpt lat="45.47909" lon="4.61106">
        <ele>527</ele>
        <time>2014-11-14T19:54:27Z</time>
      </trkpt>
      <trkpt lat="45.47916" lon="4.61105">
        <ele>527</ele>
        <time>2014-11-14T19:54:30Z</time>
      </trkpt>
      <trkpt lat="45.47922" lon="4.61104">
        <ele>527</ele>
        <time>2014-11-14T19:54:33Z</time>
      </trkpt>
      <trkpt lat="45.47932" lon="4.61105">
        <ele>527</ele>
        <time>2014-11-14T19:54:37Z</time>
      </trkpt>
      <trkpt lat="45.47939" lon="4.61106">
        <ele>527</ele>
        <time>2014-11-14T19:54:40Z</time>
      </trkpt>
      <trkpt lat="45.47944" lon="4.61106">
        <ele>526</ele>
        <time>2014-11-14T19:54:43Z</time>
      </trkpt>
      <trkpt lat="45.47953" lon="4.61107">
        <ele>526</ele>
        <time>2014-11-14T19:54:47Z</time>
      </trkpt>
      <trkpt lat="45.47964" lon="4.61109">
        <ele>526</ele>
        <time>2014-11-14T19:54:51Z</time>
      </trkpt>
      <trkpt lat="45.47973" lon="4.61111">
        <ele>524</ele>
        <time>2014-11-14T19:54:55Z</time>
      </trkpt>
      <trkpt lat="45.47978" lon="4.61113">
        <ele>522</ele>
        <time>2014-11-14T19:54:58Z</time>
      </trkpt>
      <trkpt lat="45.47984" lon="4.61114">
        <ele>521</ele>
        <time>2014-11-14T19:55:01Z</time>
      </trkpt>
      <trkpt lat="45.47993" lon="4.61116">
        <ele>521</ele>
        <time>2014-11-14T19:55:05Z</time>
      </trkpt>
      <trkpt lat="45.48001" lon="4.61116">
        <ele>521</ele>
        <time>2014-11-14T19:55:08Z</time>
      </trkpt>
      <trkpt lat="45.48008" lon="4.61118">
        <ele>521</ele>
        <time>2014-11-14T19:55:11Z</time>
      </trkpt>
      <trkpt lat="45.48015" lon="4.61119">
        <ele>521</ele>
        <time>2014-11-14T19:55:14Z</time>
      </trkpt>
      <trkpt lat="45.48021" lon="4.61119">
        <ele>521</ele>
        <time>2014-11-14T19:55:17Z</time>
      </trkpt>
      <trkpt lat="45.48028" lon="4.61121">
        <ele>521</ele>
        <time>2014-11-14T19:55:20Z</time>
      </trkpt>
      <trkpt lat="45.48034" lon="4.61122">
        <ele>521</ele>
        <time>2014-11-14T19:55:23Z</time>
      </trkpt>
      <trkpt lat="45.48044" lon="4.61123">
        <ele>521</ele>
        <time>2014-11-14T19:55:27Z</time>
      </trkpt>
      <trkpt lat="45.48051" lon="4.61126">
        <ele>521</ele>
        <time>2014-11-14T19:55:30Z</time>
      </trkpt>
      <trkpt lat="45.48057" lon="4.61128">
        <ele>522</ele>
        <time>2014-11-14T19:55:33Z</time>
      </trkpt>
      <trkpt lat="45.48067" lon="4.61129">
        <ele>522</ele>
        <time>2014-11-14T19:55:37Z</time>
      </trkpt>
      <trkpt lat="45.48076" lon="4.61129">
        <ele>522</ele>
        <time>2014-11-14T19:55:40Z</time>
      </trkpt>
      <trkpt lat="45.48083" lon="4.61131">
        <ele>523</ele>
        <time>2014-11-14T19:55:43Z</time>
      </trkpt>
      <trkpt lat="45.48092" lon="4.61132">
        <ele>524</ele>
        <time>2014-11-14T19:55:47Z</time>
      </trkpt>
      <trkpt lat="45.48098" lon="4.61133">
        <ele>524</ele>
        <time>2014-11-14T19:55:50Z</time>
      </trkpt>
      <trkpt lat="45.48103" lon="4.61134">
        <ele>525</ele>
        <time>2014-11-14T19:55:53Z</time>
      </trkpt>
      <trkpt lat="45.48108" lon="4.61134">
        <ele>525</ele>
        <time>2014-11-14T19:55:58Z</time>
      </trkpt>
      <trkpt lat="45.48109" lon="4.61134">
        <ele>525</ele>
        <time>2014-11-14T19:56:04Z</time>
      </trkpt>
      <trkpt lat="45.4811" lon="4.61135">
        <ele>525</ele>
        <time>2014-11-14T19:56:07Z</time>
      </trkpt>
      <trkpt lat="45.48111" lon="4.61135">
        <ele>525</ele>
        <time>2014-11-14T19:56:10Z</time>
      </trkpt>
      <trkpt lat="45.48115" lon="4.61135">
        <ele>525</ele>
        <time>2014-11-14T19:56:14Z</time>
      </trkpt>
      <trkpt lat="45.4812" lon="4.61136">
        <ele>525</ele>
        <time>2014-11-14T19:56:17Z</time>
      </trkpt>
      <trkpt lat="45.48126" lon="4.61137">
        <ele>525</ele>
        <time>2014-11-14T19:56:20Z</time>
      </trkpt>
      <trkpt lat="45.48132" lon="4.61138">
        <ele>525</ele>
        <time>2014-11-14T19:56:24Z</time>
      </trkpt>
      <trkpt lat="45.48137" lon="4.6114">
        <ele>525</ele>
        <time>2014-11-14T19:56:27Z</time>
      </trkpt>
      <trkpt lat="45.48142" lon="4.61142">
        <ele>525</ele>
        <time>2014-11-14T19:56:30Z</time>
      </trkpt>
      <trkpt lat="45.4815" lon="4.61144">
        <ele>525</ele>
        <time>2014-11-14T19:56:34Z</time>
      </trkpt>
      <trkpt lat="45.48157" lon="4.61145">
        <ele>525</ele>
        <time>2014-11-14T19:56:37Z</time>
      </trkpt>
      <trkpt lat="45.48162" lon="4.61149">
        <ele>525</ele>
        <time>2014-11-14T19:56:40Z</time>
      </trkpt>
      <trkpt lat="45.48168" lon="4.61153">
        <ele>525</ele>
        <time>2014-11-14T19:56:43Z</time>
      </trkpt>
      <trkpt lat="45.48174" lon="4.61159">
        <ele>525</ele>
        <time>2014-11-14T19:56:46Z</time>
      </trkpt>
      <trkpt lat="45.48182" lon="4.61164">
        <ele>525</ele>
        <time>2014-11-14T19:56:50Z</time>
      </trkpt>
      <trkpt lat="45.48188" lon="4.61168">
        <ele>525</ele>
        <time>2014-11-14T19:56:53Z</time>
      </trkpt>
      <trkpt lat="45.48194" lon="4.61171">
        <ele>525</ele>
        <time>2014-11-14T19:56:56Z</time>
      </trkpt>
      <trkpt lat="45.48202" lon="4.61177">
        <ele>525</ele>
        <time>2014-11-14T19:57:00Z</time>
      </trkpt>
      <trkpt lat="45.48209" lon="4.61185">
        <ele>525</ele>
        <time>2014-11-14T19:57:04Z</time>
      </trkpt>
      <trkpt lat="45.48215" lon="4.6119">
        <ele>525</ele>
        <time>2014-11-14T19:57:07Z</time>
      </trkpt>
      <trkpt lat="45.48221" lon="4.61194">
        <ele>525</ele>
        <time>2014-11-14T19:57:10Z</time>
      </trkpt>
      <trkpt lat="45.48225" lon="4.61198">
        <ele>525</ele>
        <time>2014-11-14T19:57:13Z</time>
      </trkpt>
      <trkpt lat="45.48231" lon="4.61203">
        <ele>526</ele>
        <time>2014-11-14T19:57:16Z</time>
      </trkpt>
      <trkpt lat="45.4824" lon="4.61208">
        <ele>527</ele>
        <time>2014-11-14T19:57:20Z</time>
      </trkpt>
      <trkpt lat="45.4825" lon="4.61213">
        <ele>527</ele>
        <time>2014-11-14T19:57:24Z</time>
      </trkpt>
      <trkpt lat="45.48256" lon="4.61218">
        <ele>527</ele>
        <time>2014-11-14T19:57:27Z</time>
      </trkpt>
      <trkpt lat="45.48263" lon="4.61224">
        <ele>527</ele>
        <time>2014-11-14T19:57:30Z</time>
      </trkpt>
      <trkpt lat="45.48269" lon="4.6123">
        <ele>527</ele>
        <time>2014-11-14T19:57:33Z</time>
      </trkpt>
      <trkpt lat="45.48275" lon="4.61235">
        <ele>527</ele>
        <time>2014-11-14T19:57:36Z</time>
      </trkpt>
      <trkpt lat="45.48282" lon="4.61241">
        <ele>527</ele>
        <time>2014-11-14T19:57:40Z</time>
      </trkpt>
      <trkpt lat="45.48291" lon="4.61247">
        <ele>527</ele>
        <time>2014-11-14T19:57:44Z</time>
      </trkpt>
      <trkpt lat="45.48297" lon="4.61251">
        <ele>527</ele>
        <time>2014-11-14T19:57:47Z</time>
      </trkpt>
      <trkpt lat="45.48303" lon="4.61255">
        <ele>527</ele>
        <time>2014-11-14T19:57:50Z</time>
      </trkpt>
      <trkpt lat="45.48309" lon="4.61259">
        <ele>527</ele>
        <time>2014-11-14T19:57:53Z</time>
      </trkpt>
      <trkpt lat="45.48313" lon="4.61263">
        <ele>527</ele>
        <time>2014-11-14T19:57:56Z</time>
      </trkpt>
      <trkpt lat="45.48319" lon="4.61268">
        <ele>527</ele>
        <time>2014-11-14T19:57:59Z</time>
      </trkpt>
      <trkpt lat="45.48325" lon="4.61273">
        <ele>527</ele>
        <time>2014-11-14T19:58:02Z</time>
      </trkpt>
      <trkpt lat="45.48333" lon="4.61279">
        <ele>527</ele>
        <time>2014-11-14T19:58:06Z</time>
      </trkpt>
      <trkpt lat="45.48335" lon="4.61281">
        <ele>528</ele>
        <time>2014-11-14T19:58:10Z</time>
      </trkpt>
      <trkpt lat="45.48334" lon="4.61281">
        <ele>530</ele>
        <time>2014-11-14T19:58:33Z</time>
      </trkpt>
      <trkpt lat="45.48335" lon="4.61282">
        <ele>531</ele>
        <time>2014-11-14T19:59:03Z</time>
      </trkpt>
      <trkpt lat="45.48336" lon="4.61282">
        <ele>531</ele>
        <time>2014-11-14T19:59:06Z</time>
      </trkpt>
      <trkpt lat="45.48339" lon="4.61282">
        <ele>531</ele>
        <time>2014-11-14T19:59:10Z</time>
      </trkpt>
      <trkpt lat="45.48343" lon="4.61282">
        <ele>531</ele>
        <time>2014-11-14T19:59:13Z</time>
      </trkpt>
      <trkpt lat="45.48346" lon="4.61282">
        <ele>531</ele>
        <time>2014-11-14T19:59:16Z</time>
      </trkpt>
      <trkpt lat="45.4835" lon="4.61282">
        <ele>531</ele>
        <time>2014-11-14T19:59:19Z</time>
      </trkpt>
      <trkpt lat="45.48355" lon="4.6128">
        <ele>531</ele>
        <time>2014-11-14T19:59:22Z</time>
      </trkpt>
      <trkpt lat="45.48361" lon="4.61278">
        <ele>531</ele>
        <time>2014-11-14T19:59:26Z</time>
      </trkpt>
      <trkpt lat="45.48366" lon="4.61276">
        <ele>531</ele>
        <time>2014-11-14T19:59:29Z</time>
      </trkpt>
      <trkpt lat="45.48371" lon="4.61274">
        <ele>531</ele>
        <time>2014-11-14T19:59:33Z</time>
      </trkpt>
      <trkpt lat="45.48374" lon="4.6127">
        <ele>531</ele>
        <time>2014-11-14T19:59:36Z</time>
      </trkpt>
      <trkpt lat="45.48378" lon="4.61267">
        <ele>531</ele>
        <time>2014-11-14T19:59:39Z</time>
      </trkpt>
      <trkpt lat="45.48381" lon="4.61264">
        <ele>532</ele>
        <time>2014-11-14T19:59:42Z</time>
      </trkpt>
      <trkpt lat="45.48386" lon="4.61261">
        <ele>532</ele>
        <time>2014-11-14T19:59:45Z</time>
      </trkpt>
      <trkpt lat="45.48392" lon="4.61259">
        <ele>533</ele>
        <time>2014-11-14T19:59:49Z</time>
      </trkpt>
      <trkpt lat="45.48397" lon="4.61259">
        <ele>534</ele>
        <time>2014-11-14T19:59:52Z</time>
      </trkpt>
      <trkpt lat="45.48402" lon="4.61258">
        <ele>534</ele>
        <time>2014-11-14T19:59:55Z</time>
      </trkpt>
      <trkpt lat="45.4841" lon="4.61256">
        <ele>534</ele>
        <time>2014-11-14T19:59:59Z</time>
      </trkpt>
      <trkpt lat="45.48415" lon="4.61255">
        <ele>535</ele>
        <time>2014-11-14T20:00:02Z</time>
      </trkpt>
      <trkpt lat="45.48421" lon="4.61252">
        <ele>536</ele>
        <time>2014-11-14T20:00:05Z</time>
      </trkpt>
      <trkpt lat="45.48427" lon="4.61249">
        <ele>537</ele>
        <time>2014-11-14T20:00:08Z</time>
      </trkpt>
      <trkpt lat="45.48434" lon="4.61246">
        <ele>537</ele>
        <time>2014-11-14T20:00:11Z</time>
      </trkpt>
      <trkpt lat="45.4844" lon="4.61244">
        <ele>537</ele>
        <time>2014-11-14T20:00:15Z</time>
      </trkpt>
      <trkpt lat="45.48446" lon="4.61243">
        <ele>538</ele>
        <time>2014-11-14T20:00:18Z</time>
      </trkpt>
      <trkpt lat="45.48451" lon="4.61244">
        <ele>538</ele>
        <time>2014-11-14T20:00:21Z</time>
      </trkpt>
      <trkpt lat="45.48459" lon="4.61242">
        <ele>538</ele>
        <time>2014-11-14T20:00:25Z</time>
      </trkpt>
      <trkpt lat="45.48466" lon="4.6124">
        <ele>538</ele>
        <time>2014-11-14T20:00:28Z</time>
      </trkpt>
      <trkpt lat="45.48474" lon="4.61236">
        <ele>539</ele>
        <time>2014-11-14T20:00:31Z</time>
      </trkpt>
      <trkpt lat="45.48485" lon="4.6123">
        <ele>540</ele>
        <time>2014-11-14T20:00:35Z</time>
      </trkpt>
      <trkpt lat="45.48492" lon="4.61227">
        <ele>541</ele>
        <time>2014-11-14T20:00:38Z</time>
      </trkpt>
      <trkpt lat="45.485" lon="4.61224">
        <ele>541</ele>
        <time>2014-11-14T20:00:41Z</time>
      </trkpt>
      <trkpt lat="45.48507" lon="4.61222">
        <ele>541</ele>
        <time>2014-11-14T20:00:44Z</time>
      </trkpt>
      <trkpt lat="45.48513" lon="4.61219">
        <ele>541</ele>
        <time>2014-11-14T20:00:47Z</time>
      </trkpt>
      <trkpt lat="45.48522" lon="4.61216">
        <ele>542</ele>
        <time>2014-11-14T20:00:51Z</time>
      </trkpt>
      <trkpt lat="45.48528" lon="4.61214">
        <ele>542</ele>
        <time>2014-11-14T20:00:54Z</time>
      </trkpt>
      <trkpt lat="45.48537" lon="4.61212">
        <ele>543</ele>
        <time>2014-11-14T20:00:57Z</time>
      </trkpt>
      <trkpt lat="45.48544" lon="4.61208">
        <ele>543</ele>
        <time>2014-11-14T20:01:00Z</time>
      </trkpt>
      <trkpt lat="45.48551" lon="4.61205">
        <ele>544</ele>
        <time>2014-11-14T20:01:03Z</time>
      </trkpt>
      <trkpt lat="45.48558" lon="4.61204">
        <ele>544</ele>
        <time>2014-11-14T20:01:06Z</time>
      </trkpt>
      <trkpt lat="45.48564" lon="4.61202">
        <ele>544</ele>
        <time>2014-11-14T20:01:09Z</time>
      </trkpt>
      <trkpt lat="45.4857" lon="4.612">
        <ele>544</ele>
        <time>2014-11-14T20:01:12Z</time>
      </trkpt>
      <trkpt lat="45.48578" lon="4.61196">
        <ele>545</ele>
        <time>2014-11-14T20:01:16Z</time>
      </trkpt>
      <trkpt lat="45.48585" lon="4.61193">
        <ele>546</ele>
        <time>2014-11-14T20:01:19Z</time>
      </trkpt>
      <trkpt lat="45.48591" lon="4.6119">
        <ele>546</ele>
        <time>2014-11-14T20:01:22Z</time>
      </trkpt>
      <trkpt lat="45.486" lon="4.61186">
        <ele>547</ele>
        <time>2014-11-14T20:01:26Z</time>
      </trkpt>
      <trkpt lat="45.48607" lon="4.61184">
        <ele>548</ele>
        <time>2014-11-14T20:01:29Z</time>
      </trkpt>
      <trkpt lat="45.48615" lon="4.61181">
        <ele>549</ele>
        <time>2014-11-14T20:01:32Z</time>
      </trkpt>
      <trkpt lat="45.48626" lon="4.61178">
        <ele>549</ele>
        <time>2014-11-14T20:01:36Z</time>
      </trkpt>
      <trkpt lat="45.48633" lon="4.61176">
        <ele>550</ele>
        <time>2014-11-14T20:01:39Z</time>
      </trkpt>
      <trkpt lat="45.48641" lon="4.61176">
        <ele>550</ele>
        <time>2014-11-14T20:01:42Z</time>
      </trkpt>
      <trkpt lat="45.48648" lon="4.61176">
        <ele>550</ele>
        <time>2014-11-14T20:01:45Z</time>
      </trkpt>
      <trkpt lat="45.48655" lon="4.61176">
        <ele>550</ele>
        <time>2014-11-14T20:01:48Z</time>
      </trkpt>
      <trkpt lat="45.48661" lon="4.61178">
        <ele>550</ele>
        <time>2014-11-14T20:01:51Z</time>
      </trkpt>
      <trkpt lat="45.48667" lon="4.61179">
        <ele>550</ele>
        <time>2014-11-14T20:01:54Z</time>
      </trkpt>
      <trkpt lat="45.48674" lon="4.61179">
        <ele>550</ele>
        <time>2014-11-14T20:01:57Z</time>
      </trkpt>
      <trkpt lat="45.4868" lon="4.6118">
        <ele>550</ele>
        <time>2014-11-14T20:02:00Z</time>
      </trkpt>
      <trkpt lat="45.48687" lon="4.6118">
        <ele>550</ele>
        <time>2014-11-14T20:02:03Z</time>
      </trkpt>
      <trkpt lat="45.48698" lon="4.61181">
        <ele>550</ele>
        <time>2014-11-14T20:02:07Z</time>
      </trkpt>
      <trkpt lat="45.48704" lon="4.61181">
        <ele>551</ele>
        <time>2014-11-14T20:02:10Z</time>
      </trkpt>
      <trkpt lat="45.48711" lon="4.61182">
        <ele>551</ele>
        <time>2014-11-14T20:02:13Z</time>
      </trkpt>
      <trkpt lat="45.48719" lon="4.61181">
        <ele>551</ele>
        <time>2014-11-14T20:02:17Z</time>
      </trkpt>
      <trkpt lat="45.48727" lon="4.61181">
        <ele>551</ele>
        <time>2014-11-14T20:02:20Z</time>
      </trkpt>
      <trkpt lat="45.48733" lon="4.61181">
        <ele>551</ele>
        <time>2014-11-14T20:02:23Z</time>
      </trkpt>
      <trkpt lat="45.48735" lon="4.61181">
        <ele>551</ele>
        <time>2014-11-14T20:02:27Z</time>
      </trkpt>
      <trkpt lat="45.48733" lon="4.61182">
        <ele>551</ele>
        <time>2014-11-14T20:02:32Z</time>
      </trkpt>
      <trkpt lat="45.48727" lon="4.61184">
        <ele>551</ele>
        <time>2014-11-14T20:02:37Z</time>
      </trkpt>
      <trkpt lat="45.48725" lon="4.61185">
        <ele>551</ele>
        <time>2014-11-14T20:02:44Z</time>
      </trkpt>
      <trkpt lat="45.48726" lon="4.61187">
        <ele>551</ele>
        <time>2014-11-14T20:02:48Z</time>
      </trkpt>
      <trkpt lat="45.48727" lon="4.61189">
        <ele>551</ele>
        <time>2014-11-14T20:02:51Z</time>
      </trkpt>
      <trkpt lat="45.48731" lon="4.61191">
        <ele>551</ele>
        <time>2014-11-14T20:02:55Z</time>
      </trkpt>
      <trkpt lat="45.48736" lon="4.61191">
        <ele>551</ele>
        <time>2014-11-14T20:02:58Z</time>
      </trkpt>
      <trkpt lat="45.48743" lon="4.61191">
        <ele>551</ele>
        <time>2014-11-14T20:03:01Z</time>
      </trkpt>
      <trkpt lat="45.48751" lon="4.61191">
        <ele>551</ele>
        <time>2014-11-14T20:03:04Z</time>
      </trkpt>
      <trkpt lat="45.48758" lon="4.6119">
        <ele>551</ele>
        <time>2014-11-14T20:03:07Z</time>
      </trkpt>
      <trkpt lat="45.48765" lon="4.61189">
        <ele>551</ele>
        <time>2014-11-14T20:03:10Z</time>
      </trkpt>
      <trkpt lat="45.48772" lon="4.61188">
        <ele>551</ele>
        <time>2014-11-14T20:03:13Z</time>
      </trkpt>
      <trkpt lat="45.48778" lon="4.61188">
        <ele>551</ele>
        <time>2014-11-14T20:03:16Z</time>
      </trkpt>
      <trkpt lat="45.48785" lon="4.61187">
        <ele>551</ele>
        <time>2014-11-14T20:03:19Z</time>
      </trkpt>
      <trkpt lat="45.48792" lon="4.61185">
        <ele>551</ele>
        <time>2014-11-14T20:03:22Z</time>
      </trkpt>
      <trkpt lat="45.48801" lon="4.61185">
        <ele>551</ele>
        <time>2014-11-14T20:03:26Z</time>
      </trkpt>
      <trkpt lat="45.48807" lon="4.61185">
        <ele>552</ele>
        <time>2014-11-14T20:03:29Z</time>
      </trkpt>
      <trkpt lat="45.48812" lon="4.61185">
        <ele>553</ele>
        <time>2014-11-14T20:03:33Z</time>
      </trkpt>
      <trkpt lat="45.48815" lon="4.61185">
        <ele>553</ele>
        <time>2014-11-14T20:03:37Z</time>
      </trkpt>
      <trkpt lat="45.48816" lon="4.61185">
        <ele>555</ele>
        <time>2014-11-14T20:03:48Z</time>
      </trkpt>
      <trkpt lat="45.48821" lon="4.61185">
        <ele>555</ele>
        <time>2014-11-14T20:03:51Z</time>
      </trkpt>
      <trkpt lat="45.48828" lon="4.61184">
        <ele>555</ele>
        <time>2014-11-14T20:03:54Z</time>
      </trkpt>
      <trkpt lat="45.48834" lon="4.61184">
        <ele>555</ele>
        <time>2014-11-14T20:03:57Z</time>
      </trkpt>
      <trkpt lat="45.48837" lon="4.61183">
        <ele>555</ele>
        <time>2014-11-14T20:04:00Z</time>
      </trkpt>
      <trkpt lat="45.48841" lon="4.61183">
        <ele>555</ele>
        <time>2014-11-14T20:04:03Z</time>
      </trkpt>
      <trkpt lat="45.48845" lon="4.61182">
        <ele>555</ele>
        <time>2014-11-14T20:04:06Z</time>
      </trkpt>
      <trkpt lat="45.48849" lon="4.61182">
        <ele>555</ele>
        <time>2014-11-14T20:04:09Z</time>
      </trkpt>
      <trkpt lat="45.48852" lon="4.61182">
        <ele>555</ele>
        <time>2014-11-14T20:04:12Z</time>
      </trkpt>
      <trkpt lat="45.48855" lon="4.61182">
        <ele>555</ele>
        <time>2014-11-14T20:04:15Z</time>
      </trkpt>
      <trkpt lat="45.48859" lon="4.61181">
        <ele>555</ele>
        <time>2014-11-14T20:04:18Z</time>
      </trkpt>
      <trkpt lat="45.48864" lon="4.6118">
        <ele>555</ele>
        <time>2014-11-14T20:04:21Z</time>
      </trkpt>
      <trkpt lat="45.48869" lon="4.61178">
        <ele>555</ele>
        <time>2014-11-14T20:04:24Z</time>
      </trkpt>
      <trkpt lat="45.48875" lon="4.61175">
        <ele>555</ele>
        <time>2014-11-14T20:04:27Z</time>
      </trkpt>
      <trkpt lat="45.4888" lon="4.61173">
        <ele>555</ele>
        <time>2014-11-14T20:04:30Z</time>
      </trkpt>
      <trkpt lat="45.48885" lon="4.61169">
        <ele>555</ele>
        <time>2014-11-14T20:04:34Z</time>
      </trkpt>
      <trkpt lat="45.48887" lon="4.61167">
        <ele>555</ele>
        <time>2014-11-14T20:04:37Z</time>
      </trkpt>
      <trkpt lat="45.48888" lon="4.61166">
        <ele>555</ele>
        <time>2014-11-14T20:04:40Z</time>
      </trkpt>
      <trkpt lat="45.4889" lon="4.61166">
        <ele>555</ele>
        <time>2014-11-14T20:04:47Z</time>
      </trkpt>
      <trkpt lat="45.48889" lon="4.61165">
        <ele>555</ele>
        <time>2014-11-14T20:05:02Z</time>
      </trkpt>
      <trkpt lat="45.48889" lon="4.61163">
        <ele>555</ele>
        <time>2014-11-14T20:05:10Z</time>
      </trkpt>
      <trkpt lat="45.4889" lon="4.61161">
        <ele>555</ele>
        <time>2014-11-14T20:05:13Z</time>
      </trkpt>
      <trkpt lat="45.48892" lon="4.61159">
        <ele>555</ele>
        <time>2014-11-14T20:05:17Z</time>
      </trkpt>
      <trkpt lat="45.48896" lon="4.61158">
        <ele>555</ele>
        <time>2014-11-14T20:05:21Z</time>
      </trkpt>
      <trkpt lat="45.48901" lon="4.61155">
        <ele>555</ele>
        <time>2014-11-14T20:05:24Z</time>
      </trkpt>
      <trkpt lat="45.48906" lon="4.61153">
        <ele>555</ele>
        <time>2014-11-14T20:05:27Z</time>
      </trkpt>
      <trkpt lat="45.48913" lon="4.6115">
        <ele>555</ele>
        <time>2014-11-14T20:05:30Z</time>
      </trkpt>
      <trkpt lat="45.4892" lon="4.61148">
        <ele>555</ele>
        <time>2014-11-14T20:05:33Z</time>
      </trkpt>
      <trkpt lat="45.48927" lon="4.61145">
        <ele>555</ele>
        <time>2014-11-14T20:05:36Z</time>
      </trkpt>
      <trkpt lat="45.48932" lon="4.61143">
        <ele>555</ele>
        <time>2014-11-14T20:05:39Z</time>
      </trkpt>
      <trkpt lat="45.48936" lon="4.61143">
        <ele>555</ele>
        <time>2014-11-14T20:05:42Z</time>
      </trkpt>
      <trkpt lat="45.48941" lon="4.61141">
        <ele>555</ele>
        <time>2014-11-14T20:05:45Z</time>
      </trkpt>
      <trkpt lat="45.48949" lon="4.61141">
        <ele>555</ele>
        <time>2014-11-14T20:05:48Z</time>
      </trkpt>
      <trkpt lat="45.48955" lon="4.6114">
        <ele>554</ele>
        <time>2014-11-14T20:05:51Z</time>
      </trkpt>
      <trkpt lat="45.4896" lon="4.61138">
        <ele>554</ele>
        <time>2014-11-14T20:05:54Z</time>
      </trkpt>
      <trkpt lat="45.48965" lon="4.61137">
        <ele>554</ele>
        <time>2014-11-14T20:05:57Z</time>
      </trkpt>
      <trkpt lat="45.48971" lon="4.61135">
        <ele>554</ele>
        <time>2014-11-14T20:06:00Z</time>
      </trkpt>
      <trkpt lat="45.48978" lon="4.61133">
        <ele>554</ele>
        <time>2014-11-14T20:06:03Z</time>
      </trkpt>
      <trkpt lat="45.48987" lon="4.61129">
        <ele>554</ele>
        <time>2014-11-14T20:06:07Z</time>
      </trkpt>
      <trkpt lat="45.48996" lon="4.61127">
        <ele>554</ele>
        <time>2014-11-14T20:06:10Z</time>
      </trkpt>
      <trkpt lat="45.49002" lon="4.61125">
        <ele>554</ele>
        <time>2014-11-14T20:06:13Z</time>
      </trkpt>
      <trkpt lat="45.49009" lon="4.61124">
        <ele>553</ele>
        <time>2014-11-14T20:06:16Z</time>
      </trkpt>
      <trkpt lat="45.49013" lon="4.61123">
        <ele>553</ele>
        <time>2014-11-14T20:06:19Z</time>
      </trkpt>
      <trkpt lat="45.49019" lon="4.61122">
        <ele>552</ele>
        <time>2014-11-14T20:06:22Z</time>
      </trkpt>
      <trkpt lat="45.49026" lon="4.61121">
        <ele>552</ele>
        <time>2014-11-14T20:06:25Z</time>
      </trkpt>
      <trkpt lat="45.49033" lon="4.6112">
        <ele>552</ele>
        <time>2014-11-14T20:06:28Z</time>
      </trkpt>
      <trkpt lat="45.49038" lon="4.61118">
        <ele>552</ele>
        <time>2014-11-14T20:06:31Z</time>
      </trkpt>
      <trkpt lat="45.49045" lon="4.61118">
        <ele>552</ele>
        <time>2014-11-14T20:06:34Z</time>
      </trkpt>
      <trkpt lat="45.49052" lon="4.61118">
        <ele>552</ele>
        <time>2014-11-14T20:06:37Z</time>
      </trkpt>
      <trkpt lat="45.49059" lon="4.61118">
        <ele>552</ele>
        <time>2014-11-14T20:06:40Z</time>
      </trkpt>
      <trkpt lat="45.49066" lon="4.61118">
        <ele>552</ele>
        <time>2014-11-14T20:06:43Z</time>
      </trkpt>
      <trkpt lat="45.49073" lon="4.61116">
        <ele>552</ele>
        <time>2014-11-14T20:06:46Z</time>
      </trkpt>
      <trkpt lat="45.49078" lon="4.61115">
        <ele>552</ele>
        <time>2014-11-14T20:06:49Z</time>
      </trkpt>
      <trkpt lat="45.49085" lon="4.61115">
        <ele>552</ele>
        <time>2014-11-14T20:06:52Z</time>
      </trkpt>
      <trkpt lat="45.49088" lon="4.61115">
        <ele>552</ele>
        <time>2014-11-14T20:06:55Z</time>
      </trkpt>
      <trkpt lat="45.4909" lon="4.61117">
        <ele>552</ele>
        <time>2014-11-14T20:07:03Z</time>
      </trkpt>
      <trkpt lat="45.49091" lon="4.61117">
        <ele>552</ele>
        <time>2014-11-14T20:07:09Z</time>
      </trkpt>
      <trkpt lat="45.49095" lon="4.61118">
        <ele>552</ele>
        <time>2014-11-14T20:07:13Z</time>
      </trkpt>
      <trkpt lat="45.49099" lon="4.61121">
        <ele>552</ele>
        <time>2014-11-14T20:07:16Z</time>
      </trkpt>
      <trkpt lat="45.49106" lon="4.61123">
        <ele>552</ele>
        <time>2014-11-14T20:07:19Z</time>
      </trkpt>
      <trkpt lat="45.49113" lon="4.61126">
        <ele>552</ele>
        <time>2014-11-14T20:07:22Z</time>
      </trkpt>
      <trkpt lat="45.49122" lon="4.61132">
        <ele>552</ele>
        <time>2014-11-14T20:07:26Z</time>
      </trkpt>
      <trkpt lat="45.49128" lon="4.61138">
        <ele>552</ele>
        <time>2014-11-14T20:07:29Z</time>
      </trkpt>
      <trkpt lat="45.49133" lon="4.61147">
        <ele>552</ele>
        <time>2014-11-14T20:07:32Z</time>
      </trkpt>
      <trkpt lat="45.49137" lon="4.61158">
        <ele>552</ele>
        <time>2014-11-14T20:07:35Z</time>
      </trkpt>
      <trkpt lat="45.49143" lon="4.61167">
        <ele>552</ele>
        <time>2014-11-14T20:07:38Z</time>
      </trkpt>
      <trkpt lat="45.49146" lon="4.61172">
        <ele>552</ele>
        <time>2014-11-14T20:07:41Z</time>
      </trkpt>
      <trkpt lat="45.49148" lon="4.61176">
        <ele>552</ele>
        <time>2014-11-14T20:07:45Z</time>
      </trkpt>
      <trkpt lat="45.49151" lon="4.61181">
        <ele>552</ele>
        <time>2014-11-14T20:07:49Z</time>
      </trkpt>
      <trkpt lat="45.49154" lon="4.61186">
        <ele>552</ele>
        <time>2014-11-14T20:07:52Z</time>
      </trkpt>
      <trkpt lat="45.49159" lon="4.61192">
        <ele>552</ele>
        <time>2014-11-14T20:07:55Z</time>
      </trkpt>
      <trkpt lat="45.49163" lon="4.61196">
        <ele>552</ele>
        <time>2014-11-14T20:07:58Z</time>
      </trkpt>
      <trkpt lat="45.49165" lon="4.61201">
        <ele>552</ele>
        <time>2014-11-14T20:08:02Z</time>
      </trkpt>
      <trkpt lat="45.4917" lon="4.61205">
        <ele>552</ele>
        <time>2014-11-14T20:08:06Z</time>
      </trkpt>
      <trkpt lat="45.49173" lon="4.61209">
        <ele>552</ele>
        <time>2014-11-14T20:08:09Z</time>
      </trkpt>
      <trkpt lat="45.49178" lon="4.61212">
        <ele>552</ele>
        <time>2014-11-14T20:08:12Z</time>
      </trkpt>
      <trkpt lat="45.4918" lon="4.61216">
        <ele>552</ele>
        <time>2014-11-14T20:08:16Z</time>
      </trkpt>
      <trkpt lat="45.49184" lon="4.61221">
        <ele>552</ele>
        <time>2014-11-14T20:08:20Z</time>
      </trkpt>
      <trkpt lat="45.49189" lon="4.61224">
        <ele>552</ele>
        <time>2014-11-14T20:08:23Z</time>
      </trkpt>
      <trkpt lat="45.49191" lon="4.61228">
        <ele>552</ele>
        <time>2014-11-14T20:08:26Z</time>
      </trkpt>
      <trkpt lat="45.49198" lon="4.61231">
        <ele>552</ele>
        <time>2014-11-14T20:08:30Z</time>
      </trkpt>
      <trkpt lat="45.49202" lon="4.61235">
        <ele>553</ele>
        <time>2014-11-14T20:08:34Z</time>
      </trkpt>
      <trkpt lat="45.49209" lon="4.61239">
        <ele>553</ele>
        <time>2014-11-14T20:08:38Z</time>
      </trkpt>
      <trkpt lat="45.49212" lon="4.61242">
        <ele>553</ele>
        <time>2014-11-14T20:08:41Z</time>
      </trkpt>
      <trkpt lat="45.49217" lon="4.61245">
        <ele>553</ele>
        <time>2014-11-14T20:08:44Z</time>
      </trkpt>
      <trkpt lat="45.49218" lon="4.6125">
        <ele>553</ele>
        <time>2014-11-14T20:08:48Z</time>
      </trkpt>
      <trkpt lat="45.49223" lon="4.61253">
        <ele>553</ele>
        <time>2014-11-14T20:08:51Z</time>
      </trkpt>
      <trkpt lat="45.49227" lon="4.61257">
        <ele>554</ele>
        <time>2014-11-14T20:08:54Z</time>
      </trkpt>
      <trkpt lat="45.49233" lon="4.61262">
        <ele>556</ele>
        <time>2014-11-14T20:08:57Z</time>
      </trkpt>
      <trkpt lat="45.49236" lon="4.61267">
        <ele>557</ele>
        <time>2014-11-14T20:09:00Z</time>
      </trkpt>
      <trkpt lat="45.4924" lon="4.6127">
        <ele>558</ele>
        <time>2014-11-14T20:09:03Z</time>
      </trkpt>
      <trkpt lat="45.49246" lon="4.61271">
        <ele>558</ele>
        <time>2014-11-14T20:09:06Z</time>
      </trkpt>
      <trkpt lat="45.4925" lon="4.61273">
        <ele>558</ele>
        <time>2014-11-14T20:09:09Z</time>
      </trkpt>
      <trkpt lat="45.49253" lon="4.61276">
        <ele>558</ele>
        <time>2014-11-14T20:09:12Z</time>
      </trkpt>
      <trkpt lat="45.49255" lon="4.61278">
        <ele>558</ele>
        <time>2014-11-14T20:09:15Z</time>
      </trkpt>
      <trkpt lat="45.49258" lon="4.61282">
        <ele>558</ele>
        <time>2014-11-14T20:09:18Z</time>
      </trkpt>
      <trkpt lat="45.49262" lon="4.61285">
        <ele>558</ele>
        <time>2014-11-14T20:09:21Z</time>
      </trkpt>
      <trkpt lat="45.49264" lon="4.61288">
        <ele>558</ele>
        <time>2014-11-14T20:09:24Z</time>
      </trkpt>
      <trkpt lat="45.49268" lon="4.61289">
        <ele>558</ele>
        <time>2014-11-14T20:09:27Z</time>
      </trkpt>
      <trkpt lat="45.49271" lon="4.61292">
        <ele>558</ele>
        <time>2014-11-14T20:09:30Z</time>
      </trkpt>
      <trkpt lat="45.49277" lon="4.61297">
        <ele>558</ele>
        <time>2014-11-14T20:09:33Z</time>
      </trkpt>
      <trkpt lat="45.49282" lon="4.61301">
        <ele>558</ele>
        <time>2014-11-14T20:09:36Z</time>
      </trkpt>
      <trkpt lat="45.4929" lon="4.61306">
        <ele>558</ele>
        <time>2014-11-14T20:09:39Z</time>
      </trkpt>
      <trkpt lat="45.49296" lon="4.6131">
        <ele>558</ele>
        <time>2014-11-14T20:09:42Z</time>
      </trkpt>
      <trkpt lat="45.49303" lon="4.61314">
        <ele>558</ele>
        <time>2014-11-14T20:09:45Z</time>
      </trkpt>
      <trkpt lat="45.4931" lon="4.61316">
        <ele>558</ele>
        <time>2014-11-14T20:09:48Z</time>
      </trkpt>
      <trkpt lat="45.49321" lon="4.61317">
        <ele>558</ele>
        <time>2014-11-14T20:09:51Z</time>
      </trkpt>
      <trkpt lat="45.49331" lon="4.61319">
        <ele>558</ele>
        <time>2014-11-14T20:09:54Z</time>
      </trkpt>
      <trkpt lat="45.49341" lon="4.61321">
        <ele>558</ele>
        <time>2014-11-14T20:09:58Z</time>
      </trkpt>
      <trkpt lat="45.49349" lon="4.61324">
        <ele>557</ele>
        <time>2014-11-14T20:10:01Z</time>
      </trkpt>
      <trkpt lat="45.49357" lon="4.61326">
        <ele>555</ele>
        <time>2014-11-14T20:10:04Z</time>
      </trkpt>
      <trkpt lat="45.49365" lon="4.61329">
        <ele>553</ele>
        <time>2014-11-14T20:10:07Z</time>
      </trkpt>
      <trkpt lat="45.49369" lon="4.61333">
        <ele>552</ele>
        <time>2014-11-14T20:10:10Z</time>
      </trkpt>
      <trkpt lat="45.49376" lon="4.61333">
        <ele>549</ele>
        <time>2014-11-14T20:10:13Z</time>
      </trkpt>
      <trkpt lat="45.49383" lon="4.61332">
        <ele>546</ele>
        <time>2014-11-14T20:10:16Z</time>
      </trkpt>
      <trkpt lat="45.49394" lon="4.61331">
        <ele>545</ele>
        <time>2014-11-14T20:10:20Z</time>
      </trkpt>
      <trkpt lat="45.49401" lon="4.61332">
        <ele>543</ele>
        <time>2014-11-14T20:10:23Z</time>
      </trkpt>
      <trkpt lat="45.49408" lon="4.61332">
        <ele>542</ele>
        <time>2014-11-14T20:10:26Z</time>
      </trkpt>
      <trkpt lat="45.49415" lon="4.61333">
        <ele>540</ele>
        <time>2014-11-14T20:10:29Z</time>
      </trkpt>
      <trkpt lat="45.49422" lon="4.61333">
        <ele>539</ele>
        <time>2014-11-14T20:10:32Z</time>
      </trkpt>
      <trkpt lat="45.49429" lon="4.61336">
        <ele>538</ele>
        <time>2014-11-14T20:10:35Z</time>
      </trkpt>
      <trkpt lat="45.49436" lon="4.61337">
        <ele>537</ele>
        <time>2014-11-14T20:10:38Z</time>
      </trkpt>
      <trkpt lat="45.49443" lon="4.61339">
        <ele>537</ele>
        <time>2014-11-14T20:10:41Z</time>
      </trkpt>
      <trkpt lat="45.49451" lon="4.61343">
        <ele>537</ele>
        <time>2014-11-14T20:10:44Z</time>
      </trkpt>
      <trkpt lat="45.49458" lon="4.61346">
        <ele>537</ele>
        <time>2014-11-14T20:10:47Z</time>
      </trkpt>
      <trkpt lat="45.49464" lon="4.61348">
        <ele>537</ele>
        <time>2014-11-14T20:10:50Z</time>
      </trkpt>
      <trkpt lat="45.49471" lon="4.61352">
        <ele>536</ele>
        <time>2014-11-14T20:10:53Z</time>
      </trkpt>
      <trkpt lat="45.49478" lon="4.61356">
        <ele>535</ele>
        <time>2014-11-14T20:10:56Z</time>
      </trkpt>
      <trkpt lat="45.49485" lon="4.6136">
        <ele>534</ele>
        <time>2014-11-14T20:10:59Z</time>
      </trkpt>
      <trkpt lat="45.49491" lon="4.61365">
        <ele>533</ele>
        <time>2014-11-14T20:11:02Z</time>
      </trkpt>
      <trkpt lat="45.49497" lon="4.61368">
        <ele>532</ele>
        <time>2014-11-14T20:11:05Z</time>
      </trkpt>
      <trkpt lat="45.49503" lon="4.61371">
        <ele>531</ele>
        <time>2014-11-14T20:11:08Z</time>
      </trkpt>
      <trkpt lat="45.49509" lon="4.61376">
        <ele>529</ele>
        <time>2014-11-14T20:11:11Z</time>
      </trkpt>
      <trkpt lat="45.49516" lon="4.6138">
        <ele>527</ele>
        <time>2014-11-14T20:11:14Z</time>
      </trkpt>
      <trkpt lat="45.49524" lon="4.61384">
        <ele>526</ele>
        <time>2014-11-14T20:11:17Z</time>
      </trkpt>
      <trkpt lat="45.49531" lon="4.61388">
        <ele>524</ele>
        <time>2014-11-14T20:11:20Z</time>
      </trkpt>
      <trkpt lat="45.49538" lon="4.61392">
        <ele>523</ele>
        <time>2014-11-14T20:11:23Z</time>
      </trkpt>
      <trkpt lat="45.49545" lon="4.61396">
        <ele>521</ele>
        <time>2014-11-14T20:11:26Z</time>
      </trkpt>
      <trkpt lat="45.49552" lon="4.61398">
        <ele>520</ele>
        <time>2014-11-14T20:11:29Z</time>
      </trkpt>
      <trkpt lat="45.49558" lon="4.61404">
        <ele>520</ele>
        <time>2014-11-14T20:11:32Z</time>
      </trkpt>
      <trkpt lat="45.49566" lon="4.61408">
        <ele>519</ele>
        <time>2014-11-14T20:11:35Z</time>
      </trkpt>
      <trkpt lat="45.49572" lon="4.61412">
        <ele>519</ele>
        <time>2014-11-14T20:11:38Z</time>
      </trkpt>
      <trkpt lat="45.49577" lon="4.61417">
        <ele>518</ele>
        <time>2014-11-14T20:11:41Z</time>
      </trkpt>
      <trkpt lat="45.49583" lon="4.61423">
        <ele>517</ele>
        <time>2014-11-14T20:11:44Z</time>
      </trkpt>
      <trkpt lat="45.49591" lon="4.61427">
        <ele>516</ele>
        <time>2014-11-14T20:11:47Z</time>
      </trkpt>
      <trkpt lat="45.49599" lon="4.6143">
        <ele>516</ele>
        <time>2014-11-14T20:11:50Z</time>
      </trkpt>
      <trkpt lat="45.49607" lon="4.6143">
        <ele>516</ele>
        <time>2014-11-14T20:11:53Z</time>
      </trkpt>
      <trkpt lat="45.49613" lon="4.61431">
        <ele>516</ele>
        <time>2014-11-14T20:11:56Z</time>
      </trkpt>
      <trkpt lat="45.4962" lon="4.6143">
        <ele>515</ele>
        <time>2014-11-14T20:11:59Z</time>
      </trkpt>
      <trkpt lat="45.49626" lon="4.61429">
        <ele>514</ele>
        <time>2014-11-14T20:12:02Z</time>
      </trkpt>
      <trkpt lat="45.49632" lon="4.61428">
        <ele>513</ele>
        <time>2014-11-14T20:12:05Z</time>
      </trkpt>
      <trkpt lat="45.49636" lon="4.61426">
        <ele>513</ele>
        <time>2014-11-14T20:12:09Z</time>
      </trkpt>
      <trkpt lat="45.49639" lon="4.61424">
        <ele>513</ele>
        <time>2014-11-14T20:12:15Z</time>
      </trkpt>
      <trkpt lat="45.49641" lon="4.61424">
        <ele>513</ele>
        <time>2014-11-14T20:12:19Z</time>
      </trkpt>
      <trkpt lat="45.49642" lon="4.61423">
        <ele>513</ele>
        <time>2014-11-14T20:12:25Z</time>
      </trkpt>
      <trkpt lat="45.49645" lon="4.61423">
        <ele>513</ele>
        <time>2014-11-14T20:12:28Z</time>
      </trkpt>
      <trkpt lat="45.49646" lon="4.61423">
        <ele>513</ele>
        <time>2014-11-14T20:12:31Z</time>
      </trkpt>
      <trkpt lat="45.49647" lon="4.61425">
        <ele>513</ele>
        <time>2014-11-14T20:12:46Z</time>
      </trkpt>
      <trkpt lat="45.49647" lon="4.61427">
        <ele>513</ele>
        <time>2014-11-14T20:12:51Z</time>
      </trkpt>
      <trkpt lat="45.49647" lon="4.61428">
        <ele>513</ele>
        <time>2014-11-14T20:12:58Z</time>
      </trkpt>
      <trkpt lat="45.49648" lon="4.6143">
        <ele>513</ele>
        <time>2014-11-14T20:13:16Z</time>
      </trkpt>
      <trkpt lat="45.4965" lon="4.6143">
        <ele>513</ele>
        <time>2014-11-14T20:13:19Z</time>
      </trkpt>
      <trkpt lat="45.49655" lon="4.61429">
        <ele>513</ele>
        <time>2014-11-14T20:13:22Z</time>
      </trkpt>
      <trkpt lat="45.4966" lon="4.61426">
        <ele>513</ele>
        <time>2014-11-14T20:13:25Z</time>
      </trkpt>
      <trkpt lat="45.49667" lon="4.61422">
        <ele>513</ele>
        <time>2014-11-14T20:13:28Z</time>
      </trkpt>
      <trkpt lat="45.49675" lon="4.61421">
        <ele>513</ele>
        <time>2014-11-14T20:13:31Z</time>
      </trkpt>
      <trkpt lat="45.49681" lon="4.6142">
        <ele>513</ele>
        <time>2014-11-14T20:13:34Z</time>
      </trkpt>
      <trkpt lat="45.49688" lon="4.61421">
        <ele>513</ele>
        <time>2014-11-14T20:13:37Z</time>
      </trkpt>
      <trkpt lat="45.49695" lon="4.61422">
        <ele>511</ele>
        <time>2014-11-14T20:13:40Z</time>
      </trkpt>
      <trkpt lat="45.49701" lon="4.61423">
        <ele>510</ele>
        <time>2014-11-14T20:13:43Z</time>
      </trkpt>
      <trkpt lat="45.49706" lon="4.61426">
        <ele>509</ele>
        <time>2014-11-14T20:13:46Z</time>
      </trkpt>
      <trkpt lat="45.49709" lon="4.61428">
        <ele>508</ele>
        <time>2014-11-14T20:13:49Z</time>
      </trkpt>
      <trkpt lat="45.49717" lon="4.61427">
        <ele>508</ele>
        <time>2014-11-14T20:13:52Z</time>
      </trkpt>
      <trkpt lat="45.49726" lon="4.61427">
        <ele>508</ele>
        <time>2014-11-14T20:13:55Z</time>
      </trkpt>
      <trkpt lat="45.49736" lon="4.61427">
        <ele>508</ele>
        <time>2014-11-14T20:13:58Z</time>
      </trkpt>
      <trkpt lat="45.49743" lon="4.61427">
        <ele>508</ele>
        <time>2014-11-14T20:14:01Z</time>
      </trkpt>
      <trkpt lat="45.49749" lon="4.6143">
        <ele>508</ele>
        <time>2014-11-14T20:14:04Z</time>
      </trkpt>
      <trkpt lat="45.49759" lon="4.6143">
        <ele>508</ele>
        <time>2014-11-14T20:14:07Z</time>
      </trkpt>
      <trkpt lat="45.49766" lon="4.6143">
        <ele>508</ele>
        <time>2014-11-14T20:14:10Z</time>
      </trkpt>
      <trkpt lat="45.49771" lon="4.61433">
        <ele>508</ele>
        <time>2014-11-14T20:14:13Z</time>
      </trkpt>
      <trkpt lat="45.49778" lon="4.61439">
        <ele>506</ele>
        <time>2014-11-14T20:14:16Z</time>
      </trkpt>
      <trkpt lat="45.49784" lon="4.61442">
        <ele>505</ele>
        <time>2014-11-14T20:14:19Z</time>
      </trkpt>
      <trkpt lat="45.4979" lon="4.61448">
        <ele>505</ele>
        <time>2014-11-14T20:14:22Z</time>
      </trkpt>
      <trkpt lat="45.49796" lon="4.61453">
        <ele>505</ele>
        <time>2014-11-14T20:14:25Z</time>
      </trkpt>
      <trkpt lat="45.49801" lon="4.61456">
        <ele>505</ele>
        <time>2014-11-14T20:14:28Z</time>
      </trkpt>
      <trkpt lat="45.4981" lon="4.6146">
        <ele>504</ele>
        <time>2014-11-14T20:14:31Z</time>
      </trkpt>
      <trkpt lat="45.49815" lon="4.61464">
        <ele>503</ele>
        <time>2014-11-14T20:14:34Z</time>
      </trkpt>
      <trkpt lat="45.49821" lon="4.61469">
        <ele>501</ele>
        <time>2014-11-14T20:14:37Z</time>
      </trkpt>
      <trkpt lat="45.49829" lon="4.61474">
        <ele>498</ele>
        <time>2014-11-14T20:14:40Z</time>
      </trkpt>
      <trkpt lat="45.49834" lon="4.61478">
        <ele>497</ele>
        <time>2014-11-14T20:14:43Z</time>
      </trkpt>
      <trkpt lat="45.49841" lon="4.61482">
        <ele>496</ele>
        <time>2014-11-14T20:14:46Z</time>
      </trkpt>
      <trkpt lat="45.49847" lon="4.61485">
        <ele>494</ele>
        <time>2014-11-14T20:14:49Z</time>
      </trkpt>
      <trkpt lat="45.49853" lon="4.61489">
        <ele>492</ele>
        <time>2014-11-14T20:14:52Z</time>
      </trkpt>
      <trkpt lat="45.4986" lon="4.61492">
        <ele>490</ele>
        <time>2014-11-14T20:14:55Z</time>
      </trkpt>
      <trkpt lat="45.49867" lon="4.61494">
        <ele>489</ele>
        <time>2014-11-14T20:14:58Z</time>
      </trkpt>
      <trkpt lat="45.49877" lon="4.61496">
        <ele>489</ele>
        <time>2014-11-14T20:15:01Z</time>
      </trkpt>
      <trkpt lat="45.49888" lon="4.61498">
        <ele>489</ele>
        <time>2014-11-14T20:15:04Z</time>
      </trkpt>
      <trkpt lat="45.49895" lon="4.615">
        <ele>489</ele>
        <time>2014-11-14T20:15:07Z</time>
      </trkpt>
      <trkpt lat="45.49901" lon="4.61504">
        <ele>489</ele>
        <time>2014-11-14T20:15:10Z</time>
      </trkpt>
      <trkpt lat="45.49906" lon="4.6151">
        <ele>489</ele>
        <time>2014-11-14T20:15:13Z</time>
      </trkpt>
      <trkpt lat="45.49912" lon="4.61514">
        <ele>486</ele>
        <time>2014-11-14T20:15:16Z</time>
      </trkpt>
      <trkpt lat="45.49918" lon="4.61517">
        <ele>483</ele>
        <time>2014-11-14T20:15:19Z</time>
      </trkpt>
      <trkpt lat="45.49925" lon="4.61521">
        <ele>482</ele>
        <time>2014-11-14T20:15:22Z</time>
      </trkpt>
      <trkpt lat="45.49933" lon="4.61523">
        <ele>481</ele>
        <time>2014-11-14T20:15:25Z</time>
      </trkpt>
      <trkpt lat="45.49943" lon="4.61525">
        <ele>481</ele>
        <time>2014-11-14T20:15:28Z</time>
      </trkpt>
      <trkpt lat="45.49949" lon="4.61528">
        <ele>481</ele>
        <time>2014-11-14T20:15:31Z</time>
      </trkpt>
      <trkpt lat="45.49955" lon="4.61532">
        <ele>481</ele>
        <time>2014-11-14T20:15:34Z</time>
      </trkpt>
      <trkpt lat="45.49963" lon="4.61535">
        <ele>481</ele>
        <time>2014-11-14T20:15:37Z</time>
      </trkpt>
      <trkpt lat="45.49973" lon="4.61536">
        <ele>482</ele>
        <time>2014-11-14T20:15:40Z</time>
      </trkpt>
      <trkpt lat="45.49979" lon="4.61538">
        <ele>483</ele>
        <time>2014-11-14T20:15:43Z</time>
      </trkpt>
      <trkpt lat="45.49984" lon="4.61541">
        <ele>483</ele>
        <time>2014-11-14T20:15:46Z</time>
      </trkpt>
      <trkpt lat="45.49989" lon="4.61544">
        <ele>483</ele>
        <time>2014-11-14T20:15:49Z</time>
      </trkpt>
      <trkpt lat="45.49993" lon="4.6155">
        <ele>482</ele>
        <time>2014-11-14T20:15:52Z</time>
      </trkpt>
      <trkpt lat="45.49996" lon="4.61556">
        <ele>479</ele>
        <time>2014-11-14T20:15:55Z</time>
      </trkpt>
      <trkpt lat="45.49997" lon="4.61562">
        <ele>476</ele>
        <time>2014-11-14T20:15:58Z</time>
      </trkpt>
      <trkpt lat="45.50002" lon="4.61566">
        <ele>472</ele>
        <time>2014-11-14T20:16:01Z</time>
      </trkpt>
      <trkpt lat="45.50011" lon="4.61567">
        <ele>469</ele>
        <time>2014-11-14T20:16:04Z</time>
      </trkpt>
      <trkpt lat="45.50021" lon="4.61563">
        <ele>466</ele>
        <time>2014-11-14T20:16:07Z</time>
      </trkpt>
      <trkpt lat="45.50027" lon="4.61564">
        <ele>465</ele>
        <time>2014-11-14T20:16:10Z</time>
      </trkpt>
      <trkpt lat="45.50032" lon="4.61568">
        <ele>462</ele>
        <time>2014-11-14T20:16:13Z</time>
      </trkpt>
      <trkpt lat="45.50037" lon="4.61571">
        <ele>459</ele>
        <time>2014-11-14T20:16:16Z</time>
      </trkpt>
      <trkpt lat="45.50042" lon="4.61575">
        <ele>456</ele>
        <time>2014-11-14T20:16:19Z</time>
      </trkpt>
      <trkpt lat="45.50047" lon="4.61578">
        <ele>453</ele>
        <time>2014-11-14T20:16:22Z</time>
      </trkpt>
      <trkpt lat="45.50054" lon="4.61581">
        <ele>450</ele>
        <time>2014-11-14T20:16:25Z</time>
      </trkpt>
      <trkpt lat="45.5006" lon="4.61582">
        <ele>447</ele>
        <time>2014-11-14T20:16:28Z</time>
      </trkpt>
      <trkpt lat="45.50068" lon="4.61583">
        <ele>445</ele>
        <time>2014-11-14T20:16:31Z</time>
      </trkpt>
      <trkpt lat="45.50075" lon="4.61586">
        <ele>444</ele>
        <time>2014-11-14T20:16:34Z</time>
      </trkpt>
      <trkpt lat="45.5008" lon="4.61589">
        <ele>443</ele>
        <time>2014-11-14T20:16:37Z</time>
      </trkpt>
      <trkpt lat="45.50087" lon="4.61594">
        <ele>443</ele>
        <time>2014-11-14T20:16:40Z</time>
      </trkpt>
      <trkpt lat="45.50093" lon="4.61598">
        <ele>443</ele>
        <time>2014-11-14T20:16:43Z</time>
      </trkpt>
      <trkpt lat="45.501" lon="4.61604">
        <ele>443</ele>
        <time>2014-11-14T20:16:46Z</time>
      </trkpt>
      <trkpt lat="45.50108" lon="4.6161">
        <ele>443</ele>
        <time>2014-11-14T20:16:49Z</time>
      </trkpt>
      <trkpt lat="45.50114" lon="4.61615">
        <ele>443</ele>
        <time>2014-11-14T20:16:52Z</time>
      </trkpt>
      <trkpt lat="45.50121" lon="4.6162">
        <ele>443</ele>
        <time>2014-11-14T20:16:55Z</time>
      </trkpt>
      <trkpt lat="45.50128" lon="4.61625">
        <ele>443</ele>
        <time>2014-11-14T20:16:58Z</time>
      </trkpt>
      <trkpt lat="45.50136" lon="4.6163">
        <ele>443</ele>
        <time>2014-11-14T20:17:01Z</time>
      </trkpt>
      <trkpt lat="45.50142" lon="4.61636">
        <ele>443</ele>
        <time>2014-11-14T20:17:04Z</time>
      </trkpt>
      <trkpt lat="45.50152" lon="4.6164">
        <ele>443</ele>
        <time>2014-11-14T20:17:07Z</time>
      </trkpt>
      <trkpt lat="45.50158" lon="4.61646">
        <ele>443</ele>
        <time>2014-11-14T20:17:10Z</time>
      </trkpt>
      <trkpt lat="45.50165" lon="4.6165">
        <ele>443</ele>
        <time>2014-11-14T20:17:13Z</time>
      </trkpt>
      <trkpt lat="45.50172" lon="4.61654">
        <ele>443</ele>
        <time>2014-11-14T20:17:16Z</time>
      </trkpt>
      <trkpt lat="45.50179" lon="4.61657">
        <ele>442</ele>
        <time>2014-11-14T20:17:19Z</time>
      </trkpt>
      <trkpt lat="45.50186" lon="4.61661">
        <ele>441</ele>
        <time>2014-11-14T20:17:22Z</time>
      </trkpt>
      <trkpt lat="45.50192" lon="4.61665">
        <ele>439</ele>
        <time>2014-11-14T20:17:25Z</time>
      </trkpt>
      <trkpt lat="45.50198" lon="4.6167">
        <ele>437</ele>
        <time>2014-11-14T20:17:28Z</time>
      </trkpt>
      <trkpt lat="45.5021" lon="4.61669">
        <ele>437</ele>
        <time>2014-11-14T20:17:31Z</time>
      </trkpt>
      <trkpt lat="45.5022" lon="4.61665">
        <ele>437</ele>
        <time>2014-11-14T20:17:34Z</time>
      </trkpt>
      <trkpt lat="45.5023" lon="4.61665">
        <ele>439</ele>
        <time>2014-11-14T20:17:37Z</time>
      </trkpt>
      <trkpt lat="45.50236" lon="4.61666">
        <ele>439</ele>
        <time>2014-11-14T20:17:40Z</time>
      </trkpt>
      <trkpt lat="45.50243" lon="4.61668">
        <ele>439</ele>
        <time>2014-11-14T20:17:43Z</time>
      </trkpt>
      <trkpt lat="45.50251" lon="4.61671">
        <ele>439</ele>
        <time>2014-11-14T20:17:46Z</time>
      </trkpt>
      <trkpt lat="45.50256" lon="4.61674">
        <ele>439</ele>
        <time>2014-11-14T20:17:49Z</time>
      </trkpt>
      <trkpt lat="45.50261" lon="4.61675">
        <ele>439</ele>
        <time>2014-11-14T20:17:52Z</time>
      </trkpt>
      <trkpt lat="45.50267" lon="4.61676">
        <ele>437</ele>
        <time>2014-11-14T20:17:55Z</time>
      </trkpt>
      <trkpt lat="45.50273" lon="4.61677">
        <ele>435</ele>
        <time>2014-11-14T20:17:58Z</time>
      </trkpt>
      <trkpt lat="45.50279" lon="4.6168">
        <ele>434</ele>
        <time>2014-11-14T20:18:01Z</time>
      </trkpt>
      <trkpt lat="45.50285" lon="4.61684">
        <ele>432</ele>
        <time>2014-11-14T20:18:04Z</time>
      </trkpt>
      <trkpt lat="45.5029" lon="4.61685">
        <ele>431</ele>
        <time>2014-11-14T20:18:07Z</time>
      </trkpt>
      <trkpt lat="45.50298" lon="4.61688">
        <ele>431</ele>
        <time>2014-11-14T20:18:10Z</time>
      </trkpt>
      <trkpt lat="45.50306" lon="4.6169">
        <ele>431</ele>
        <time>2014-11-14T20:18:13Z</time>
      </trkpt>
      <trkpt lat="45.50312" lon="4.61693">
        <ele>429</ele>
        <time>2014-11-14T20:18:16Z</time>
      </trkpt>
      <trkpt lat="45.50319" lon="4.61694">
        <ele>427</ele>
        <time>2014-11-14T20:18:19Z</time>
      </trkpt>
      <trkpt lat="45.50328" lon="4.61699">
        <ele>426</ele>
        <time>2014-11-14T20:18:22Z</time>
      </trkpt>
      <trkpt lat="45.50333" lon="4.61701">
        <ele>425</ele>
        <time>2014-11-14T20:18:25Z</time>
      </trkpt>
      <trkpt lat="45.50341" lon="4.61704">
        <ele>425</ele>
        <time>2014-11-14T20:18:28Z</time>
      </trkpt>
      <trkpt lat="45.50348" lon="4.61707">
        <ele>424</ele>
        <time>2014-11-14T20:18:31Z</time>
      </trkpt>
      <trkpt lat="45.50357" lon="4.61708">
        <ele>424</ele>
        <time>2014-11-14T20:18:34Z</time>
      </trkpt>
      <trkpt lat="45.50363" lon="4.61711">
        <ele>424</ele>
        <time>2014-11-14T20:18:37Z</time>
      </trkpt>
      <trkpt lat="45.50369" lon="4.61713">
        <ele>423</ele>
        <time>2014-11-14T20:18:40Z</time>
      </trkpt>
      <trkpt lat="45.50375" lon="4.61716">
        <ele>423</ele>
        <time>2014-11-14T20:18:43Z</time>
      </trkpt>
      <trkpt lat="45.50381" lon="4.61719">
        <ele>422</ele>
        <time>2014-11-14T20:18:46Z</time>
      </trkpt>
      <trkpt lat="45.50386" lon="4.6172">
        <ele>421</ele>
        <time>2014-11-14T20:18:49Z</time>
      </trkpt>
      <trkpt lat="45.5039" lon="4.61722">
        <ele>420</ele>
        <time>2014-11-14T20:18:52Z</time>
      </trkpt>
      <trkpt lat="45.50397" lon="4.61723">
        <ele>420</ele>
        <time>2014-11-14T20:18:55Z</time>
      </trkpt>
      <trkpt lat="45.50403" lon="4.61724">
        <ele>419</ele>
        <time>2014-11-14T20:18:58Z</time>
      </trkpt>
      <trkpt lat="45.5041" lon="4.61726">
        <ele>419</ele>
        <time>2014-11-14T20:19:01Z</time>
      </trkpt>
      <trkpt lat="45.50418" lon="4.61728">
        <ele>419</ele>
        <time>2014-11-14T20:19:04Z</time>
      </trkpt>
      <trkpt lat="45.50425" lon="4.61734">
        <ele>418</ele>
        <time>2014-11-14T20:19:08Z</time>
      </trkpt>
      <trkpt lat="45.50432" lon="4.61736">
        <ele>418</ele>
        <time>2014-11-14T20:19:11Z</time>
      </trkpt>
      <trkpt lat="45.50438" lon="4.61741">
        <ele>418</ele>
        <time>2014-11-14T20:19:14Z</time>
      </trkpt>
      <trkpt lat="45.50444" lon="4.61746">
        <ele>418</ele>
        <time>2014-11-14T20:19:17Z</time>
      </trkpt>
      <trkpt lat="45.50449" lon="4.61749">
        <ele>418</ele>
        <time>2014-11-14T20:19:20Z</time>
      </trkpt>
      <trkpt lat="45.50453" lon="4.61755">
        <ele>418</ele>
        <time>2014-11-14T20:19:23Z</time>
      </trkpt>
      <trkpt lat="45.5046" lon="4.6176">
        <ele>417</ele>
        <time>2014-11-14T20:19:26Z</time>
      </trkpt>
      <trkpt lat="45.50465" lon="4.61766">
        <ele>416</ele>
        <time>2014-11-14T20:19:29Z</time>
      </trkpt>
      <trkpt lat="45.50471" lon="4.61772">
        <ele>416</ele>
        <time>2014-11-14T20:19:32Z</time>
      </trkpt>
      <trkpt lat="45.50478" lon="4.61776">
        <ele>416</ele>
        <time>2014-11-14T20:19:35Z</time>
      </trkpt>
      <trkpt lat="45.50483" lon="4.61783">
        <ele>415</ele>
        <time>2014-11-14T20:19:38Z</time>
      </trkpt>
      <trkpt lat="45.50488" lon="4.6179">
        <ele>414</ele>
        <time>2014-11-14T20:19:41Z</time>
      </trkpt>
      <trkpt lat="45.50494" lon="4.61796">
        <ele>414</ele>
        <time>2014-11-14T20:19:44Z</time>
      </trkpt>
      <trkpt lat="45.50499" lon="4.61801">
        <ele>413</ele>
        <time>2014-11-14T20:19:47Z</time>
      </trkpt>
      <trkpt lat="45.50502" lon="4.61808">
        <ele>413</ele>
        <time>2014-11-14T20:19:50Z</time>
      </trkpt>
      <trkpt lat="45.50506" lon="4.61809">
        <ele>413</ele>
        <time>2014-11-14T20:19:53Z</time>
      </trkpt>
      <trkpt lat="45.50509" lon="4.61809">
        <ele>413</ele>
        <time>2014-11-14T20:19:56Z</time>
      </trkpt>
      <trkpt lat="45.50512" lon="4.61811">
        <ele>413</ele>
        <time>2014-11-14T20:20:00Z</time>
      </trkpt>
      <trkpt lat="45.50513" lon="4.61812">
        <ele>413</ele>
        <time>2014-11-14T20:20:03Z</time>
      </trkpt>
      <trkpt lat="45.50514" lon="4.61813">
        <ele>413</ele>
        <time>2014-11-14T20:20:12Z</time>
      </trkpt>
      <trkpt lat="45.50515" lon="4.61815">
        <ele>413</ele>
        <time>2014-11-14T20:20:19Z</time>
      </trkpt>
      <trkpt lat="45.50514" lon="4.61817">
        <ele>413</ele>
        <time>2014-11-14T20:20:29Z</time>
      </trkpt>
      <trkpt lat="45.50515" lon="4.61817">
        <ele>413</ele>
        <time>2014-11-14T20:20:38Z</time>
      </trkpt>
      <trkpt lat="45.50517" lon="4.61817">
        <ele>413</ele>
        <time>2014-11-14T20:20:41Z</time>
      </trkpt>
      <trkpt lat="45.50518" lon="4.61817">
        <ele>413</ele>
        <time>2014-11-14T20:20:45Z</time>
      </trkpt>
      <trkpt lat="45.50517" lon="4.61818">
        <ele>413</ele>
        <time>2014-11-14T20:21:08Z</time>
      </trkpt>
      <trkpt lat="45.50516" lon="4.6182">
        <ele>413</ele>
        <time>2014-11-14T20:21:16Z</time>
      </trkpt>
      <trkpt lat="45.50515" lon="4.6182">
        <ele>413</ele>
        <time>2014-11-14T20:21:24Z</time>
      </trkpt>
      <trkpt lat="45.50513" lon="4.61819">
        <ele>413</ele>
        <time>2014-11-14T20:21:37Z</time>
      </trkpt>
      <trkpt lat="45.50515" lon="4.61818">
        <ele>413</ele>
        <time>2014-11-14T20:21:47Z</time>
      </trkpt>
      <trkpt lat="45.50517" lon="4.61817">
        <ele>415</ele>
        <time>2014-11-14T20:21:55Z</time>
      </trkpt>
      <trkpt lat="45.50518" lon="4.61816">
        <ele>419</ele>
        <time>2014-11-14T20:22:01Z</time>
      </trkpt>
      <trkpt lat="45.50519" lon="4.61815">
        <ele>421</ele>
        <time>2014-11-14T20:22:04Z</time>
      </trkpt>
      <trkpt lat="45.50518" lon="4.61816">
        <ele>422</ele>
        <time>2014-11-14T20:22:09Z</time>
      </trkpt>
      <trkpt lat="45.5052" lon="4.61817">
        <ele>422</ele>
        <time>2014-11-14T20:22:19Z</time>
      </trkpt>
      <trkpt lat="45.50517" lon="4.61817">
        <ele>421</ele>
        <time>2014-11-14T20:22:22Z</time>
      </trkpt>
      <trkpt lat="45.50516" lon="4.61814">
        <ele>419</ele>
        <time>2014-11-14T20:22:38Z</time>
      </trkpt>
      <trkpt lat="45.50515" lon="4.61813">
        <ele>419</ele>
        <time>2014-11-14T20:22:46Z</time>
      </trkpt>
      <trkpt lat="45.50517" lon="4.61813">
        <ele>419</ele>
        <time>2014-11-14T20:22:55Z</time>
      </trkpt>
      <trkpt lat="45.50518" lon="4.61813">
        <ele>419</ele>
        <time>2014-11-14T20:23:00Z</time>
      </trkpt>
      <trkpt lat="45.50517" lon="4.61811">
        <ele>418</ele>
        <time>2014-11-14T20:23:15Z</time>
      </trkpt>
      <trkpt lat="45.50517" lon="4.61813">
        <ele>416</ele>
        <time>2014-11-14T20:23:27Z</time>
      </trkpt>
      <trkpt lat="45.50517" lon="4.61814">
        <ele>416</ele>
        <time>2014-11-14T20:23:53Z</time>
      </trkpt>
      <trkpt lat="45.50519" lon="4.61814">
        <ele>416</ele>
        <time>2014-11-14T20:24:16Z</time>
      </trkpt>
      <trkpt lat="45.50522" lon="4.6181">
        <ele>416</ele>
        <time>2014-11-14T20:24:20Z</time>
      </trkpt>
      <trkpt lat="45.50525" lon="4.61805">
        <ele>416</ele>
        <time>2014-11-14T20:24:23Z</time>
      </trkpt>
      <trkpt lat="45.50526" lon="4.61799">
        <ele>416</ele>
        <time>2014-11-14T20:24:26Z</time>
      </trkpt>
      <trkpt lat="45.50525" lon="4.61793">
        <ele>416</ele>
        <time>2014-11-14T20:24:29Z</time>
      </trkpt>
      <trkpt lat="45.50521" lon="4.61782">
        <ele>416</ele>
        <time>2014-11-14T20:24:32Z</time>
      </trkpt>
      <trkpt lat="45.50517" lon="4.6177">
        <ele>416</ele>
        <time>2014-11-14T20:24:35Z</time>
      </trkpt>
      <trkpt lat="45.50513" lon="4.61756">
        <ele>416</ele>
        <time>2014-11-14T20:24:38Z</time>
      </trkpt>
      <trkpt lat="45.50509" lon="4.61744">
        <ele>416</ele>
        <time>2014-11-14T20:24:41Z</time>
      </trkpt>
      <trkpt lat="45.50505" lon="4.61734">
        <ele>416</ele>
        <time>2014-11-14T20:24:44Z</time>
      </trkpt>
      <trkpt lat="45.50501" lon="4.61724">
        <ele>416</ele>
        <time>2014-11-14T20:24:47Z</time>
      </trkpt>
      <trkpt lat="45.50496" lon="4.61715">
        <ele>417</ele>
        <time>2014-11-14T20:24:50Z</time>
      </trkpt>
      <trkpt lat="45.50491" lon="4.61707">
        <ele>418</ele>
        <time>2014-11-14T20:24:53Z</time>
      </trkpt>
      <trkpt lat="45.50486" lon="4.61699">
        <ele>418</ele>
        <time>2014-11-14T20:24:56Z</time>
      </trkpt>
      <trkpt lat="45.5048" lon="4.61693">
        <ele>418</ele>
        <time>2014-11-14T20:24:59Z</time>
      </trkpt>
      <trkpt lat="45.50475" lon="4.61686">
        <ele>418</ele>
        <time>2014-11-14T20:25:02Z</time>
      </trkpt>
      <trkpt lat="45.50469" lon="4.61679">
        <ele>418</ele>
        <time>2014-11-14T20:25:05Z</time>
      </trkpt>
      <trkpt lat="45.50463" lon="4.61671">
        <ele>418</ele>
        <time>2014-11-14T20:25:08Z</time>
      </trkpt>
      <trkpt lat="45.50457" lon="4.61663">
        <ele>418</ele>
        <time>2014-11-14T20:25:11Z</time>
      </trkpt>
      <trkpt lat="45.50451" lon="4.61656">
        <ele>418</ele>
        <time>2014-11-14T20:25:14Z</time>
      </trkpt>
      <trkpt lat="45.50446" lon="4.61646">
        <ele>418</ele>
        <time>2014-11-14T20:25:17Z</time>
      </trkpt>
      <trkpt lat="45.50443" lon="4.61638">
        <ele>418</ele>
        <time>2014-11-14T20:25:20Z</time>
      </trkpt>
      <trkpt lat="45.50439" lon="4.61628">
        <ele>418</ele>
        <time>2014-11-14T20:25:23Z</time>
      </trkpt>
      <trkpt lat="45.50436" lon="4.61618">
        <ele>418</ele>
        <time>2014-11-14T20:25:26Z</time>
      </trkpt>
      <trkpt lat="45.50433" lon="4.61609">
        <ele>418</ele>
        <time>2014-11-14T20:25:29Z</time>
      </trkpt>
      <trkpt lat="45.5043" lon="4.61598">
        <ele>418</ele>
        <time>2014-11-14T20:25:32Z</time>
      </trkpt>
      <trkpt lat="45.50425" lon="4.61587">
        <ele>416</ele>
        <time>2014-11-14T20:25:35Z</time>
      </trkpt>
      <trkpt lat="45.50422" lon="4.61577">
        <ele>415</ele>
        <time>2014-11-14T20:25:38Z</time>
      </trkpt>
      <trkpt lat="45.50418" lon="4.61566">
        <ele>413</ele>
        <time>2014-11-14T20:25:41Z</time>
      </trkpt>
      <trkpt lat="45.50415" lon="4.61554">
        <ele>412</ele>
        <time>2014-11-14T20:25:44Z</time>
      </trkpt>
      <trkpt lat="45.50411" lon="4.61543">
        <ele>410</ele>
        <time>2014-11-14T20:25:47Z</time>
      </trkpt>
      <trkpt lat="45.50407" lon="4.61532">
        <ele>408</ele>
        <time>2014-11-14T20:25:50Z</time>
      </trkpt>
      <trkpt lat="45.50402" lon="4.61522">
        <ele>407</ele>
        <time>2014-11-14T20:25:53Z</time>
      </trkpt>
      <trkpt lat="45.50398" lon="4.61512">
        <ele>406</ele>
        <time>2014-11-14T20:25:56Z</time>
      </trkpt>
      <trkpt lat="45.50393" lon="4.61503">
        <ele>405</ele>
        <time>2014-11-14T20:25:59Z</time>
      </trkpt>
      <trkpt lat="45.50387" lon="4.61496">
        <ele>405</ele>
        <time>2014-11-14T20:26:02Z</time>
      </trkpt>
      <trkpt lat="45.50381" lon="4.61488">
        <ele>405</ele>
        <time>2014-11-14T20:26:05Z</time>
      </trkpt>
      <trkpt lat="45.50374" lon="4.61483">
        <ele>405</ele>
        <time>2014-11-14T20:26:08Z</time>
      </trkpt>
      <trkpt lat="45.50367" lon="4.61477">
        <ele>405</ele>
        <time>2014-11-14T20:26:11Z</time>
      </trkpt>
      <trkpt lat="45.5036" lon="4.61472">
        <ele>405</ele>
        <time>2014-11-14T20:26:14Z</time>
      </trkpt>
      <trkpt lat="45.50354" lon="4.61468">
        <ele>406</ele>
        <time>2014-11-14T20:26:17Z</time>
      </trkpt>
      <trkpt lat="45.50348" lon="4.61462">
        <ele>406</ele>
        <time>2014-11-14T20:26:20Z</time>
      </trkpt>
      <trkpt lat="45.50341" lon="4.61456">
        <ele>406</ele>
        <time>2014-11-14T20:26:23Z</time>
      </trkpt>
      <trkpt lat="45.50335" lon="4.61451">
        <ele>406</ele>
        <time>2014-11-14T20:26:26Z</time>
      </trkpt>
      <trkpt lat="45.50329" lon="4.61446">
        <ele>406</ele>
        <time>2014-11-14T20:26:29Z</time>
      </trkpt>
      <trkpt lat="45.50323" lon="4.61441">
        <ele>406</ele>
        <time>2014-11-14T20:26:32Z</time>
      </trkpt>
      <trkpt lat="45.50317" lon="4.61436">
        <ele>406</ele>
        <time>2014-11-14T20:26:35Z</time>
      </trkpt>
      <trkpt lat="45.50311" lon="4.6143">
        <ele>406</ele>
        <time>2014-11-14T20:26:38Z</time>
      </trkpt>
      <trkpt lat="45.50304" lon="4.61426">
        <ele>406</ele>
        <time>2014-11-14T20:26:41Z</time>
      </trkpt>
      <trkpt lat="45.50297" lon="4.61421">
        <ele>406</ele>
        <time>2014-11-14T20:26:44Z</time>
      </trkpt>
      <trkpt lat="45.50291" lon="4.61416">
        <ele>406</ele>
        <time>2014-11-14T20:26:47Z</time>
      </trkpt>
      <trkpt lat="45.50284" lon="4.61411">
        <ele>406</ele>
        <time>2014-11-14T20:26:50Z</time>
      </trkpt>
      <trkpt lat="45.50278" lon="4.61404">
        <ele>406</ele>
        <time>2014-11-14T20:26:53Z</time>
      </trkpt>
      <trkpt lat="45.50271" lon="4.61398">
        <ele>406</ele>
        <time>2014-11-14T20:26:56Z</time>
      </trkpt>
      <trkpt lat="45.50264" lon="4.61392">
        <ele>406</ele>
        <time>2014-11-14T20:26:59Z</time>
      </trkpt>
      <trkpt lat="45.50258" lon="4.61387">
        <ele>406</ele>
        <time>2014-11-14T20:27:02Z</time>
      </trkpt>
      <trkpt lat="45.50252" lon="4.61381">
        <ele>406</ele>
        <time>2014-11-14T20:27:05Z</time>
      </trkpt>
      <trkpt lat="45.50245" lon="4.61376">
        <ele>406</ele>
        <time>2014-11-14T20:27:08Z</time>
      </trkpt>
      <trkpt lat="45.50238" lon="4.6137">
        <ele>406</ele>
        <time>2014-11-14T20:27:11Z</time>
      </trkpt>
      <trkpt lat="45.50232" lon="4.61365">
        <ele>407</ele>
        <time>2014-11-14T20:27:14Z</time>
      </trkpt>
      <trkpt lat="45.50225" lon="4.61359">
        <ele>408</ele>
        <time>2014-11-14T20:27:17Z</time>
      </trkpt>
      <trkpt lat="45.50219" lon="4.61353">
        <ele>408</ele>
        <time>2014-11-14T20:27:20Z</time>
      </trkpt>
      <trkpt lat="45.50213" lon="4.61347">
        <ele>409</ele>
        <time>2014-11-14T20:27:23Z</time>
      </trkpt>
      <trkpt lat="45.50208" lon="4.61341">
        <ele>409</ele>
        <time>2014-11-14T20:27:26Z</time>
      </trkpt>
      <trkpt lat="45.50201" lon="4.61335">
        <ele>410</ele>
        <time>2014-11-14T20:27:29Z</time>
      </trkpt>
      <trkpt lat="45.50195" lon="4.6133">
        <ele>410</ele>
        <time>2014-11-14T20:27:32Z</time>
      </trkpt>
      <trkpt lat="45.50189" lon="4.61324">
        <ele>411</ele>
        <time>2014-11-14T20:27:35Z</time>
      </trkpt>
      <trkpt lat="45.50182" lon="4.61319">
        <ele>412</ele>
        <time>2014-11-14T20:27:38Z</time>
      </trkpt>
      <trkpt lat="45.50175" lon="4.61315">
        <ele>412</ele>
        <time>2014-11-14T20:27:41Z</time>
      </trkpt>
      <trkpt lat="45.5017" lon="4.61309">
        <ele>412</ele>
        <time>2014-11-14T20:27:44Z</time>
      </trkpt>
      <trkpt lat="45.50164" lon="4.61304">
        <ele>412</ele>
        <time>2014-11-14T20:27:47Z</time>
      </trkpt>
      <trkpt lat="45.50158" lon="4.61298">
        <ele>412</ele>
        <time>2014-11-14T20:27:50Z</time>
      </trkpt>
      <trkpt lat="45.50152" lon="4.61293">
        <ele>412</ele>
        <time>2014-11-14T20:27:53Z</time>
      </trkpt>
      <trkpt lat="45.50146" lon="4.61289">
        <ele>412</ele>
        <time>2014-11-14T20:27:56Z</time>
      </trkpt>
      <trkpt lat="45.50141" lon="4.61286">
        <ele>413</ele>
        <time>2014-11-14T20:27:59Z</time>
      </trkpt>
      <trkpt lat="45.50135" lon="4.61282">
        <ele>413</ele>
        <time>2014-11-14T20:28:02Z</time>
      </trkpt>
      <trkpt lat="45.5013" lon="4.61277">
        <ele>413</ele>
        <time>2014-11-14T20:28:05Z</time>
      </trkpt>
      <trkpt lat="45.50124" lon="4.61272">
        <ele>413</ele>
        <time>2014-11-14T20:28:08Z</time>
      </trkpt>
      <trkpt lat="45.50119" lon="4.61268">
        <ele>414</ele>
        <time>2014-11-14T20:28:11Z</time>
      </trkpt>
      <trkpt lat="45.50113" lon="4.61263">
        <ele>414</ele>
        <time>2014-11-14T20:28:14Z</time>
      </trkpt>
      <trkpt lat="45.50107" lon="4.61258">
        <ele>414</ele>
        <time>2014-11-14T20:28:17Z</time>
      </trkpt>
      <trkpt lat="45.50101" lon="4.61253">
        <ele>414</ele>
        <time>2014-11-14T20:28:20Z</time>
      </trkpt>
      <trkpt lat="45.50094" lon="4.6125">
        <ele>414</ele>
        <time>2014-11-14T20:28:23Z</time>
      </trkpt>
      <trkpt lat="45.50088" lon="4.61249">
        <ele>415</ele>
        <time>2014-11-14T20:28:26Z</time>
      </trkpt>
      <trkpt lat="45.50082" lon="4.61249">
        <ele>415</ele>
        <time>2014-11-14T20:28:29Z</time>
      </trkpt>
      <trkpt lat="45.50074" lon="4.61249">
        <ele>416</ele>
        <time>2014-11-14T20:28:32Z</time>
      </trkpt>
      <trkpt lat="45.50068" lon="4.6125">
        <ele>416</ele>
        <time>2014-11-14T20:28:35Z</time>
      </trkpt>
      <trkpt lat="45.50062" lon="4.61251">
        <ele>416</ele>
        <time>2014-11-14T20:28:38Z</time>
      </trkpt>
      <trkpt lat="45.50055" lon="4.61251">
        <ele>417</ele>
        <time>2014-11-14T20:28:41Z</time>
      </trkpt>
      <trkpt lat="45.50049" lon="4.61251">
        <ele>417</ele>
        <time>2014-11-14T20:28:44Z</time>
      </trkpt>
      <trkpt lat="45.50042" lon="4.61251">
        <ele>417</ele>
        <time>2014-11-14T20:28:47Z</time>
      </trkpt>
      <trkpt lat="45.50035" lon="4.6125">
        <ele>417</ele>
        <time>2014-11-14T20:28:50Z</time>
      </trkpt>
      <trkpt lat="45.50029" lon="4.61248">
        <ele>417</ele>
        <time>2014-11-14T20:28:53Z</time>
      </trkpt>
      <trkpt lat="45.50023" lon="4.61247">
        <ele>417</ele>
        <time>2014-11-14T20:28:56Z</time>
      </trkpt>
      <trkpt lat="45.50017" lon="4.61246">
        <ele>417</ele>
        <time>2014-11-14T20:28:59Z</time>
      </trkpt>
      <trkpt lat="45.5001" lon="4.61243">
        <ele>417</ele>
        <time>2014-11-14T20:29:02Z</time>
      </trkpt>
      <trkpt lat="45.50005" lon="4.61241">
        <ele>417</ele>
        <time>2014-11-14T20:29:05Z</time>
      </trkpt>
      <trkpt lat="45.49999" lon="4.61237">
        <ele>417</ele>
        <time>2014-11-14T20:29:08Z</time>
      </trkpt>
      <trkpt lat="45.49993" lon="4.61234">
        <ele>417</ele>
        <time>2014-11-14T20:29:11Z</time>
      </trkpt>
      <trkpt lat="45.49987" lon="4.61233">
        <ele>417</ele>
        <time>2014-11-14T20:29:14Z</time>
      </trkpt>
      <trkpt lat="45.4998" lon="4.61228">
        <ele>417</ele>
        <time>2014-11-14T20:29:17Z</time>
      </trkpt>
      <trkpt lat="45.49975" lon="4.61221">
        <ele>417</ele>
        <time>2014-11-14T20:29:20Z</time>
      </trkpt>
      <trkpt lat="45.49971" lon="4.61214">
        <ele>417</ele>
        <time>2014-11-14T20:29:23Z</time>
      </trkpt>
      <trkpt lat="45.49968" lon="4.61204">
        <ele>417</ele>
        <time>2014-11-14T20:29:26Z</time>
      </trkpt>
      <trkpt lat="45.49967" lon="4.61194">
        <ele>417</ele>
        <time>2014-11-14T20:29:29Z</time>
      </trkpt>
      <trkpt lat="45.49967" lon="4.61182">
        <ele>417</ele>
        <time>2014-11-14T20:29:32Z</time>
      </trkpt>
      <trkpt lat="45.49968" lon="4.61171">
        <ele>417</ele>
        <time>2014-11-14T20:29:35Z</time>
      </trkpt>
      <trkpt lat="45.49971" lon="4.61162">
        <ele>417</ele>
        <time>2014-11-14T20:29:38Z</time>
      </trkpt>
      <trkpt lat="45.49971" lon="4.61152">
        <ele>417</ele>
        <time>2014-11-14T20:29:41Z</time>
      </trkpt>
      <trkpt lat="45.49971" lon="4.6114">
        <ele>417</ele>
        <time>2014-11-14T20:29:44Z</time>
      </trkpt>
      <trkpt lat="45.49969" lon="4.61131">
        <ele>417</ele>
        <time>2014-11-14T20:29:47Z</time>
      </trkpt>
      <trkpt lat="45.49968" lon="4.6112">
        <ele>417</ele>
        <time>2014-11-14T20:29:50Z</time>
      </trkpt>
      <trkpt lat="45.49966" lon="4.61111">
        <ele>417</ele>
        <time>2014-11-14T20:29:53Z</time>
      </trkpt>
      <trkpt lat="45.49962" lon="4.61103">
        <ele>419</ele>
        <time>2014-11-14T20:29:56Z</time>
      </trkpt>
      <trkpt lat="45.49958" lon="4.61097">
        <ele>419</ele>
        <time>2014-11-14T20:29:59Z</time>
      </trkpt>
      <trkpt lat="45.49953" lon="4.61089">
        <ele>419</ele>
        <time>2014-11-14T20:30:02Z</time>
      </trkpt>
      <trkpt lat="45.4995" lon="4.6108">
        <ele>419</ele>
        <time>2014-11-14T20:30:05Z</time>
      </trkpt>
      <trkpt lat="45.49946" lon="4.61071">
        <ele>419</ele>
        <time>2014-11-14T20:30:08Z</time>
      </trkpt>
      <trkpt lat="45.49942" lon="4.61063">
        <ele>419</ele>
        <time>2014-11-14T20:30:11Z</time>
      </trkpt>
      <trkpt lat="45.49938" lon="4.61055">
        <ele>419</ele>
        <time>2014-11-14T20:30:14Z</time>
      </trkpt>
      <trkpt lat="45.49935" lon="4.61048">
        <ele>419</ele>
        <time>2014-11-14T20:30:17Z</time>
      </trkpt>
      <trkpt lat="45.49929" lon="4.61042">
        <ele>419</ele>
        <time>2014-11-14T20:30:20Z</time>
      </trkpt>
      <trkpt lat="45.49924" lon="4.61036">
        <ele>419</ele>
        <time>2014-11-14T20:30:23Z</time>
      </trkpt>
      <trkpt lat="45.49918" lon="4.61031">
        <ele>419</ele>
        <time>2014-11-14T20:30:26Z</time>
      </trkpt>
      <trkpt lat="45.49915" lon="4.61024">
        <ele>420</ele>
        <time>2014-11-14T20:30:29Z</time>
      </trkpt>
      <trkpt lat="45.4991" lon="4.61016">
        <ele>422</ele>
        <time>2014-11-14T20:30:32Z</time>
      </trkpt>
      <trkpt lat="45.49905" lon="4.61011">
        <ele>424</ele>
        <time>2014-11-14T20:30:35Z</time>
      </trkpt>
      <trkpt lat="45.49899" lon="4.61004">
        <ele>424</ele>
        <time>2014-11-14T20:30:38Z</time>
      </trkpt>
      <trkpt lat="45.49895" lon="4.60996">
        <ele>424</ele>
        <time>2014-11-14T20:30:41Z</time>
      </trkpt>
      <trkpt lat="45.49892" lon="4.60988">
        <ele>424</ele>
        <time>2014-11-14T20:30:44Z</time>
      </trkpt>
      <trkpt lat="45.49887" lon="4.60978">
        <ele>424</ele>
        <time>2014-11-14T20:30:47Z</time>
      </trkpt>
      <trkpt lat="45.49882" lon="4.6097">
        <ele>424</ele>
        <time>2014-11-14T20:30:50Z</time>
      </trkpt>
      <trkpt lat="45.49878" lon="4.60962">
        <ele>424</ele>
        <time>2014-11-14T20:30:53Z</time>
      </trkpt>
      <trkpt lat="45.49873" lon="4.60953">
        <ele>425</ele>
        <time>2014-11-14T20:30:56Z</time>
      </trkpt>
      <trkpt lat="45.49871" lon="4.60943">
        <ele>426</ele>
        <time>2014-11-14T20:30:59Z</time>
      </trkpt>
      <trkpt lat="45.49868" lon="4.60933">
        <ele>426</ele>
        <time>2014-11-14T20:31:02Z</time>
      </trkpt>
      <trkpt lat="45.49866" lon="4.60923">
        <ele>426</ele>
        <time>2014-11-14T20:31:05Z</time>
      </trkpt>
      <trkpt lat="45.49865" lon="4.60914">
        <ele>426</ele>
        <time>2014-11-14T20:31:08Z</time>
      </trkpt>
      <trkpt lat="45.49863" lon="4.60904">
        <ele>426</ele>
        <time>2014-11-14T20:31:11Z</time>
      </trkpt>
      <trkpt lat="45.49862" lon="4.60895">
        <ele>426</ele>
        <time>2014-11-14T20:31:14Z</time>
      </trkpt>
      <trkpt lat="45.4986" lon="4.60886">
        <ele>426</ele>
        <time>2014-11-14T20:31:17Z</time>
      </trkpt>
      <trkpt lat="45.49859" lon="4.60876">
        <ele>426</ele>
        <time>2014-11-14T20:31:20Z</time>
      </trkpt>
      <trkpt lat="45.49857" lon="4.60866">
        <ele>426</ele>
        <time>2014-11-14T20:31:23Z</time>
      </trkpt>
      <trkpt lat="45.49856" lon="4.60856">
        <ele>426</ele>
        <time>2014-11-14T20:31:26Z</time>
      </trkpt>
      <trkpt lat="45.49855" lon="4.60846">
        <ele>426</ele>
        <time>2014-11-14T20:31:29Z</time>
      </trkpt>
      <trkpt lat="45.49853" lon="4.60836">
        <ele>426</ele>
        <time>2014-11-14T20:31:32Z</time>
      </trkpt>
      <trkpt lat="45.49852" lon="4.60826">
        <ele>426</ele>
        <time>2014-11-14T20:31:35Z</time>
      </trkpt>
      <trkpt lat="45.4985" lon="4.60816">
        <ele>426</ele>
        <time>2014-11-14T20:31:38Z</time>
      </trkpt>
      <trkpt lat="45.49849" lon="4.60807">
        <ele>426</ele>
        <time>2014-11-14T20:31:41Z</time>
      </trkpt>
      <trkpt lat="45.49848" lon="4.60798">
        <ele>426</ele>
        <time>2014-11-14T20:31:44Z</time>
      </trkpt>
      <trkpt lat="45.49849" lon="4.6079">
        <ele>426</ele>
        <time>2014-11-14T20:31:47Z</time>
      </trkpt>
      <trkpt lat="45.49849" lon="4.60781">
        <ele>426</ele>
        <time>2014-11-14T20:31:50Z</time>
      </trkpt>
      <trkpt lat="45.49847" lon="4.60772">
        <ele>426</ele>
        <time>2014-11-14T20:31:53Z</time>
      </trkpt>
      <trkpt lat="45.49845" lon="4.60765">
        <ele>425</ele>
        <time>2014-11-14T20:31:56Z</time>
      </trkpt>
      <trkpt lat="45.49842" lon="4.60757">
        <ele>424</ele>
        <time>2014-11-14T20:31:59Z</time>
      </trkpt>
      <trkpt lat="45.49838" lon="4.60749">
        <ele>423</ele>
        <time>2014-11-14T20:32:02Z</time>
      </trkpt>
      <trkpt lat="45.49833" lon="4.60741">
        <ele>422</ele>
        <time>2014-11-14T20:32:05Z</time>
      </trkpt>
      <trkpt lat="45.49828" lon="4.60734">
        <ele>422</ele>
        <time>2014-11-14T20:32:08Z</time>
      </trkpt>
      <trkpt lat="45.49823" lon="4.60728">
        <ele>421</ele>
        <time>2014-11-14T20:32:11Z</time>
      </trkpt>
      <trkpt lat="45.49818" lon="4.6072">
        <ele>420</ele>
        <time>2014-11-14T20:32:14Z</time>
      </trkpt>
      <trkpt lat="45.49813" lon="4.60715">
        <ele>419</ele>
        <time>2014-11-14T20:32:17Z</time>
      </trkpt>
      <trkpt lat="45.49808" lon="4.60709">
        <ele>418</ele>
        <time>2014-11-14T20:32:20Z</time>
      </trkpt>
      <trkpt lat="45.49802" lon="4.60704">
        <ele>417</ele>
        <time>2014-11-14T20:32:23Z</time>
      </trkpt>
      <trkpt lat="45.49799" lon="4.60698">
        <ele>416</ele>
        <time>2014-11-14T20:32:26Z</time>
      </trkpt>
      <trkpt lat="45.49794" lon="4.6069">
        <ele>416</ele>
        <time>2014-11-14T20:32:29Z</time>
      </trkpt>
      <trkpt lat="45.49792" lon="4.60683">
        <ele>415</ele>
        <time>2014-11-14T20:32:32Z</time>
      </trkpt>
      <trkpt lat="45.49789" lon="4.60677">
        <ele>414</ele>
        <time>2014-11-14T20:32:35Z</time>
      </trkpt>
      <trkpt lat="45.49787" lon="4.60671">
        <ele>413</ele>
        <time>2014-11-14T20:32:38Z</time>
      </trkpt>
      <trkpt lat="45.49785" lon="4.60665">
        <ele>412</ele>
        <time>2014-11-14T20:32:42Z</time>
      </trkpt>
      <trkpt lat="45.49784" lon="4.60659">
        <ele>412</ele>
        <time>2014-11-14T20:32:45Z</time>
      </trkpt>
      <trkpt lat="45.49782" lon="4.60653">
        <ele>411</ele>
        <time>2014-11-14T20:32:48Z</time>
      </trkpt>
      <trkpt lat="45.49779" lon="4.60648">
        <ele>410</ele>
        <time>2014-11-14T20:32:51Z</time>
      </trkpt>
      <trkpt lat="45.49775" lon="4.60643">
        <ele>410</ele>
        <time>2014-11-14T20:32:54Z</time>
      </trkpt>
      <trkpt lat="45.49772" lon="4.60638">
        <ele>409</ele>
        <time>2014-11-14T20:32:57Z</time>
      </trkpt>
      <trkpt lat="45.4977" lon="4.60631">
        <ele>409</ele>
        <time>2014-11-14T20:33:00Z</time>
      </trkpt>
      <trkpt lat="45.49766" lon="4.60624">
        <ele>408</ele>
        <time>2014-11-14T20:33:03Z</time>
      </trkpt>
      <trkpt lat="45.49762" lon="4.60618">
        <ele>407</ele>
        <time>2014-11-14T20:33:06Z</time>
      </trkpt>
      <trkpt lat="45.49759" lon="4.60612">
        <ele>406</ele>
        <time>2014-11-14T20:33:09Z</time>
      </trkpt>
      <trkpt lat="45.49756" lon="4.60605">
        <ele>406</ele>
        <time>2014-11-14T20:33:12Z</time>
      </trkpt>
      <trkpt lat="45.49752" lon="4.60599">
        <ele>405</ele>
        <time>2014-11-14T20:33:15Z</time>
      </trkpt>
      <trkpt lat="45.4975" lon="4.60593">
        <ele>404</ele>
        <time>2014-11-14T20:33:18Z</time>
      </trkpt>
      <trkpt lat="45.49747" lon="4.60588">
        <ele>403</ele>
        <time>2014-11-14T20:33:21Z</time>
      </trkpt>
      <trkpt lat="45.49743" lon="4.60581">
        <ele>402</ele>
        <time>2014-11-14T20:33:24Z</time>
      </trkpt>
      <trkpt lat="45.49739" lon="4.60574">
        <ele>401</ele>
        <time>2014-11-14T20:33:27Z</time>
      </trkpt>
      <trkpt lat="45.49735" lon="4.60568">
        <ele>400</ele>
        <time>2014-11-14T20:33:30Z</time>
      </trkpt>
      <trkpt lat="45.49732" lon="4.60561">
        <ele>400</ele>
        <time>2014-11-14T20:33:33Z</time>
      </trkpt>
      <trkpt lat="45.49729" lon="4.60556">
        <ele>399</ele>
        <time>2014-11-14T20:33:36Z</time>
      </trkpt>
      <trkpt lat="45.49724" lon="4.60554">
        <ele>398</ele>
        <time>2014-11-14T20:33:39Z</time>
      </trkpt>
      <trkpt lat="45.49717" lon="4.6055">
        <ele>395</ele>
        <time>2014-11-14T20:33:43Z</time>
      </trkpt>
      <trkpt lat="45.49712" lon="4.60547">
        <ele>394</ele>
        <time>2014-11-14T20:33:46Z</time>
      </trkpt>
      <trkpt lat="45.49708" lon="4.60544">
        <ele>394</ele>
        <time>2014-11-14T20:33:49Z</time>
      </trkpt>
      <trkpt lat="45.49703" lon="4.60537">
        <ele>392</ele>
        <time>2014-11-14T20:33:53Z</time>
      </trkpt>
      <trkpt lat="45.49699" lon="4.60531">
        <ele>391</ele>
        <time>2014-11-14T20:33:56Z</time>
      </trkpt>
      <trkpt lat="45.49695" lon="4.60525">
        <ele>391</ele>
        <time>2014-11-14T20:33:59Z</time>
      </trkpt>
      <trkpt lat="45.4969" lon="4.60518">
        <ele>390</ele>
        <time>2014-11-14T20:34:03Z</time>
      </trkpt>
      <trkpt lat="45.49686" lon="4.60512">
        <ele>389</ele>
        <time>2014-11-14T20:34:06Z</time>
      </trkpt>
      <trkpt lat="45.49682" lon="4.60508">
        <ele>389</ele>
        <time>2014-11-14T20:34:10Z</time>
      </trkpt>
      <trkpt lat="45.4968" lon="4.60502">
        <ele>389</ele>
        <time>2014-11-14T20:34:13Z</time>
      </trkpt>
      <trkpt lat="45.49676" lon="4.60495">
        <ele>387</ele>
        <time>2014-11-14T20:34:16Z</time>
      </trkpt>
      <trkpt lat="45.49672" lon="4.60487">
        <ele>384</ele>
        <time>2014-11-14T20:34:20Z</time>
      </trkpt>
      <trkpt lat="45.49668" lon="4.60481">
        <ele>384</ele>
        <time>2014-11-14T20:34:23Z</time>
      </trkpt>
      <trkpt lat="45.49662" lon="4.60474">
        <ele>383</ele>
        <time>2014-11-14T20:34:27Z</time>
      </trkpt>
      <trkpt lat="45.49658" lon="4.6047">
        <ele>381</ele>
        <time>2014-11-14T20:34:30Z</time>
      </trkpt>
      <trkpt lat="45.49654" lon="4.60464">
        <ele>380</ele>
        <time>2014-11-14T20:34:33Z</time>
      </trkpt>
      <trkpt lat="45.49648" lon="4.6046">
        <ele>380</ele>
        <time>2014-11-14T20:34:37Z</time>
      </trkpt>
      <trkpt lat="45.49644" lon="4.60455">
        <ele>380</ele>
        <time>2014-11-14T20:34:40Z</time>
      </trkpt>
      <trkpt lat="45.49639" lon="4.60451">
        <ele>379</ele>
        <time>2014-11-14T20:34:43Z</time>
      </trkpt>
      <trkpt lat="45.49633" lon="4.60446">
        <ele>378</ele>
        <time>2014-11-14T20:34:47Z</time>
      </trkpt>
      <trkpt lat="45.49628" lon="4.6044">
        <ele>376</ele>
        <time>2014-11-14T20:34:51Z</time>
      </trkpt>
      <trkpt lat="45.49623" lon="4.60436">
        <ele>376</ele>
        <time>2014-11-14T20:34:54Z</time>
      </trkpt>
      <trkpt lat="45.49617" lon="4.60428">
        <ele>376</ele>
        <time>2014-11-14T20:34:58Z</time>
      </trkpt>
      <trkpt lat="45.49609" lon="4.6042">
        <ele>376</ele>
        <time>2014-11-14T20:35:02Z</time>
      </trkpt>
      <trkpt lat="45.49602" lon="4.60416">
        <ele>376</ele>
        <time>2014-11-14T20:35:05Z</time>
      </trkpt>
      <trkpt lat="45.49598" lon="4.60413">
        <ele>376</ele>
        <time>2014-11-14T20:35:09Z</time>
      </trkpt>
      <trkpt lat="45.49593" lon="4.6041">
        <ele>375</ele>
        <time>2014-11-14T20:35:13Z</time>
      </trkpt>
      <trkpt lat="45.49589" lon="4.60408">
        <ele>374</ele>
        <time>2014-11-14T20:35:16Z</time>
      </trkpt>
      <trkpt lat="45.49584" lon="4.60405">
        <ele>373</ele>
        <time>2014-11-14T20:35:21Z</time>
      </trkpt>
      <trkpt lat="45.49579" lon="4.60404">
        <ele>373</ele>
        <time>2014-11-14T20:35:24Z</time>
      </trkpt>
      <trkpt lat="45.49574" lon="4.604">
        <ele>373</ele>
        <time>2014-11-14T20:35:27Z</time>
      </trkpt>
      <trkpt lat="45.49568" lon="4.60397">
        <ele>373</ele>
        <time>2014-11-14T20:35:30Z</time>
      </trkpt>
      <trkpt lat="45.49559" lon="4.60393">
        <ele>372</ele>
        <time>2014-11-14T20:35:34Z</time>
      </trkpt>
      <trkpt lat="45.49552" lon="4.6039">
        <ele>371</ele>
        <time>2014-11-14T20:35:37Z</time>
      </trkpt>
      <trkpt lat="45.49544" lon="4.60385">
        <ele>370</ele>
        <time>2014-11-14T20:35:41Z</time>
      </trkpt>
      <trkpt lat="45.49537" lon="4.6038">
        <ele>369</ele>
        <time>2014-11-14T20:35:44Z</time>
      </trkpt>
      <trkpt lat="45.4953" lon="4.60377">
        <ele>368</ele>
        <time>2014-11-14T20:35:47Z</time>
      </trkpt>
      <trkpt lat="45.49524" lon="4.60373">
        <ele>366</ele>
        <time>2014-11-14T20:35:50Z</time>
      </trkpt>
      <trkpt lat="45.49513" lon="4.6037">
        <ele>363</ele>
        <time>2014-11-14T20:35:54Z</time>
      </trkpt>
      <trkpt lat="45.49506" lon="4.60366">
        <ele>360</ele>
        <time>2014-11-14T20:35:57Z</time>
      </trkpt>
      <trkpt lat="45.49499" lon="4.60362">
        <ele>360</ele>
        <time>2014-11-14T20:36:00Z</time>
      </trkpt>
      <trkpt lat="45.49493" lon="4.60358">
        <ele>360</ele>
        <time>2014-11-14T20:36:03Z</time>
      </trkpt>
      <trkpt lat="45.49485" lon="4.60352">
        <ele>360</ele>
        <time>2014-11-14T20:36:07Z</time>
      </trkpt>
      <trkpt lat="45.49479" lon="4.60348">
        <ele>360</ele>
        <time>2014-11-14T20:36:10Z</time>
      </trkpt>
      <trkpt lat="45.49472" lon="4.60345">
        <ele>360</ele>
        <time>2014-11-14T20:36:13Z</time>
      </trkpt>
      <trkpt lat="45.49464" lon="4.60338">
        <ele>361</ele>
        <time>2014-11-14T20:36:17Z</time>
      </trkpt>
      <trkpt lat="45.49457" lon="4.60335">
        <ele>361</ele>
        <time>2014-11-14T20:36:20Z</time>
      </trkpt>
      <trkpt lat="45.49451" lon="4.60331">
        <ele>361</ele>
        <time>2014-11-14T20:36:23Z</time>
      </trkpt>
      <trkpt lat="45.49445" lon="4.60325">
        <ele>361</ele>
        <time>2014-11-14T20:36:26Z</time>
      </trkpt>
      <trkpt lat="45.49441" lon="4.60319">
        <ele>361</ele>
        <time>2014-11-14T20:36:29Z</time>
      </trkpt>
      <trkpt lat="45.49434" lon="4.60316">
        <ele>361</ele>
        <time>2014-11-14T20:36:33Z</time>
      </trkpt>
      <trkpt lat="45.49427" lon="4.60311">
        <ele>361</ele>
        <time>2014-11-14T20:36:36Z</time>
      </trkpt>
      <trkpt lat="45.49421" lon="4.60308">
        <ele>362</ele>
        <time>2014-11-14T20:36:39Z</time>
      </trkpt>
      <trkpt lat="45.49414" lon="4.60305">
        <ele>362</ele>
        <time>2014-11-14T20:36:43Z</time>
      </trkpt>
      <trkpt lat="45.49409" lon="4.60303">
        <ele>364</ele>
        <time>2014-11-14T20:36:46Z</time>
      </trkpt>
      <trkpt lat="45.49402" lon="4.60304">
        <ele>365</ele>
        <time>2014-11-14T20:36:49Z</time>
      </trkpt>
      <trkpt lat="45.49395" lon="4.60302">
        <ele>367</ele>
        <time>2014-11-14T20:36:53Z</time>
      </trkpt>
      <trkpt lat="45.49391" lon="4.60298">
        <ele>370</ele>
        <time>2014-11-14T20:36:56Z</time>
      </trkpt>
      <trkpt lat="45.4939" lon="4.60291">
        <ele>374</ele>
        <time>2014-11-14T20:37:00Z</time>
      </trkpt>
      <trkpt lat="45.49384" lon="4.60285">
        <ele>378</ele>
        <time>2014-11-14T20:37:04Z</time>
      </trkpt>
      <trkpt lat="45.49381" lon="4.60279">
        <ele>379</ele>
        <time>2014-11-14T20:37:07Z</time>
      </trkpt>
      <trkpt lat="45.49376" lon="4.60275">
        <ele>380</ele>
        <time>2014-11-14T20:37:10Z</time>
      </trkpt>
      <trkpt lat="45.49371" lon="4.60272">
        <ele>381</ele>
        <time>2014-11-14T20:37:13Z</time>
      </trkpt>
      <trkpt lat="45.49368" lon="4.6027">
        <ele>381</ele>
        <time>2014-11-14T20:37:16Z</time>
      </trkpt>
      <trkpt lat="45.49366" lon="4.60267">
        <ele>381</ele>
        <time>2014-11-14T20:37:20Z</time>
      </trkpt>
      <trkpt lat="45.49364" lon="4.60263">
        <ele>381</ele>
        <time>2014-11-14T20:37:25Z</time>
      </trkpt>
      <trkpt lat="45.49363" lon="4.6026">
        <ele>381</ele>
        <time>2014-11-14T20:37:33Z</time>
      </trkpt>
      <trkpt lat="45.49362" lon="4.60262">
        <ele>381</ele>
        <time>2014-11-14T20:37:38Z</time>
      </trkpt>
      <trkpt lat="45.49361" lon="4.60263">
        <ele>381</ele>
        <time>2014-11-14T20:37:41Z</time>
      </trkpt>
      <trkpt lat="45.4936" lon="4.60264">
        <ele>381</ele>
        <time>2014-11-14T20:37:51Z</time>
      </trkpt>
      <trkpt lat="45.49359" lon="4.60263">
        <ele>381</ele>
        <time>2014-11-14T20:37:57Z</time>
      </trkpt>
      <trkpt lat="45.49358" lon="4.60263">
        <ele>382</ele>
        <time>2014-11-14T20:38:00Z</time>
      </trkpt>
      <trkpt lat="45.49356" lon="4.60262">
        <ele>383</ele>
        <time>2014-11-14T20:38:03Z</time>
      </trkpt>
      <trkpt lat="45.49353" lon="4.6026">
        <ele>383</ele>
        <time>2014-11-14T20:38:07Z</time>
      </trkpt>
      <trkpt lat="45.4935" lon="4.60258">
        <ele>384</ele>
        <time>2014-11-14T20:38:11Z</time>
      </trkpt>
      <trkpt lat="45.49348" lon="4.60255">
        <ele>385</ele>
        <time>2014-11-14T20:38:15Z</time>
      </trkpt>
      <trkpt lat="45.4935" lon="4.60252">
        <ele>387</ele>
        <time>2014-11-14T20:38:19Z</time>
      </trkpt>
      <trkpt lat="45.49353" lon="4.60248">
        <ele>387</ele>
        <time>2014-11-14T20:38:23Z</time>
      </trkpt>
      <trkpt lat="45.49356" lon="4.60243">
        <ele>387</ele>
        <time>2014-11-14T20:38:27Z</time>
      </trkpt>
      <trkpt lat="45.4936" lon="4.6024">
        <ele>386</ele>
        <time>2014-11-14T20:38:31Z</time>
      </trkpt>
      <trkpt lat="45.49363" lon="4.60238">
        <ele>386</ele>
        <time>2014-11-14T20:38:35Z</time>
      </trkpt>
      <trkpt lat="45.49367" lon="4.60235">
        <ele>386</ele>
        <time>2014-11-14T20:38:38Z</time>
      </trkpt>
      <trkpt lat="45.4937" lon="4.60233">
        <ele>386</ele>
        <time>2014-11-14T20:38:41Z</time>
      </trkpt>
      <trkpt lat="45.49375" lon="4.60232">
        <ele>386</ele>
        <time>2014-11-14T20:38:45Z</time>
      </trkpt>
      <trkpt lat="45.49377" lon="4.60234">
        <ele>386</ele>
        <time>2014-11-14T20:38:49Z</time>
      </trkpt>
      <trkpt lat="45.4938" lon="4.60235">
        <ele>386</ele>
        <time>2014-11-14T20:38:53Z</time>
      </trkpt>
      <trkpt lat="45.49384" lon="4.60234">
        <ele>386</ele>
        <time>2014-11-14T20:38:57Z</time>
      </trkpt>
      <trkpt lat="45.49386" lon="4.60231">
        <ele>386</ele>
        <time>2014-11-14T20:39:02Z</time>
      </trkpt>
      <trkpt lat="45.49388" lon="4.60231">
        <ele>386</ele>
        <time>2014-11-14T20:39:05Z</time>
      </trkpt>
      <trkpt lat="45.49392" lon="4.60231">
        <ele>386</ele>
        <time>2014-11-14T20:39:09Z</time>
      </trkpt>
      <trkpt lat="45.49395" lon="4.60231">
        <ele>386</ele>
        <time>2014-11-14T20:39:13Z</time>
      </trkpt>
      <trkpt lat="45.49398" lon="4.60231">
        <ele>386</ele>
        <time>2014-11-14T20:39:17Z</time>
      </trkpt>
      <trkpt lat="45.49401" lon="4.6023">
        <ele>386</ele>
        <time>2014-11-14T20:39:21Z</time>
      </trkpt>
      <trkpt lat="45.49404" lon="4.6023">
        <ele>386</ele>
        <time>2014-11-14T20:39:27Z</time>
      </trkpt>
      <trkpt lat="45.49407" lon="4.60231">
        <ele>386</ele>
        <time>2014-11-14T20:39:31Z</time>
      </trkpt>
      <trkpt lat="45.49409" lon="4.60232">
        <ele>386</ele>
        <time>2014-11-14T20:39:34Z</time>
      </trkpt>
      <trkpt lat="45.49412" lon="4.60232">
        <ele>386</ele>
        <time>2014-11-14T20:39:38Z</time>
      </trkpt>
      <trkpt lat="45.49414" lon="4.60232">
        <ele>386</ele>
        <time>2014-11-14T20:39:41Z</time>
      </trkpt>
      <trkpt lat="45.49417" lon="4.60232">
        <ele>386</ele>
        <time>2014-11-14T20:39:45Z</time>
      </trkpt>
      <trkpt lat="45.4942" lon="4.60231">
        <ele>386</ele>
        <time>2014-11-14T20:39:48Z</time>
      </trkpt>
      <trkpt lat="45.49424" lon="4.60229">
        <ele>386</ele>
        <time>2014-11-14T20:39:51Z</time>
      </trkpt>
      <trkpt lat="45.49427" lon="4.60227">
        <ele>386</ele>
        <time>2014-11-14T20:39:55Z</time>
      </trkpt>
      <trkpt lat="45.49431" lon="4.60225">
        <ele>387</ele>
        <time>2014-11-14T20:39:59Z</time>
      </trkpt>
      <trkpt lat="45.49435" lon="4.60222">
        <ele>388</ele>
        <time>2014-11-14T20:40:03Z</time>
      </trkpt>
      <trkpt lat="45.49439" lon="4.60219">
        <ele>388</ele>
        <time>2014-11-14T20:40:07Z</time>
      </trkpt>
      <trkpt lat="45.49442" lon="4.60217">
        <ele>389</ele>
        <time>2014-11-14T20:40:11Z</time>
      </trkpt>
      <trkpt lat="45.49445" lon="4.60214">
        <ele>390</ele>
        <time>2014-11-14T20:40:15Z</time>
      </trkpt>
      <trkpt lat="45.49448" lon="4.6021">
        <ele>391</ele>
        <time>2014-11-14T20:40:19Z</time>
      </trkpt>
      <trkpt lat="45.49451" lon="4.60208">
        <ele>391</ele>
        <time>2014-11-14T20:40:22Z</time>
      </trkpt>
      <trkpt lat="45.49453" lon="4.60206">
        <ele>392</ele>
        <time>2014-11-14T20:40:26Z</time>
      </trkpt>
      <trkpt lat="45.49457" lon="4.60204">
        <ele>393</ele>
        <time>2014-11-14T20:40:30Z</time>
      </trkpt>
      <trkpt lat="45.49459" lon="4.602">
        <ele>393</ele>
        <time>2014-11-14T20:40:34Z</time>
      </trkpt>
      <trkpt lat="45.49463" lon="4.60198">
        <ele>394</ele>
        <time>2014-11-14T20:40:38Z</time>
      </trkpt>
      <trkpt lat="45.49466" lon="4.60196">
        <ele>395</ele>
        <time>2014-11-14T20:40:43Z</time>
      </trkpt>
      <trkpt lat="45.49469" lon="4.60194">
        <ele>396</ele>
        <time>2014-11-14T20:40:47Z</time>
      </trkpt>
      <trkpt lat="45.49473" lon="4.60193">
        <ele>396</ele>
        <time>2014-11-14T20:40:51Z</time>
      </trkpt>
      <trkpt lat="45.49477" lon="4.6019">
        <ele>397</ele>
        <time>2014-11-14T20:40:55Z</time>
      </trkpt>
      <trkpt lat="45.4948" lon="4.6019">
        <ele>398</ele>
        <time>2014-11-14T20:40:58Z</time>
      </trkpt>
      <trkpt lat="45.49483" lon="4.60188">
        <ele>400</ele>
        <time>2014-11-14T20:41:02Z</time>
      </trkpt>
      <trkpt lat="45.49487" lon="4.60187">
        <ele>402</ele>
        <time>2014-11-14T20:41:06Z</time>
      </trkpt>
      <trkpt lat="45.4949" lon="4.60186">
        <ele>402</ele>
        <time>2014-11-14T20:41:10Z</time>
      </trkpt>
      <trkpt lat="45.49493" lon="4.60186">
        <ele>402</ele>
        <time>2014-11-14T20:41:13Z</time>
      </trkpt>
      <trkpt lat="45.49497" lon="4.60186">
        <ele>403</ele>
        <time>2014-11-14T20:41:16Z</time>
      </trkpt>
      <trkpt lat="45.495" lon="4.60185">
        <ele>403</ele>
        <time>2014-11-14T20:41:19Z</time>
      </trkpt>
      <trkpt lat="45.49504" lon="4.60184">
        <ele>403</ele>
        <time>2014-11-14T20:41:22Z</time>
      </trkpt>
      <trkpt lat="45.49508" lon="4.60184">
        <ele>403</ele>
        <time>2014-11-14T20:41:25Z</time>
      </trkpt>
      <trkpt lat="45.49514" lon="4.60183">
        <ele>403</ele>
        <time>2014-11-14T20:41:28Z</time>
      </trkpt>
      <trkpt lat="45.49522" lon="4.60182">
        <ele>403</ele>
        <time>2014-11-14T20:41:31Z</time>
      </trkpt>
      <trkpt lat="45.49528" lon="4.60181">
        <ele>403</ele>
        <time>2014-11-14T20:41:34Z</time>
      </trkpt>
      <trkpt lat="45.49532" lon="4.60179">
        <ele>403</ele>
        <time>2014-11-14T20:41:37Z</time>
      </trkpt>
      <trkpt lat="45.4954" lon="4.60177">
        <ele>404</ele>
        <time>2014-11-14T20:41:40Z</time>
      </trkpt>
      <trkpt lat="45.49542" lon="4.60172">
        <ele>404</ele>
        <time>2014-11-14T20:41:43Z</time>
      </trkpt>
      <trkpt lat="45.49543" lon="4.60165">
        <ele>404</ele>
        <time>2014-11-14T20:41:46Z</time>
      </trkpt>
      <trkpt lat="45.49543" lon="4.60159">
        <ele>405</ele>
        <time>2014-11-14T20:41:49Z</time>
      </trkpt>
      <trkpt lat="45.49541" lon="4.60148">
        <ele>406</ele>
        <time>2014-11-14T20:41:53Z</time>
      </trkpt>
      <trkpt lat="45.4954" lon="4.60139">
        <ele>407</ele>
        <time>2014-11-14T20:41:56Z</time>
      </trkpt>
      <trkpt lat="45.4954" lon="4.60131">
        <ele>408</ele>
        <time>2014-11-14T20:41:59Z</time>
      </trkpt>
      <trkpt lat="45.4954" lon="4.60124">
        <ele>408</ele>
        <time>2014-11-14T20:42:02Z</time>
      </trkpt>
      <trkpt lat="45.4954" lon="4.60117">
        <ele>409</ele>
        <time>2014-11-14T20:42:05Z</time>
      </trkpt>
      <trkpt lat="45.4954" lon="4.6011">
        <ele>409</ele>
        <time>2014-11-14T20:42:08Z</time>
      </trkpt>
      <trkpt lat="45.4954" lon="4.60103">
        <ele>410</ele>
        <time>2014-11-14T20:42:11Z</time>
      </trkpt>
      <trkpt lat="45.49541" lon="4.60095">
        <ele>410</ele>
        <time>2014-11-14T20:42:14Z</time>
      </trkpt>
      <trkpt lat="45.49542" lon="4.60088">
        <ele>410</ele>
        <time>2014-11-14T20:42:17Z</time>
      </trkpt>
      <trkpt lat="45.49542" lon="4.6008">
        <ele>410</ele>
        <time>2014-11-14T20:42:20Z</time>
      </trkpt>
      <trkpt lat="45.49542" lon="4.60072">
        <ele>410</ele>
        <time>2014-11-14T20:42:23Z</time>
      </trkpt>
      <trkpt lat="45.49541" lon="4.60065">
        <ele>411</ele>
        <time>2014-11-14T20:42:26Z</time>
      </trkpt>
      <trkpt lat="45.49541" lon="4.60058">
        <ele>411</ele>
        <time>2014-11-14T20:42:29Z</time>
      </trkpt>
      <trkpt lat="45.49541" lon="4.60051">
        <ele>411</ele>
        <time>2014-11-14T20:42:32Z</time>
      </trkpt>
      <trkpt lat="45.49541" lon="4.60044">
        <ele>411</ele>
        <time>2014-11-14T20:42:35Z</time>
      </trkpt>
      <trkpt lat="45.4954" lon="4.60037">
        <ele>411</ele>
        <time>2014-11-14T20:42:38Z</time>
      </trkpt>
      <trkpt lat="45.49539" lon="4.60029">
        <ele>412</ele>
        <time>2014-11-14T20:42:41Z</time>
      </trkpt>
      <trkpt lat="45.49539" lon="4.60022">
        <ele>413</ele>
        <time>2014-11-14T20:42:44Z</time>
      </trkpt>
      <trkpt lat="45.49538" lon="4.60016">
        <ele>414</ele>
        <time>2014-11-14T20:42:47Z</time>
      </trkpt>
      <trkpt lat="45.49537" lon="4.60009">
        <ele>415</ele>
        <time>2014-11-14T20:42:50Z</time>
      </trkpt>
      <trkpt lat="45.49536" lon="4.60003">
        <ele>416</ele>
        <time>2014-11-14T20:42:53Z</time>
      </trkpt>
      <trkpt lat="45.49535" lon="4.59997">
        <ele>417</ele>
        <time>2014-11-14T20:42:56Z</time>
      </trkpt>
      <trkpt lat="45.49534" lon="4.5999">
        <ele>418</ele>
        <time>2014-11-14T20:42:59Z</time>
      </trkpt>
      <trkpt lat="45.49534" lon="4.59984">
        <ele>419</ele>
        <time>2014-11-14T20:43:02Z</time>
      </trkpt>
      <trkpt lat="45.49533" lon="4.59979">
        <ele>419</ele>
        <time>2014-11-14T20:43:06Z</time>
      </trkpt>
      <trkpt lat="45.49533" lon="4.59978">
        <ele>420</ele>
        <time>2014-11-14T20:43:10Z</time>
      </trkpt>
      <trkpt lat="45.49535" lon="4.59979">
        <ele>420</ele>
        <time>2014-11-14T20:43:17Z</time>
      </trkpt>
      <trkpt lat="45.49536" lon="4.59978">
        <ele>420</ele>
        <time>2014-11-14T20:43:33Z</time>
      </trkpt>
      <trkpt lat="45.49539" lon="4.59977">
        <ele>420</ele>
        <time>2014-11-14T20:43:36Z</time>
      </trkpt>
      <trkpt lat="45.49544" lon="4.59977">
        <ele>420</ele>
        <time>2014-11-14T20:43:39Z</time>
      </trkpt>
      <trkpt lat="45.49551" lon="4.59978">
        <ele>420</ele>
        <time>2014-11-14T20:43:42Z</time>
      </trkpt>
      <trkpt lat="45.49558" lon="4.59978">
        <ele>420</ele>
        <time>2014-11-14T20:43:45Z</time>
      </trkpt>
      <trkpt lat="45.49567" lon="4.59977">
        <ele>420</ele>
        <time>2014-11-14T20:43:48Z</time>
      </trkpt>
      <trkpt lat="45.49576" lon="4.59976">
        <ele>420</ele>
        <time>2014-11-14T20:43:51Z</time>
      </trkpt>
      <trkpt lat="45.49584" lon="4.59972">
        <ele>420</ele>
        <time>2014-11-14T20:43:54Z</time>
      </trkpt>
      <trkpt lat="45.49593" lon="4.5997">
        <ele>420</ele>
        <time>2014-11-14T20:43:57Z</time>
      </trkpt>
      <trkpt lat="45.49602" lon="4.59968">
        <ele>420</ele>
        <time>2014-11-14T20:44:00Z</time>
      </trkpt>
      <trkpt lat="45.4961" lon="4.59966">
        <ele>420</ele>
        <time>2014-11-14T20:44:03Z</time>
      </trkpt>
      <trkpt lat="45.49618" lon="4.59964">
        <ele>420</ele>
        <time>2014-11-14T20:44:06Z</time>
      </trkpt>
      <trkpt lat="45.49627" lon="4.59964">
        <ele>420</ele>
        <time>2014-11-14T20:44:09Z</time>
      </trkpt>
      <trkpt lat="45.49635" lon="4.59962">
        <ele>420</ele>
        <time>2014-11-14T20:44:12Z</time>
      </trkpt>
      <trkpt lat="45.49643" lon="4.59961">
        <ele>420</ele>
        <time>2014-11-14T20:44:15Z</time>
      </trkpt>
      <trkpt lat="45.49652" lon="4.5996">
        <ele>420</ele>
        <time>2014-11-14T20:44:18Z</time>
      </trkpt>
      <trkpt lat="45.49659" lon="4.59959">
        <ele>419</ele>
        <time>2014-11-14T20:44:21Z</time>
      </trkpt>
      <trkpt lat="45.49666" lon="4.5996">
        <ele>419</ele>
        <time>2014-11-14T20:44:24Z</time>
      </trkpt>
      <trkpt lat="45.49674" lon="4.59963">
        <ele>418</ele>
        <time>2014-11-14T20:44:27Z</time>
      </trkpt>
      <trkpt lat="45.4968" lon="4.59968">
        <ele>418</ele>
        <time>2014-11-14T20:44:30Z</time>
      </trkpt>
      <trkpt lat="45.49688" lon="4.59976">
        <ele>417</ele>
        <time>2014-11-14T20:44:34Z</time>
      </trkpt>
      <trkpt lat="45.49695" lon="4.59982">
        <ele>415</ele>
        <time>2014-11-14T20:44:37Z</time>
      </trkpt>
      <trkpt lat="45.49703" lon="4.59988">
        <ele>414</ele>
        <time>2014-11-14T20:44:40Z</time>
      </trkpt>
      <trkpt lat="45.49711" lon="4.59994">
        <ele>413</ele>
        <time>2014-11-14T20:44:43Z</time>
      </trkpt>
      <trkpt lat="45.49718" lon="4.59998">
        <ele>413</ele>
        <time>2014-11-14T20:44:46Z</time>
      </trkpt>
      <trkpt lat="45.49726" lon="4.60003">
        <ele>412</ele>
        <time>2014-11-14T20:44:49Z</time>
      </trkpt>
      <trkpt lat="45.49734" lon="4.60005">
        <ele>411</ele>
        <time>2014-11-14T20:44:52Z</time>
      </trkpt>
      <trkpt lat="45.49742" lon="4.60008">
        <ele>411</ele>
        <time>2014-11-14T20:44:55Z</time>
      </trkpt>
      <trkpt lat="45.4975" lon="4.6001">
        <ele>411</ele>
        <time>2014-11-14T20:44:58Z</time>
      </trkpt>
      <trkpt lat="45.49758" lon="4.60011">
        <ele>411</ele>
        <time>2014-11-14T20:45:01Z</time>
      </trkpt>
      <trkpt lat="45.49767" lon="4.6001">
        <ele>411</ele>
        <time>2014-11-14T20:45:04Z</time>
      </trkpt>
      <trkpt lat="45.49775" lon="4.6001">
        <ele>411</ele>
        <time>2014-11-14T20:45:07Z</time>
      </trkpt>
      <trkpt lat="45.49783" lon="4.60009">
        <ele>411</ele>
        <time>2014-11-14T20:45:10Z</time>
      </trkpt>
      <trkpt lat="45.49791" lon="4.60009">
        <ele>411</ele>
        <time>2014-11-14T20:45:13Z</time>
      </trkpt>
      <trkpt lat="45.49801" lon="4.60011">
        <ele>411</ele>
        <time>2014-11-14T20:45:16Z</time>
      </trkpt>
      <trkpt lat="45.49809" lon="4.60012">
        <ele>411</ele>
        <time>2014-11-14T20:45:19Z</time>
      </trkpt>
      <trkpt lat="45.49815" lon="4.60013">
        <ele>411</ele>
        <time>2014-11-14T20:45:22Z</time>
      </trkpt>
      <trkpt lat="45.49824" lon="4.60013">
        <ele>411</ele>
        <time>2014-11-14T20:45:25Z</time>
      </trkpt>
      <trkpt lat="45.49832" lon="4.60012">
        <ele>411</ele>
        <time>2014-11-14T20:45:28Z</time>
      </trkpt>
      <trkpt lat="45.4984" lon="4.60009">
        <ele>410</ele>
        <time>2014-11-14T20:45:31Z</time>
      </trkpt>
      <trkpt lat="45.49848" lon="4.60008">
        <ele>410</ele>
        <time>2014-11-14T20:45:34Z</time>
      </trkpt>
      <trkpt lat="45.49856" lon="4.60006">
        <ele>409</ele>
        <time>2014-11-14T20:45:37Z</time>
      </trkpt>
      <trkpt lat="45.49864" lon="4.60004">
        <ele>409</ele>
        <time>2014-11-14T20:45:40Z</time>
      </trkpt>
      <trkpt lat="45.49871" lon="4.60002">
        <ele>409</ele>
        <time>2014-11-14T20:45:43Z</time>
      </trkpt>
      <trkpt lat="45.49879" lon="4.59998">
        <ele>408</ele>
        <time>2014-11-14T20:45:46Z</time>
      </trkpt>
      <trkpt lat="45.49887" lon="4.59994">
        <ele>408</ele>
        <time>2014-11-14T20:45:49Z</time>
      </trkpt>
      <trkpt lat="45.49892" lon="4.59982">
        <ele>406</ele>
        <time>2014-11-14T20:45:53Z</time>
      </trkpt>
      <trkpt lat="45.4989" lon="4.59971">
        <ele>406</ele>
        <time>2014-11-14T20:45:56Z</time>
      </trkpt>
      <trkpt lat="45.49886" lon="4.5996">
        <ele>405</ele>
        <time>2014-11-14T20:45:59Z</time>
      </trkpt>
      <trkpt lat="45.49883" lon="4.59948">
        <ele>404</ele>
        <time>2014-11-14T20:46:02Z</time>
      </trkpt>
      <trkpt lat="45.49879" lon="4.59937">
        <ele>403</ele>
        <time>2014-11-14T20:46:05Z</time>
      </trkpt>
      <trkpt lat="45.49876" lon="4.59925">
        <ele>403</ele>
        <time>2014-11-14T20:46:08Z</time>
      </trkpt>
      <trkpt lat="45.49873" lon="4.59914">
        <ele>402</ele>
        <time>2014-11-14T20:46:11Z</time>
      </trkpt>
      <trkpt lat="45.49869" lon="4.59903">
        <ele>402</ele>
        <time>2014-11-14T20:46:14Z</time>
      </trkpt>
      <trkpt lat="45.49866" lon="4.59893">
        <ele>401</ele>
        <time>2014-11-14T20:46:17Z</time>
      </trkpt>
      <trkpt lat="45.49862" lon="4.59883">
        <ele>401</ele>
        <time>2014-11-14T20:46:20Z</time>
      </trkpt>
      <trkpt lat="45.49857" lon="4.59873">
        <ele>401</ele>
        <time>2014-11-14T20:46:23Z</time>
      </trkpt>
      <trkpt lat="45.49853" lon="4.59864">
        <ele>401</ele>
        <time>2014-11-14T20:46:26Z</time>
      </trkpt>
      <trkpt lat="45.49848" lon="4.59854">
        <ele>401</ele>
        <time>2014-11-14T20:46:29Z</time>
      </trkpt>
      <trkpt lat="45.49843" lon="4.59844">
        <ele>401</ele>
        <time>2014-11-14T20:46:32Z</time>
      </trkpt>
      <trkpt lat="45.49839" lon="4.59834">
        <ele>401</ele>
        <time>2014-11-14T20:46:35Z</time>
      </trkpt>
      <trkpt lat="45.49834" lon="4.59825">
        <ele>401</ele>
        <time>2014-11-14T20:46:38Z</time>
      </trkpt>
      <trkpt lat="45.4983" lon="4.59815">
        <ele>401</ele>
        <time>2014-11-14T20:46:41Z</time>
      </trkpt>
      <trkpt lat="45.49825" lon="4.59805">
        <ele>401</ele>
        <time>2014-11-14T20:46:44Z</time>
      </trkpt>
      <trkpt lat="45.49821" lon="4.59796">
        <ele>401</ele>
        <time>2014-11-14T20:46:47Z</time>
      </trkpt>
      <trkpt lat="45.49817" lon="4.59786">
        <ele>401</ele>
        <time>2014-11-14T20:46:50Z</time>
      </trkpt>
      <trkpt lat="45.49813" lon="4.59776">
        <ele>401</ele>
        <time>2014-11-14T20:46:53Z</time>
      </trkpt>
      <trkpt lat="45.49809" lon="4.59765">
        <ele>401</ele>
        <time>2014-11-14T20:46:56Z</time>
      </trkpt>
      <trkpt lat="45.49804" lon="4.59758">
        <ele>401</ele>
        <time>2014-11-14T20:46:59Z</time>
      </trkpt>
      <trkpt lat="45.498" lon="4.59748">
        <ele>400</ele>
        <time>2014-11-14T20:47:02Z</time>
      </trkpt>
      <trkpt lat="45.49796" lon="4.59739">
        <ele>398</ele>
        <time>2014-11-14T20:47:05Z</time>
      </trkpt>
      <trkpt lat="45.49793" lon="4.59728">
        <ele>398</ele>
        <time>2014-11-14T20:47:08Z</time>
      </trkpt>
      <trkpt lat="45.49788" lon="4.59714">
        <ele>397</ele>
        <time>2014-11-14T20:47:12Z</time>
      </trkpt>
      <trkpt lat="45.49783" lon="4.59704">
        <ele>396</ele>
        <time>2014-11-14T20:47:15Z</time>
      </trkpt>
      <trkpt lat="45.49779" lon="4.59693">
        <ele>395</ele>
        <time>2014-11-14T20:47:18Z</time>
      </trkpt>
      <trkpt lat="45.49775" lon="4.59684">
        <ele>395</ele>
        <time>2014-11-14T20:47:21Z</time>
      </trkpt>
      <trkpt lat="45.4977" lon="4.59674">
        <ele>395</ele>
        <time>2014-11-14T20:47:24Z</time>
      </trkpt>
      <trkpt lat="45.49766" lon="4.59666">
        <ele>395</ele>
        <time>2014-11-14T20:47:27Z</time>
      </trkpt>
      <trkpt lat="45.49762" lon="4.59655">
        <ele>395</ele>
        <time>2014-11-14T20:47:30Z</time>
      </trkpt>
      <trkpt lat="45.49757" lon="4.59645">
        <ele>394</ele>
        <time>2014-11-14T20:47:33Z</time>
      </trkpt>
      <trkpt lat="45.49754" lon="4.59635">
        <ele>394</ele>
        <time>2014-11-14T20:47:36Z</time>
      </trkpt>
      <trkpt lat="45.4975" lon="4.59624">
        <ele>394</ele>
        <time>2014-11-14T20:47:39Z</time>
      </trkpt>
      <trkpt lat="45.49747" lon="4.59614">
        <ele>394</ele>
        <time>2014-11-14T20:47:42Z</time>
      </trkpt>
      <trkpt lat="45.49744" lon="4.59604">
        <ele>394</ele>
        <time>2014-11-14T20:47:45Z</time>
      </trkpt>
      <trkpt lat="45.49742" lon="4.59592">
        <ele>394</ele>
        <time>2014-11-14T20:47:48Z</time>
      </trkpt>
      <trkpt lat="45.4974" lon="4.59582">
        <ele>394</ele>
        <time>2014-11-14T20:47:51Z</time>
      </trkpt>
      <trkpt lat="45.49739" lon="4.59572">
        <ele>394</ele>
        <time>2014-11-14T20:47:54Z</time>
      </trkpt>
      <trkpt lat="45.49737" lon="4.59561">
        <ele>394</ele>
        <time>2014-11-14T20:47:57Z</time>
      </trkpt>
      <trkpt lat="45.49736" lon="4.59549">
        <ele>394</ele>
        <time>2014-11-14T20:48:00Z</time>
      </trkpt>
      <trkpt lat="45.49734" lon="4.59538">
        <ele>393</ele>
        <time>2014-11-14T20:48:03Z</time>
      </trkpt>
      <trkpt lat="45.49734" lon="4.59527">
        <ele>392</ele>
        <time>2014-11-14T20:48:06Z</time>
      </trkpt>
      <trkpt lat="45.49735" lon="4.59515">
        <ele>392</ele>
        <time>2014-11-14T20:48:09Z</time>
      </trkpt>
      <trkpt lat="45.49736" lon="4.59505">
        <ele>392</ele>
        <time>2014-11-14T20:48:12Z</time>
      </trkpt>
      <trkpt lat="45.49737" lon="4.59494">
        <ele>392</ele>
        <time>2014-11-14T20:48:15Z</time>
      </trkpt>
      <trkpt lat="45.49738" lon="4.59484">
        <ele>392</ele>
        <time>2014-11-14T20:48:18Z</time>
      </trkpt>
      <trkpt lat="45.49739" lon="4.59473">
        <ele>392</ele>
        <time>2014-11-14T20:48:21Z</time>
      </trkpt>
      <trkpt lat="45.49738" lon="4.59461">
        <ele>392</ele>
        <time>2014-11-14T20:48:24Z</time>
      </trkpt>
      <trkpt lat="45.49736" lon="4.5945">
        <ele>392</ele>
        <time>2014-11-14T20:48:27Z</time>
      </trkpt>
      <trkpt lat="45.49734" lon="4.59439">
        <ele>392</ele>
        <time>2014-11-14T20:48:30Z</time>
      </trkpt>
      <trkpt lat="45.49733" lon="4.59422">
        <ele>391</ele>
        <time>2014-11-14T20:48:34Z</time>
      </trkpt>
      <trkpt lat="45.49731" lon="4.59411">
        <ele>390</ele>
        <time>2014-11-14T20:48:37Z</time>
      </trkpt>
      <trkpt lat="45.49729" lon="4.59399">
        <ele>389</ele>
        <time>2014-11-14T20:48:40Z</time>
      </trkpt>
      <trkpt lat="45.49727" lon="4.59388">
        <ele>387</ele>
        <time>2014-11-14T20:48:43Z</time>
      </trkpt>
      <trkpt lat="45.49725" lon="4.59377">
        <ele>385</ele>
        <time>2014-11-14T20:48:46Z</time>
      </trkpt>
      <trkpt lat="45.49721" lon="4.59367">
        <ele>383</ele>
        <time>2014-11-14T20:48:49Z</time>
      </trkpt>
      <trkpt lat="45.49719" lon="4.59356">
        <ele>382</ele>
        <time>2014-11-14T20:48:52Z</time>
      </trkpt>
      <trkpt lat="45.49716" lon="4.59345">
        <ele>382</ele>
        <time>2014-11-14T20:48:55Z</time>
      </trkpt>
      <trkpt lat="45.49713" lon="4.59336">
        <ele>382</ele>
        <time>2014-11-14T20:48:58Z</time>
      </trkpt>
      <trkpt lat="45.49709" lon="4.59328">
        <ele>382</ele>
        <time>2014-11-14T20:49:01Z</time>
      </trkpt>
      <trkpt lat="45.49706" lon="4.59319">
        <ele>382</ele>
        <time>2014-11-14T20:49:04Z</time>
      </trkpt>
      <trkpt lat="45.49702" lon="4.59308">
        <ele>382</ele>
        <time>2014-11-14T20:49:07Z</time>
      </trkpt>
      <trkpt lat="45.49699" lon="4.59298">
        <ele>382</ele>
        <time>2014-11-14T20:49:10Z</time>
      </trkpt>
      <trkpt lat="45.49696" lon="4.59286">
        <ele>380</ele>
        <time>2014-11-14T20:49:13Z</time>
      </trkpt>
      <trkpt lat="45.49694" lon="4.59276">
        <ele>379</ele>
        <time>2014-11-14T20:49:16Z</time>
      </trkpt>
      <trkpt lat="45.49692" lon="4.59266">
        <ele>377</ele>
        <time>2014-11-14T20:49:19Z</time>
      </trkpt>
      <trkpt lat="45.49689" lon="4.59256">
        <ele>375</ele>
        <time>2014-11-14T20:49:22Z</time>
      </trkpt>
      <trkpt lat="45.49687" lon="4.59246">
        <ele>373</ele>
        <time>2014-11-14T20:49:25Z</time>
      </trkpt>
      <trkpt lat="45.49684" lon="4.59235">
        <ele>371</ele>
        <time>2014-11-14T20:49:28Z</time>
      </trkpt>
      <trkpt lat="45.4968" lon="4.59227">
        <ele>371</ele>
        <time>2014-11-14T20:49:31Z</time>
      </trkpt>
      <trkpt lat="45.49678" lon="4.59221">
        <ele>371</ele>
        <time>2014-11-14T20:49:34Z</time>
      </trkpt>
      <trkpt lat="45.49677" lon="4.59218">
        <ele>371</ele>
        <time>2014-11-14T20:49:39Z</time>
      </trkpt>
      <trkpt lat="45.49678" lon="4.59216">
        <ele>371</ele>
        <time>2014-11-14T20:49:43Z</time>
      </trkpt>
      <trkpt lat="45.49681" lon="4.59212">
        <ele>371</ele>
        <time>2014-11-14T20:49:47Z</time>
      </trkpt>
      <trkpt lat="45.49683" lon="4.59201">
        <ele>371</ele>
        <time>2014-11-14T20:49:50Z</time>
      </trkpt>
      <trkpt lat="45.49682" lon="4.59188">
        <ele>371</ele>
        <time>2014-11-14T20:49:53Z</time>
      </trkpt>
      <trkpt lat="45.49683" lon="4.59177">
        <ele>371</ele>
        <time>2014-11-14T20:49:56Z</time>
      </trkpt>
      <trkpt lat="45.49684" lon="4.59165">
        <ele>371</ele>
        <time>2014-11-14T20:49:59Z</time>
      </trkpt>
      <trkpt lat="45.49684" lon="4.59149">
        <ele>370</ele>
        <time>2014-11-14T20:50:03Z</time>
      </trkpt>
      <trkpt lat="45.49685" lon="4.59136">
        <ele>369</ele>
        <time>2014-11-14T20:50:06Z</time>
      </trkpt>
      <trkpt lat="45.49685" lon="4.59124">
        <ele>369</ele>
        <time>2014-11-14T20:50:09Z</time>
      </trkpt>
      <trkpt lat="45.49685" lon="4.59113">
        <ele>368</ele>
        <time>2014-11-14T20:50:12Z</time>
      </trkpt>
      <trkpt lat="45.49685" lon="4.59101">
        <ele>367</ele>
        <time>2014-11-14T20:50:15Z</time>
      </trkpt>
      <trkpt lat="45.49685" lon="4.59091">
        <ele>365</ele>
        <time>2014-11-14T20:50:18Z</time>
      </trkpt>
      <trkpt lat="45.49686" lon="4.5908">
        <ele>365</ele>
        <time>2014-11-14T20:50:21Z</time>
      </trkpt>
      <trkpt lat="45.49687" lon="4.59069">
        <ele>364</ele>
        <time>2014-11-14T20:50:24Z</time>
      </trkpt>
      <trkpt lat="45.49688" lon="4.59059">
        <ele>364</ele>
        <time>2014-11-14T20:50:27Z</time>
      </trkpt>
      <trkpt lat="45.49689" lon="4.59048">
        <ele>364</ele>
        <time>2014-11-14T20:50:30Z</time>
      </trkpt>
      <trkpt lat="45.49691" lon="4.59036">
        <ele>364</ele>
        <time>2014-11-14T20:50:33Z</time>
      </trkpt>
      <trkpt lat="45.49693" lon="4.59025">
        <ele>364</ele>
        <time>2014-11-14T20:50:36Z</time>
      </trkpt>
      <trkpt lat="45.49694" lon="4.59014">
        <ele>364</ele>
        <time>2014-11-14T20:50:39Z</time>
      </trkpt>
      <trkpt lat="45.49697" lon="4.59003">
        <ele>363</ele>
        <time>2014-11-14T20:50:42Z</time>
      </trkpt>
      <trkpt lat="45.49698" lon="4.58992">
        <ele>363</ele>
        <time>2014-11-14T20:50:45Z</time>
      </trkpt>
      <trkpt lat="45.497" lon="4.58981">
        <ele>363</ele>
        <time>2014-11-14T20:50:48Z</time>
      </trkpt>
      <trkpt lat="45.49701" lon="4.5897">
        <ele>363</ele>
        <time>2014-11-14T20:50:51Z</time>
      </trkpt>
      <trkpt lat="45.49702" lon="4.5896">
        <ele>363</ele>
        <time>2014-11-14T20:50:54Z</time>
      </trkpt>
      <trkpt lat="45.49703" lon="4.5895">
        <ele>363</ele>
        <time>2014-11-14T20:50:57Z</time>
      </trkpt>
      <trkpt lat="45.49704" lon="4.58939">
        <ele>363</ele>
        <time>2014-11-14T20:51:00Z</time>
      </trkpt>
      <trkpt lat="45.49705" lon="4.58928">
        <ele>363</ele>
        <time>2014-11-14T20:51:03Z</time>
      </trkpt>
      <trkpt lat="45.49707" lon="4.58917">
        <ele>363</ele>
        <time>2014-11-14T20:51:06Z</time>
      </trkpt>
      <trkpt lat="45.49708" lon="4.58906">
        <ele>363</ele>
        <time>2014-11-14T20:51:09Z</time>
      </trkpt>
      <trkpt lat="45.49709" lon="4.58895">
        <ele>363</ele>
        <time>2014-11-14T20:51:12Z</time>
      </trkpt>
      <trkpt lat="45.4971" lon="4.58885">
        <ele>363</ele>
        <time>2014-11-14T20:51:15Z</time>
      </trkpt>
      <trkpt lat="45.49711" lon="4.58874">
        <ele>363</ele>
        <time>2014-11-14T20:51:18Z</time>
      </trkpt>
      <trkpt lat="45.49713" lon="4.58863">
        <ele>363</ele>
        <time>2014-11-14T20:51:21Z</time>
      </trkpt>
      <trkpt lat="45.49716" lon="4.58849">
        <ele>363</ele>
        <time>2014-11-14T20:51:25Z</time>
      </trkpt>
      <trkpt lat="45.49718" lon="4.58838">
        <ele>363</ele>
        <time>2014-11-14T20:51:28Z</time>
      </trkpt>
      <trkpt lat="45.49719" lon="4.58826">
        <ele>363</ele>
        <time>2014-11-14T20:51:31Z</time>
      </trkpt>
      <trkpt lat="45.49722" lon="4.58816">
        <ele>363</ele>
        <time>2014-11-14T20:51:34Z</time>
      </trkpt>
      <trkpt lat="45.49727" lon="4.58806">
        <ele>363</ele>
        <time>2014-11-14T20:51:37Z</time>
      </trkpt>
      <trkpt lat="45.49731" lon="4.58797">
        <ele>363</ele>
        <time>2014-11-14T20:51:40Z</time>
      </trkpt>
      <trkpt lat="45.49735" lon="4.58785">
        <ele>363</ele>
        <time>2014-11-14T20:51:43Z</time>
      </trkpt>
      <trkpt lat="45.49738" lon="4.58774">
        <ele>363</ele>
        <time>2014-11-14T20:51:46Z</time>
      </trkpt>
      <trkpt lat="45.4974" lon="4.58763">
        <ele>363</ele>
        <time>2014-11-14T20:51:49Z</time>
      </trkpt>
      <trkpt lat="45.49743" lon="4.58752">
        <ele>363</ele>
        <time>2014-11-14T20:51:52Z</time>
      </trkpt>
      <trkpt lat="45.49744" lon="4.58741">
        <ele>363</ele>
        <time>2014-11-14T20:51:55Z</time>
      </trkpt>
      <trkpt lat="45.49744" lon="4.5873">
        <ele>363</ele>
        <time>2014-11-14T20:51:58Z</time>
      </trkpt>
      <trkpt lat="45.49743" lon="4.58719">
        <ele>363</ele>
        <time>2014-11-14T20:52:01Z</time>
      </trkpt>
      <trkpt lat="45.49741" lon="4.5871">
        <ele>363</ele>
        <time>2014-11-14T20:52:04Z</time>
      </trkpt>
      <trkpt lat="45.49741" lon="4.587">
        <ele>362</ele>
        <time>2014-11-14T20:52:07Z</time>
      </trkpt>
      <trkpt lat="45.49738" lon="4.58691">
        <ele>361</ele>
        <time>2014-11-14T20:52:10Z</time>
      </trkpt>
      <trkpt lat="45.49735" lon="4.58682">
        <ele>361</ele>
        <time>2014-11-14T20:52:13Z</time>
      </trkpt>
      <trkpt lat="45.49731" lon="4.58671">
        <ele>360</ele>
        <time>2014-11-14T20:52:16Z</time>
      </trkpt>
      <trkpt lat="45.49729" lon="4.58662">
        <ele>360</ele>
        <time>2014-11-14T20:52:19Z</time>
      </trkpt>
      <trkpt lat="45.49725" lon="4.58651">
        <ele>360</ele>
        <time>2014-11-14T20:52:22Z</time>
      </trkpt>
      <trkpt lat="45.49721" lon="4.58641">
        <ele>360</ele>
        <time>2014-11-14T20:52:25Z</time>
      </trkpt>
      <trkpt lat="45.49718" lon="4.58631">
        <ele>360</ele>
        <time>2014-11-14T20:52:28Z</time>
      </trkpt>
      <trkpt lat="45.49714" lon="4.5862">
        <ele>360</ele>
        <time>2014-11-14T20:52:31Z</time>
      </trkpt>
      <trkpt lat="45.49711" lon="4.58609">
        <ele>360</ele>
        <time>2014-11-14T20:52:34Z</time>
      </trkpt>
      <trkpt lat="45.49707" lon="4.58598">
        <ele>359</ele>
        <time>2014-11-14T20:52:37Z</time>
      </trkpt>
      <trkpt lat="45.49704" lon="4.58588">
        <ele>359</ele>
        <time>2014-11-14T20:52:40Z</time>
      </trkpt>
      <trkpt lat="45.49701" lon="4.58577">
        <ele>358</ele>
        <time>2014-11-14T20:52:43Z</time>
      </trkpt>
      <trkpt lat="45.49697" lon="4.58567">
        <ele>358</ele>
        <time>2014-11-14T20:52:46Z</time>
      </trkpt>
      <trkpt lat="45.49694" lon="4.58556">
        <ele>358</ele>
        <time>2014-11-14T20:52:49Z</time>
      </trkpt>
      <trkpt lat="45.49691" lon="4.58544">
        <ele>358</ele>
        <time>2014-11-14T20:52:52Z</time>
      </trkpt>
      <trkpt lat="45.49689" lon="4.58533">
        <ele>358</ele>
        <time>2014-11-14T20:52:55Z</time>
      </trkpt>
      <trkpt lat="45.49688" lon="4.58522">
        <ele>358</ele>
        <time>2014-11-14T20:52:58Z</time>
      </trkpt>
      <trkpt lat="45.49686" lon="4.58511">
        <ele>358</ele>
        <time>2014-11-14T20:53:01Z</time>
      </trkpt>
      <trkpt lat="45.49684" lon="4.58499">
        <ele>357</ele>
        <time>2014-11-14T20:53:04Z</time>
      </trkpt>
      <trkpt lat="45.49683" lon="4.58487">
        <ele>357</ele>
        <time>2014-11-14T20:53:07Z</time>
      </trkpt>
      <trkpt lat="45.4968" lon="4.58475">
        <ele>357</ele>
        <time>2014-11-14T20:53:10Z</time>
      </trkpt>
      <trkpt lat="45.49679" lon="4.58464">
        <ele>357</ele>
        <time>2014-11-14T20:53:13Z</time>
      </trkpt>
      <trkpt lat="45.49678" lon="4.58452">
        <ele>357</ele>
        <time>2014-11-14T20:53:16Z</time>
      </trkpt>
      <trkpt lat="45.49678" lon="4.58442">
        <ele>357</ele>
        <time>2014-11-14T20:53:19Z</time>
      </trkpt>
      <trkpt lat="45.49678" lon="4.58432">
        <ele>357</ele>
        <time>2014-11-14T20:53:22Z</time>
      </trkpt>
      <trkpt lat="45.49678" lon="4.58422">
        <ele>356</ele>
        <time>2014-11-14T20:53:25Z</time>
      </trkpt>
      <trkpt lat="45.49678" lon="4.58412">
        <ele>356</ele>
        <time>2014-11-14T20:53:28Z</time>
      </trkpt>
      <trkpt lat="45.49678" lon="4.584">
        <ele>356</ele>
        <time>2014-11-14T20:53:31Z</time>
      </trkpt>
      <trkpt lat="45.49679" lon="4.58391">
        <ele>356</ele>
        <time>2014-11-14T20:53:34Z</time>
      </trkpt>
      <trkpt lat="45.49678" lon="4.58381">
        <ele>356</ele>
        <time>2014-11-14T20:53:37Z</time>
      </trkpt>
      <trkpt lat="45.49676" lon="4.58372">
        <ele>356</ele>
        <time>2014-11-14T20:53:40Z</time>
      </trkpt>
      <trkpt lat="45.49672" lon="4.58363">
        <ele>356</ele>
        <time>2014-11-14T20:53:43Z</time>
      </trkpt>
      <trkpt lat="45.49669" lon="4.58355">
        <ele>356</ele>
        <time>2014-11-14T20:53:46Z</time>
      </trkpt>
      <trkpt lat="45.49664" lon="4.58347">
        <ele>356</ele>
        <time>2014-11-14T20:53:49Z</time>
      </trkpt>
      <trkpt lat="45.4966" lon="4.58339">
        <ele>356</ele>
        <time>2014-11-14T20:53:52Z</time>
      </trkpt>
      <trkpt lat="45.49656" lon="4.5833">
        <ele>356</ele>
        <time>2014-11-14T20:53:55Z</time>
      </trkpt>
      <trkpt lat="45.49652" lon="4.58321">
        <ele>356</ele>
        <time>2014-11-14T20:53:58Z</time>
      </trkpt>
      <trkpt lat="45.49648" lon="4.58313">
        <ele>356</ele>
        <time>2014-11-14T20:54:01Z</time>
      </trkpt>
      <trkpt lat="45.49643" lon="4.58306">
        <ele>356</ele>
        <time>2014-11-14T20:54:04Z</time>
      </trkpt>
      <trkpt lat="45.49637" lon="4.58295">
        <ele>356</ele>
        <time>2014-11-14T20:54:08Z</time>
      </trkpt>
      <trkpt lat="45.49632" lon="4.58287">
        <ele>356</ele>
        <time>2014-11-14T20:54:11Z</time>
      </trkpt>
      <trkpt lat="45.49628" lon="4.58281">
        <ele>356</ele>
        <time>2014-11-14T20:54:14Z</time>
      </trkpt>
      <trkpt lat="45.49623" lon="4.58272">
        <ele>356</ele>
        <time>2014-11-14T20:54:17Z</time>
      </trkpt>
      <trkpt lat="45.49617" lon="4.58264">
        <ele>356</ele>
        <time>2014-11-14T20:54:20Z</time>
      </trkpt>
      <trkpt lat="45.49613" lon="4.58257">
        <ele>356</ele>
        <time>2014-11-14T20:54:23Z</time>
      </trkpt>
      <trkpt lat="45.49609" lon="4.5825">
        <ele>356</ele>
        <time>2014-11-14T20:54:26Z</time>
      </trkpt>
      <trkpt lat="45.49604" lon="4.58243">
        <ele>356</ele>
        <time>2014-11-14T20:54:29Z</time>
      </trkpt>
      <trkpt lat="45.49598" lon="4.58235">
        <ele>355</ele>
        <time>2014-11-14T20:54:32Z</time>
      </trkpt>
      <trkpt lat="45.49593" lon="4.58227">
        <ele>355</ele>
        <time>2014-11-14T20:54:35Z</time>
      </trkpt>
      <trkpt lat="45.49588" lon="4.58219">
        <ele>355</ele>
        <time>2014-11-14T20:54:38Z</time>
      </trkpt>
      <trkpt lat="45.49583" lon="4.58212">
        <ele>355</ele>
        <time>2014-11-14T20:54:41Z</time>
      </trkpt>
      <trkpt lat="45.49578" lon="4.58205">
        <ele>355</ele>
        <time>2014-11-14T20:54:44Z</time>
      </trkpt>
      <trkpt lat="45.49573" lon="4.58198">
        <ele>355</ele>
        <time>2014-11-14T20:54:47Z</time>
      </trkpt>
      <trkpt lat="45.49568" lon="4.58192">
        <ele>355</ele>
        <time>2014-11-14T20:54:50Z</time>
      </trkpt>
      <trkpt lat="45.49562" lon="4.58186">
        <ele>355</ele>
        <time>2014-11-14T20:54:53Z</time>
      </trkpt>
      <trkpt lat="45.49556" lon="4.58181">
        <ele>355</ele>
        <time>2014-11-14T20:54:56Z</time>
      </trkpt>
      <trkpt lat="45.49551" lon="4.58176">
        <ele>355</ele>
        <time>2014-11-14T20:54:59Z</time>
      </trkpt>
      <trkpt lat="45.49544" lon="4.58171">
        <ele>355</ele>
        <time>2014-11-14T20:55:02Z</time>
      </trkpt>
      <trkpt lat="45.49536" lon="4.58167">
        <ele>355</ele>
        <time>2014-11-14T20:55:05Z</time>
      </trkpt>
      <trkpt lat="45.49528" lon="4.58163">
        <ele>355</ele>
        <time>2014-11-14T20:55:08Z</time>
      </trkpt>
      <trkpt lat="45.49521" lon="4.58159">
        <ele>355</ele>
        <time>2014-11-14T20:55:11Z</time>
      </trkpt>
      <trkpt lat="45.49515" lon="4.58156">
        <ele>354</ele>
        <time>2014-11-14T20:55:14Z</time>
      </trkpt>
      <trkpt lat="45.49509" lon="4.58157">
        <ele>352</ele>
        <time>2014-11-14T20:55:17Z</time>
      </trkpt>
      <trkpt lat="45.49504" lon="4.58166">
        <ele>351</ele>
        <time>2014-11-14T20:55:20Z</time>
      </trkpt>
      <trkpt lat="45.49499" lon="4.58175">
        <ele>350</ele>
        <time>2014-11-14T20:55:23Z</time>
      </trkpt>
      <trkpt lat="45.49495" lon="4.58181">
        <ele>350</ele>
        <time>2014-11-14T20:55:26Z</time>
      </trkpt>
      <trkpt lat="45.4949" lon="4.58188">
        <ele>350</ele>
        <time>2014-11-14T20:55:29Z</time>
      </trkpt>
      <trkpt lat="45.49487" lon="4.58194">
        <ele>349</ele>
        <time>2014-11-14T20:55:32Z</time>
      </trkpt>
      <trkpt lat="45.49482" lon="4.58198">
        <ele>349</ele>
        <time>2014-11-14T20:55:35Z</time>
      </trkpt>
      <trkpt lat="45.49478" lon="4.58204">
        <ele>349</ele>
        <time>2014-11-14T20:55:38Z</time>
      </trkpt>
      <trkpt lat="45.49474" lon="4.58209">
        <ele>348</ele>
        <time>2014-11-14T20:55:41Z</time>
      </trkpt>
      <trkpt lat="45.4947" lon="4.58215">
        <ele>348</ele>
        <time>2014-11-14T20:55:44Z</time>
      </trkpt>
      <trkpt lat="45.49465" lon="4.58221">
        <ele>348</ele>
        <time>2014-11-14T20:55:47Z</time>
      </trkpt>
      <trkpt lat="45.49461" lon="4.58225">
        <ele>348</ele>
        <time>2014-11-14T20:55:50Z</time>
      </trkpt>
      <trkpt lat="45.49457" lon="4.58229">
        <ele>348</ele>
        <time>2014-11-14T20:55:53Z</time>
      </trkpt>
      <trkpt lat="45.49453" lon="4.58234">
        <ele>348</ele>
        <time>2014-11-14T20:55:56Z</time>
      </trkpt>
      <trkpt lat="45.49449" lon="4.5824">
        <ele>348</ele>
        <time>2014-11-14T20:55:59Z</time>
      </trkpt>
      <trkpt lat="45.49446" lon="4.58245">
        <ele>348</ele>
        <time>2014-11-14T20:56:03Z</time>
      </trkpt>
      <trkpt lat="45.49442" lon="4.5825">
        <ele>348</ele>
        <time>2014-11-14T20:56:06Z</time>
      </trkpt>
      <trkpt lat="45.49439" lon="4.58255">
        <ele>348</ele>
        <time>2014-11-14T20:56:09Z</time>
      </trkpt>
      <trkpt lat="45.49436" lon="4.5826">
        <ele>349</ele>
        <time>2014-11-14T20:56:12Z</time>
      </trkpt>
      <trkpt lat="45.49433" lon="4.58265">
        <ele>350</ele>
        <time>2014-11-14T20:56:15Z</time>
      </trkpt>
      <trkpt lat="45.49429" lon="4.58269">
        <ele>350</ele>
        <time>2014-11-14T20:56:18Z</time>
      </trkpt>
      <trkpt lat="45.49425" lon="4.58273">
        <ele>351</ele>
        <time>2014-11-14T20:56:21Z</time>
      </trkpt>
      <trkpt lat="45.49421" lon="4.58277">
        <ele>351</ele>
        <time>2014-11-14T20:56:24Z</time>
      </trkpt>
      <trkpt lat="45.49417" lon="4.5828">
        <ele>352</ele>
        <time>2014-11-14T20:56:27Z</time>
      </trkpt>
      <trkpt lat="45.49413" lon="4.58284">
        <ele>353</ele>
        <time>2014-11-14T20:56:30Z</time>
      </trkpt>
      <trkpt lat="45.49408" lon="4.58287">
        <ele>353</ele>
        <time>2014-11-14T20:56:34Z</time>
      </trkpt>
      <trkpt lat="45.49404" lon="4.58291">
        <ele>354</ele>
        <time>2014-11-14T20:56:38Z</time>
      </trkpt>
      <trkpt lat="45.494" lon="4.58295">
        <ele>354</ele>
        <time>2014-11-14T20:56:41Z</time>
      </trkpt>
      <trkpt lat="45.49396" lon="4.583">
        <ele>355</ele>
        <time>2014-11-14T20:56:45Z</time>
      </trkpt>
      <trkpt lat="45.4939" lon="4.58303">
        <ele>356</ele>
        <time>2014-11-14T20:56:48Z</time>
      </trkpt>
      <trkpt lat="45.49385" lon="4.58307">
        <ele>356</ele>
        <time>2014-11-14T20:56:51Z</time>
      </trkpt>
      <trkpt lat="45.49381" lon="4.58311">
        <ele>357</ele>
        <time>2014-11-14T20:56:54Z</time>
      </trkpt>
      <trkpt lat="45.49377" lon="4.58313">
        <ele>357</ele>
        <time>2014-11-14T20:56:57Z</time>
      </trkpt>
      <trkpt lat="45.49373" lon="4.58316">
        <ele>357</ele>
        <time>2014-11-14T20:57:01Z</time>
      </trkpt>
      <trkpt lat="45.49369" lon="4.58318">
        <ele>358</ele>
        <time>2014-11-14T20:57:04Z</time>
      </trkpt>
      <trkpt lat="45.49366" lon="4.5832">
        <ele>358</ele>
        <time>2014-11-14T20:57:07Z</time>
      </trkpt>
      <trkpt lat="45.49362" lon="4.58322">
        <ele>358</ele>
        <time>2014-11-14T20:57:10Z</time>
      </trkpt>
      <trkpt lat="45.49359" lon="4.58324">
        <ele>359</ele>
        <time>2014-11-14T20:57:13Z</time>
      </trkpt>
      <trkpt lat="45.49355" lon="4.58327">
        <ele>359</ele>
        <time>2014-11-14T20:57:16Z</time>
      </trkpt>
      <trkpt lat="45.49352" lon="4.58329">
        <ele>360</ele>
        <time>2014-11-14T20:57:19Z</time>
      </trkpt>
      <trkpt lat="45.49348" lon="4.58331">
        <ele>360</ele>
        <time>2014-11-14T20:57:22Z</time>
      </trkpt>
      <trkpt lat="45.49344" lon="4.58334">
        <ele>360</ele>
        <time>2014-11-14T20:57:25Z</time>
      </trkpt>
      <trkpt lat="45.4934" lon="4.58336">
        <ele>360</ele>
        <time>2014-11-14T20:57:28Z</time>
      </trkpt>
      <trkpt lat="45.49336" lon="4.58338">
        <ele>360</ele>
        <time>2014-11-14T20:57:31Z</time>
      </trkpt>
      <trkpt lat="45.49332" lon="4.5834">
        <ele>360</ele>
        <time>2014-11-14T20:57:34Z</time>
      </trkpt>
      <trkpt lat="45.49329" lon="4.58344">
        <ele>360</ele>
        <time>2014-11-14T20:57:37Z</time>
      </trkpt>
      <trkpt lat="45.49326" lon="4.58348">
        <ele>360</ele>
        <time>2014-11-14T20:57:40Z</time>
      </trkpt>
      <trkpt lat="45.49322" lon="4.58352">
        <ele>360</ele>
        <time>2014-11-14T20:57:43Z</time>
      </trkpt>
      <trkpt lat="45.49317" lon="4.58356">
        <ele>360</ele>
        <time>2014-11-14T20:57:47Z</time>
      </trkpt>
      <trkpt lat="45.49313" lon="4.58359">
        <ele>360</ele>
        <time>2014-11-14T20:57:50Z</time>
      </trkpt>
      <trkpt lat="45.4931" lon="4.58362">
        <ele>360</ele>
        <time>2014-11-14T20:57:53Z</time>
      </trkpt>
      <trkpt lat="45.49306" lon="4.58365">
        <ele>360</ele>
        <time>2014-11-14T20:57:56Z</time>
      </trkpt>
      <trkpt lat="45.49303" lon="4.58368">
        <ele>360</ele>
        <time>2014-11-14T20:57:59Z</time>
      </trkpt>
      <trkpt lat="45.49299" lon="4.58371">
        <ele>361</ele>
        <time>2014-11-14T20:58:02Z</time>
      </trkpt>
      <trkpt lat="45.49296" lon="4.58374">
        <ele>362</ele>
        <time>2014-11-14T20:58:05Z</time>
      </trkpt>
      <trkpt lat="45.49292" lon="4.58377">
        <ele>363</ele>
        <time>2014-11-14T20:58:08Z</time>
      </trkpt>
      <trkpt lat="45.49288" lon="4.5838">
        <ele>363</ele>
        <time>2014-11-14T20:58:11Z</time>
      </trkpt>
      <trkpt lat="45.49285" lon="4.58383">
        <ele>364</ele>
        <time>2014-11-14T20:58:14Z</time>
      </trkpt>
      <trkpt lat="45.49281" lon="4.58386">
        <ele>364</ele>
        <time>2014-11-14T20:58:17Z</time>
      </trkpt>
      <trkpt lat="45.49277" lon="4.58389">
        <ele>364</ele>
        <time>2014-11-14T20:58:20Z</time>
      </trkpt>
      <trkpt lat="45.49273" lon="4.58392">
        <ele>364</ele>
        <time>2014-11-14T20:58:23Z</time>
      </trkpt>
      <trkpt lat="45.49269" lon="4.58395">
        <ele>364</ele>
        <time>2014-11-14T20:58:26Z</time>
      </trkpt>
      <trkpt lat="45.49264" lon="4.58397">
        <ele>364</ele>
        <time>2014-11-14T20:58:29Z</time>
      </trkpt>
      <trkpt lat="45.4926" lon="4.58401">
        <ele>364</ele>
        <time>2014-11-14T20:58:32Z</time>
      </trkpt>
      <trkpt lat="45.49256" lon="4.58406">
        <ele>364</ele>
        <time>2014-11-14T20:58:36Z</time>
      </trkpt>
      <trkpt lat="45.49252" lon="4.5841">
        <ele>364</ele>
        <time>2014-11-14T20:58:39Z</time>
      </trkpt>
      <trkpt lat="45.49247" lon="4.58412">
        <ele>364</ele>
        <time>2014-11-14T20:58:42Z</time>
      </trkpt>
      <trkpt lat="45.49244" lon="4.58415">
        <ele>365</ele>
        <time>2014-11-14T20:58:45Z</time>
      </trkpt>
      <trkpt lat="45.49241" lon="4.58418">
        <ele>366</ele>
        <time>2014-11-14T20:58:48Z</time>
      </trkpt>
      <trkpt lat="45.49237" lon="4.58422">
        <ele>367</ele>
        <time>2014-11-14T20:58:52Z</time>
      </trkpt>
      <trkpt lat="45.49232" lon="4.58425">
        <ele>368</ele>
        <time>2014-11-14T20:58:56Z</time>
      </trkpt>
      <trkpt lat="45.49229" lon="4.58427">
        <ele>369</ele>
        <time>2014-11-14T20:58:59Z</time>
      </trkpt>
      <trkpt lat="45.49225" lon="4.58428">
        <ele>370</ele>
        <time>2014-11-14T20:59:02Z</time>
      </trkpt>
      <trkpt lat="45.49221" lon="4.5843">
        <ele>370</ele>
        <time>2014-11-14T20:59:05Z</time>
      </trkpt>
      <trkpt lat="45.49218" lon="4.58431">
        <ele>371</ele>
        <time>2014-11-14T20:59:08Z</time>
      </trkpt>
      <trkpt lat="45.49214" lon="4.58433">
        <ele>372</ele>
        <time>2014-11-14T20:59:11Z</time>
      </trkpt>
      <trkpt lat="45.49209" lon="4.58436">
        <ele>372</ele>
        <time>2014-11-14T20:59:14Z</time>
      </trkpt>
      <trkpt lat="45.49206" lon="4.58438">
        <ele>372</ele>
        <time>2014-11-14T20:59:17Z</time>
      </trkpt>
      <trkpt lat="45.49202" lon="4.5844">
        <ele>372</ele>
        <time>2014-11-14T20:59:20Z</time>
      </trkpt>
      <trkpt lat="45.49198" lon="4.58442">
        <ele>372</ele>
        <time>2014-11-14T20:59:23Z</time>
      </trkpt>
      <trkpt lat="45.49194" lon="4.58444">
        <ele>372</ele>
        <time>2014-11-14T20:59:26Z</time>
      </trkpt>
      <trkpt lat="45.49192" lon="4.58449">
        <ele>372</ele>
        <time>2014-11-14T20:59:29Z</time>
      </trkpt>
      <trkpt lat="45.4919" lon="4.58458">
        <ele>372</ele>
        <time>2014-11-14T20:59:32Z</time>
      </trkpt>
      <trkpt lat="45.49189" lon="4.58466">
        <ele>372</ele>
        <time>2014-11-14T20:59:35Z</time>
      </trkpt>
      <trkpt lat="45.49188" lon="4.58476">
        <ele>372</ele>
        <time>2014-11-14T20:59:38Z</time>
      </trkpt>
      <trkpt lat="45.49187" lon="4.58485">
        <ele>373</ele>
        <time>2014-11-14T20:59:41Z</time>
      </trkpt>
      <trkpt lat="45.49186" lon="4.58494">
        <ele>374</ele>
        <time>2014-11-14T20:59:44Z</time>
      </trkpt>
      <trkpt lat="45.49185" lon="4.58502">
        <ele>375</ele>
        <time>2014-11-14T20:59:47Z</time>
      </trkpt>
      <trkpt lat="45.49184" lon="4.58511">
        <ele>375</ele>
        <time>2014-11-14T20:59:50Z</time>
      </trkpt>
      <trkpt lat="45.49181" lon="4.58519">
        <ele>376</ele>
        <time>2014-11-14T20:59:53Z</time>
      </trkpt>
      <trkpt lat="45.49179" lon="4.58528">
        <ele>377</ele>
        <time>2014-11-14T20:59:56Z</time>
      </trkpt>
      <trkpt lat="45.49177" lon="4.58536">
        <ele>377</ele>
        <time>2014-11-14T20:59:59Z</time>
      </trkpt>
      <trkpt lat="45.49175" lon="4.58544">
        <ele>377</ele>
        <time>2014-11-14T21:00:02Z</time>
      </trkpt>
      <trkpt lat="45.49171" lon="4.58552">
        <ele>377</ele>
        <time>2014-11-14T21:00:05Z</time>
      </trkpt>
      <trkpt lat="45.49168" lon="4.58561">
        <ele>377</ele>
        <time>2014-11-14T21:00:08Z</time>
      </trkpt>
      <trkpt lat="45.49165" lon="4.58571">
        <ele>377</ele>
        <time>2014-11-14T21:00:11Z</time>
      </trkpt>
      <trkpt lat="45.49162" lon="4.5858">
        <ele>377</ele>
        <time>2014-11-14T21:00:14Z</time>
      </trkpt>
      <trkpt lat="45.49157" lon="4.58588">
        <ele>377</ele>
        <time>2014-11-14T21:00:17Z</time>
      </trkpt>
      <trkpt lat="45.49154" lon="4.58596">
        <ele>378</ele>
        <time>2014-11-14T21:00:20Z</time>
      </trkpt>
      <trkpt lat="45.49152" lon="4.58604">
        <ele>378</ele>
        <time>2014-11-14T21:00:23Z</time>
      </trkpt>
      <trkpt lat="45.49149" lon="4.58613">
        <ele>378</ele>
        <time>2014-11-14T21:00:26Z</time>
      </trkpt>
      <trkpt lat="45.49148" lon="4.58621">
        <ele>378</ele>
        <time>2014-11-14T21:00:29Z</time>
      </trkpt>
      <trkpt lat="45.49145" lon="4.5863">
        <ele>379</ele>
        <time>2014-11-14T21:00:32Z</time>
      </trkpt>
      <trkpt lat="45.49143" lon="4.58639">
        <ele>379</ele>
        <time>2014-11-14T21:00:35Z</time>
      </trkpt>
      <trkpt lat="45.49141" lon="4.58649">
        <ele>379</ele>
        <time>2014-11-14T21:00:38Z</time>
      </trkpt>
      <trkpt lat="45.49139" lon="4.58658">
        <ele>379</ele>
        <time>2014-11-14T21:00:41Z</time>
      </trkpt>
      <trkpt lat="45.49137" lon="4.58667">
        <ele>379</ele>
        <time>2014-11-14T21:00:44Z</time>
      </trkpt>
      <trkpt lat="45.49135" lon="4.58676">
        <ele>379</ele>
        <time>2014-11-14T21:00:47Z</time>
      </trkpt>
      <trkpt lat="45.49135" lon="4.58686">
        <ele>379</ele>
        <time>2014-11-14T21:00:50Z</time>
      </trkpt>
      <trkpt lat="45.49134" lon="4.58694">
        <ele>379</ele>
        <time>2014-11-14T21:00:53Z</time>
      </trkpt>
      <trkpt lat="45.49135" lon="4.58704">
        <ele>379</ele>
        <time>2014-11-14T21:00:56Z</time>
      </trkpt>
      <trkpt lat="45.49137" lon="4.58713">
        <ele>379</ele>
        <time>2014-11-14T21:00:59Z</time>
      </trkpt>
      <trkpt lat="45.49138" lon="4.58722">
        <ele>379</ele>
        <time>2014-11-14T21:01:02Z</time>
      </trkpt>
      <trkpt lat="45.49138" lon="4.5873">
        <ele>379</ele>
        <time>2014-11-14T21:01:05Z</time>
      </trkpt>
      <trkpt lat="45.49139" lon="4.58739">
        <ele>379</ele>
        <time>2014-11-14T21:01:08Z</time>
      </trkpt>
      <trkpt lat="45.49142" lon="4.58747">
        <ele>379</ele>
        <time>2014-11-14T21:01:11Z</time>
      </trkpt>
      <trkpt lat="45.49145" lon="4.58756">
        <ele>379</ele>
        <time>2014-11-14T21:01:14Z</time>
      </trkpt>
      <trkpt lat="45.49149" lon="4.58764">
        <ele>380</ele>
        <time>2014-11-14T21:01:17Z</time>
      </trkpt>
      <trkpt lat="45.49153" lon="4.58773">
        <ele>381</ele>
        <time>2014-11-14T21:01:20Z</time>
      </trkpt>
      <trkpt lat="45.49156" lon="4.58781">
        <ele>381</ele>
        <time>2014-11-14T21:01:23Z</time>
      </trkpt>
      <trkpt lat="45.49157" lon="4.5879">
        <ele>381</ele>
        <time>2014-11-14T21:01:26Z</time>
      </trkpt>
      <trkpt lat="45.4916" lon="4.58798">
        <ele>381</ele>
        <time>2014-11-14T21:01:29Z</time>
      </trkpt>
      <trkpt lat="45.49161" lon="4.58807">
        <ele>381</ele>
        <time>2014-11-14T21:01:32Z</time>
      </trkpt>
      <trkpt lat="45.49159" lon="4.58813">
        <ele>381</ele>
        <time>2014-11-14T21:01:35Z</time>
      </trkpt>
      <trkpt lat="45.49157" lon="4.58822">
        <ele>381</ele>
        <time>2014-11-14T21:01:38Z</time>
      </trkpt>
      <trkpt lat="45.49156" lon="4.58829">
        <ele>381</ele>
        <time>2014-11-14T21:01:41Z</time>
      </trkpt>
      <trkpt lat="45.49155" lon="4.58837">
        <ele>381</ele>
        <time>2014-11-14T21:01:44Z</time>
      </trkpt>
      <trkpt lat="45.49152" lon="4.58847">
        <ele>381</ele>
        <time>2014-11-14T21:01:47Z</time>
      </trkpt>
      <trkpt lat="45.49152" lon="4.58856">
        <ele>381</ele>
        <time>2014-11-14T21:01:50Z</time>
      </trkpt>
      <trkpt lat="45.4915" lon="4.58866">
        <ele>382</ele>
        <time>2014-11-14T21:01:53Z</time>
      </trkpt>
      <trkpt lat="45.49148" lon="4.58875">
        <ele>382</ele>
        <time>2014-11-14T21:01:56Z</time>
      </trkpt>
      <trkpt lat="45.49148" lon="4.58884">
        <ele>382</ele>
        <time>2014-11-14T21:01:59Z</time>
      </trkpt>
      <trkpt lat="45.49147" lon="4.58893">
        <ele>382</ele>
        <time>2014-11-14T21:02:02Z</time>
      </trkpt>
      <trkpt lat="45.49147" lon="4.58903">
        <ele>382</ele>
        <time>2014-11-14T21:02:05Z</time>
      </trkpt>
      <trkpt lat="45.49146" lon="4.5891">
        <ele>383</ele>
        <time>2014-11-14T21:02:08Z</time>
      </trkpt>
      <trkpt lat="45.49146" lon="4.58913">
        <ele>384</ele>
        <time>2014-11-14T21:02:13Z</time>
      </trkpt>
      <trkpt lat="45.49145" lon="4.58917">
        <ele>385</ele>
        <time>2014-11-14T21:02:17Z</time>
      </trkpt>
      <trkpt lat="45.49144" lon="4.58922">
        <ele>385</ele>
        <time>2014-11-14T21:02:21Z</time>
      </trkpt>
      <trkpt lat="45.49144" lon="4.58924">
        <ele>385</ele>
        <time>2014-11-14T21:02:24Z</time>
      </trkpt>
      <trkpt lat="45.49146" lon="4.58928">
        <ele>385</ele>
        <time>2014-11-14T21:02:27Z</time>
      </trkpt>
      <trkpt lat="45.49146" lon="4.58937">
        <ele>385</ele>
        <time>2014-11-14T21:02:30Z</time>
      </trkpt>
      <trkpt lat="45.49145" lon="4.58948">
        <ele>385</ele>
        <time>2014-11-14T21:02:33Z</time>
      </trkpt>
      <trkpt lat="45.49144" lon="4.5896">
        <ele>386</ele>
        <time>2014-11-14T21:02:36Z</time>
      </trkpt>
      <trkpt lat="45.49145" lon="4.58972">
        <ele>387</ele>
        <time>2014-11-14T21:02:39Z</time>
      </trkpt>
      <trkpt lat="45.49144" lon="4.58983">
        <ele>388</ele>
        <time>2014-11-14T21:02:42Z</time>
      </trkpt>
      <trkpt lat="45.49144" lon="4.58993">
        <ele>389</ele>
        <time>2014-11-14T21:02:45Z</time>
      </trkpt>
      <trkpt lat="45.49144" lon="4.59003">
        <ele>389</ele>
        <time>2014-11-14T21:02:48Z</time>
      </trkpt>
      <trkpt lat="45.49144" lon="4.59012">
        <ele>390</ele>
        <time>2014-11-14T21:02:51Z</time>
      </trkpt>
      <trkpt lat="45.49144" lon="4.59022">
        <ele>390</ele>
        <time>2014-11-14T21:02:54Z</time>
      </trkpt>
      <trkpt lat="45.49143" lon="4.59029">
        <ele>391</ele>
        <time>2014-11-14T21:02:57Z</time>
      </trkpt>
      <trkpt lat="45.49143" lon="4.59038">
        <ele>391</ele>
        <time>2014-11-14T21:03:00Z</time>
      </trkpt>
      <trkpt lat="45.4914" lon="4.59048">
        <ele>391</ele>
        <time>2014-11-14T21:03:03Z</time>
      </trkpt>
      <trkpt lat="45.49138" lon="4.59056">
        <ele>391</ele>
        <time>2014-11-14T21:03:06Z</time>
      </trkpt>
      <trkpt lat="45.49137" lon="4.59063">
        <ele>391</ele>
        <time>2014-11-14T21:03:09Z</time>
      </trkpt>
      <trkpt lat="45.49138" lon="4.5907">
        <ele>391</ele>
        <time>2014-11-14T21:03:12Z</time>
      </trkpt>
      <trkpt lat="45.49136" lon="4.59077">
        <ele>391</ele>
        <time>2014-11-14T21:03:15Z</time>
      </trkpt>
      <trkpt lat="45.49136" lon="4.59084">
        <ele>391</ele>
        <time>2014-11-14T21:03:18Z</time>
      </trkpt>
      <trkpt lat="45.49136" lon="4.59091">
        <ele>391</ele>
        <time>2014-11-14T21:03:21Z</time>
      </trkpt>
      <trkpt lat="45.49137" lon="4.59095">
        <ele>391</ele>
        <time>2014-11-14T21:03:24Z</time>
      </trkpt>
      <trkpt lat="45.49136" lon="4.59102">
        <ele>391</ele>
        <time>2014-11-14T21:03:27Z</time>
      </trkpt>
      <trkpt lat="45.49135" lon="4.5911">
        <ele>391</ele>
        <time>2014-11-14T21:03:30Z</time>
      </trkpt>
      <trkpt lat="45.49136" lon="4.59117">
        <ele>392</ele>
        <time>2014-11-14T21:03:33Z</time>
      </trkpt>
      <trkpt lat="45.49138" lon="4.59126">
        <ele>394</ele>
        <time>2014-11-14T21:03:36Z</time>
      </trkpt>
      <trkpt lat="45.49139" lon="4.59134">
        <ele>395</ele>
        <time>2014-11-14T21:03:39Z</time>
      </trkpt>
      <trkpt lat="45.49139" lon="4.59142">
        <ele>396</ele>
        <time>2014-11-14T21:03:42Z</time>
      </trkpt>
      <trkpt lat="45.49139" lon="4.5915">
        <ele>397</ele>
        <time>2014-11-14T21:03:45Z</time>
      </trkpt>
      <trkpt lat="45.49139" lon="4.59155">
        <ele>398</ele>
        <time>2014-11-14T21:03:48Z</time>
      </trkpt>
      <trkpt lat="45.49139" lon="4.59161">
        <ele>398</ele>
        <time>2014-11-14T21:03:51Z</time>
      </trkpt>
      <trkpt lat="45.49139" lon="4.59164">
        <ele>399</ele>
        <time>2014-11-14T21:03:54Z</time>
      </trkpt>
      <trkpt lat="45.4914" lon="4.5917">
        <ele>400</ele>
        <time>2014-11-14T21:03:58Z</time>
      </trkpt>
      <trkpt lat="45.49141" lon="4.59176">
        <ele>400</ele>
        <time>2014-11-14T21:04:02Z</time>
      </trkpt>
      <trkpt lat="45.49141" lon="4.59182">
        <ele>400</ele>
        <time>2014-11-14T21:04:06Z</time>
      </trkpt>
      <trkpt lat="45.49141" lon="4.59187">
        <ele>400</ele>
        <time>2014-11-14T21:04:09Z</time>
      </trkpt>
      <trkpt lat="45.49143" lon="4.59193">
        <ele>400</ele>
        <time>2014-11-14T21:04:13Z</time>
      </trkpt>
      <trkpt lat="45.49144" lon="4.59198">
        <ele>400</ele>
        <time>2014-11-14T21:04:16Z</time>
      </trkpt>
      <trkpt lat="45.49145" lon="4.59203">
        <ele>401</ele>
        <time>2014-11-14T21:04:19Z</time>
      </trkpt>
      <trkpt lat="45.49146" lon="4.59207">
        <ele>402</ele>
        <time>2014-11-14T21:04:22Z</time>
      </trkpt>
      <trkpt lat="45.49148" lon="4.59212">
        <ele>402</ele>
        <time>2014-11-14T21:04:25Z</time>
      </trkpt>
      <trkpt lat="45.49149" lon="4.59218">
        <ele>402</ele>
        <time>2014-11-14T21:04:29Z</time>
      </trkpt>
      <trkpt lat="45.4915" lon="4.59223">
        <ele>402</ele>
        <time>2014-11-14T21:04:32Z</time>
      </trkpt>
      <trkpt lat="45.49154" lon="4.59228">
        <ele>402</ele>
        <time>2014-11-14T21:04:35Z</time>
      </trkpt>
      <trkpt lat="45.49155" lon="4.59233">
        <ele>402</ele>
        <time>2014-11-14T21:04:38Z</time>
      </trkpt>
      <trkpt lat="45.49157" lon="4.59237">
        <ele>402</ele>
        <time>2014-11-14T21:04:41Z</time>
      </trkpt>
      <trkpt lat="45.49159" lon="4.59243">
        <ele>403</ele>
        <time>2014-11-14T21:04:44Z</time>
      </trkpt>
      <trkpt lat="45.49161" lon="4.59248">
        <ele>404</ele>
        <time>2014-11-14T21:04:47Z</time>
      </trkpt>
      <trkpt lat="45.49162" lon="4.59253">
        <ele>405</ele>
        <time>2014-11-14T21:04:50Z</time>
      </trkpt>
      <trkpt lat="45.49164" lon="4.59258">
        <ele>406</ele>
        <time>2014-11-14T21:04:53Z</time>
      </trkpt>
      <trkpt lat="45.49165" lon="4.59263">
        <ele>406</ele>
        <time>2014-11-14T21:04:56Z</time>
      </trkpt>
      <trkpt lat="45.49166" lon="4.59268">
        <ele>407</ele>
        <time>2014-11-14T21:04:59Z</time>
      </trkpt>
      <trkpt lat="45.49168" lon="4.59273">
        <ele>408</ele>
        <time>2014-11-14T21:05:02Z</time>
      </trkpt>
      <trkpt lat="45.49171" lon="4.59278">
        <ele>408</ele>
        <time>2014-11-14T21:05:05Z</time>
      </trkpt>
      <trkpt lat="45.49173" lon="4.59283">
        <ele>408</ele>
        <time>2014-11-14T21:05:08Z</time>
      </trkpt>
      <trkpt lat="45.49174" lon="4.59288">
        <ele>408</ele>
        <time>2014-11-14T21:05:11Z</time>
      </trkpt>
      <trkpt lat="45.49176" lon="4.59293">
        <ele>408</ele>
        <time>2014-11-14T21:05:14Z</time>
      </trkpt>
      <trkpt lat="45.4918" lon="4.593">
        <ele>408</ele>
        <time>2014-11-14T21:05:17Z</time>
      </trkpt>
      <trkpt lat="45.49182" lon="4.5931">
        <ele>408</ele>
        <time>2014-11-14T21:05:20Z</time>
      </trkpt>
      <trkpt lat="45.49184" lon="4.59319">
        <ele>408</ele>
        <time>2014-11-14T21:05:23Z</time>
      </trkpt>
      <trkpt lat="45.49182" lon="4.59329">
        <ele>408</ele>
        <time>2014-11-14T21:05:26Z</time>
      </trkpt>
      <trkpt lat="45.49179" lon="4.59337">
        <ele>409</ele>
        <time>2014-11-14T21:05:29Z</time>
      </trkpt>
      <trkpt lat="45.49177" lon="4.59342">
        <ele>410</ele>
        <time>2014-11-14T21:05:32Z</time>
      </trkpt>
      <trkpt lat="45.49175" lon="4.59347">
        <ele>411</ele>
        <time>2014-11-14T21:05:35Z</time>
      </trkpt>
      <trkpt lat="45.49173" lon="4.59352">
        <ele>412</ele>
        <time>2014-11-14T21:05:38Z</time>
      </trkpt>
      <trkpt lat="45.49172" lon="4.59357">
        <ele>413</ele>
        <time>2014-11-14T21:05:41Z</time>
      </trkpt>
      <trkpt lat="45.4917" lon="4.59362">
        <ele>414</ele>
        <time>2014-11-14T21:05:44Z</time>
      </trkpt>
      <trkpt lat="45.49167" lon="4.59368">
        <ele>415</ele>
        <time>2014-11-14T21:05:48Z</time>
      </trkpt>
      <trkpt lat="45.49165" lon="4.59373">
        <ele>416</ele>
        <time>2014-11-14T21:05:51Z</time>
      </trkpt>
      <trkpt lat="45.49164" lon="4.59378">
        <ele>417</ele>
        <time>2014-11-14T21:05:54Z</time>
      </trkpt>
      <trkpt lat="45.49163" lon="4.59384">
        <ele>418</ele>
        <time>2014-11-14T21:05:57Z</time>
      </trkpt>
      <trkpt lat="45.49162" lon="4.59389">
        <ele>419</ele>
        <time>2014-11-14T21:06:00Z</time>
      </trkpt>
      <trkpt lat="45.4916" lon="4.59395">
        <ele>420</ele>
        <time>2014-11-14T21:06:03Z</time>
      </trkpt>
      <trkpt lat="45.49158" lon="4.594">
        <ele>420</ele>
        <time>2014-11-14T21:06:06Z</time>
      </trkpt>
      <trkpt lat="45.49157" lon="4.59405">
        <ele>421</ele>
        <time>2014-11-14T21:06:09Z</time>
      </trkpt>
      <trkpt lat="45.49155" lon="4.59411">
        <ele>423</ele>
        <time>2014-11-14T21:06:12Z</time>
      </trkpt>
      <trkpt lat="45.49153" lon="4.59416">
        <ele>424</ele>
        <time>2014-11-14T21:06:15Z</time>
      </trkpt>
      <trkpt lat="45.49152" lon="4.59422">
        <ele>425</ele>
        <time>2014-11-14T21:06:18Z</time>
      </trkpt>
      <trkpt lat="45.4915" lon="4.59428">
        <ele>426</ele>
        <time>2014-11-14T21:06:21Z</time>
      </trkpt>
      <trkpt lat="45.49151" lon="4.59434">
        <ele>427</ele>
        <time>2014-11-14T21:06:24Z</time>
      </trkpt>
      <trkpt lat="45.49152" lon="4.59439">
        <ele>427</ele>
        <time>2014-11-14T21:06:28Z</time>
      </trkpt>
      <trkpt lat="45.49152" lon="4.59445">
        <ele>427</ele>
        <time>2014-11-14T21:06:32Z</time>
      </trkpt>
      <trkpt lat="45.49152" lon="4.59451">
        <ele>427</ele>
        <time>2014-11-14T21:06:35Z</time>
      </trkpt>
      <trkpt lat="45.49153" lon="4.59455">
        <ele>427</ele>
        <time>2014-11-14T21:06:38Z</time>
      </trkpt>
      <trkpt lat="45.49155" lon="4.59459">
        <ele>427</ele>
        <time>2014-11-14T21:06:41Z</time>
      </trkpt>
      <trkpt lat="45.49158" lon="4.59465">
        <ele>428</ele>
        <time>2014-11-14T21:06:45Z</time>
      </trkpt>
      <trkpt lat="45.49162" lon="4.59469">
        <ele>428</ele>
        <time>2014-11-14T21:06:48Z</time>
      </trkpt>
      <trkpt lat="45.49165" lon="4.59474">
        <ele>428</ele>
        <time>2014-11-14T21:06:51Z</time>
      </trkpt>
      <trkpt lat="45.49169" lon="4.59479">
        <ele>428</ele>
        <time>2014-11-14T21:06:54Z</time>
      </trkpt>
      <trkpt lat="45.49174" lon="4.59486">
        <ele>429</ele>
        <time>2014-11-14T21:06:57Z</time>
      </trkpt>
      <trkpt lat="45.49181" lon="4.59494">
        <ele>430</ele>
        <time>2014-11-14T21:07:00Z</time>
      </trkpt>
      <trkpt lat="45.49186" lon="4.59502">
        <ele>430</ele>
        <time>2014-11-14T21:07:03Z</time>
      </trkpt>
      <trkpt lat="45.49191" lon="4.5951">
        <ele>430</ele>
        <time>2014-11-14T21:07:06Z</time>
      </trkpt>
      <trkpt lat="45.49197" lon="4.59519">
        <ele>430</ele>
        <time>2014-11-14T21:07:09Z</time>
      </trkpt>
      <trkpt lat="45.49203" lon="4.59527">
        <ele>430</ele>
        <time>2014-11-14T21:07:12Z</time>
      </trkpt>
      <trkpt lat="45.49208" lon="4.59535">
        <ele>430</ele>
        <time>2014-11-14T21:07:15Z</time>
      </trkpt>
      <trkpt lat="45.49213" lon="4.59542">
        <ele>430</ele>
        <time>2014-11-14T21:07:18Z</time>
      </trkpt>
      <trkpt lat="45.49217" lon="4.59549">
        <ele>431</ele>
        <time>2014-11-14T21:07:22Z</time>
      </trkpt>
      <trkpt lat="45.49219" lon="4.59553">
        <ele>432</ele>
        <time>2014-11-14T21:07:25Z</time>
      </trkpt>
      <trkpt lat="45.49224" lon="4.59558">
        <ele>433</ele>
        <time>2014-11-14T21:07:28Z</time>
      </trkpt>
      <trkpt lat="45.49226" lon="4.59562">
        <ele>434</ele>
        <time>2014-11-14T21:07:31Z</time>
      </trkpt>
      <trkpt lat="45.49229" lon="4.59567">
        <ele>435</ele>
        <time>2014-11-14T21:07:34Z</time>
      </trkpt>
      <trkpt lat="45.49229" lon="4.59571">
        <ele>436</ele>
        <time>2014-11-14T21:07:37Z</time>
      </trkpt>
      <trkpt lat="45.49229" lon="4.59576">
        <ele>436</ele>
        <time>2014-11-14T21:07:41Z</time>
      </trkpt>
      <trkpt lat="45.4923" lon="4.59581">
        <ele>436</ele>
        <time>2014-11-14T21:07:44Z</time>
      </trkpt>
      <trkpt lat="45.49234" lon="4.59587">
        <ele>438</ele>
        <time>2014-11-14T21:07:47Z</time>
      </trkpt>
      <trkpt lat="45.49239" lon="4.59595">
        <ele>438</ele>
        <time>2014-11-14T21:07:50Z</time>
      </trkpt>
      <trkpt lat="45.49246" lon="4.59603">
        <ele>438</ele>
        <time>2014-11-14T21:07:53Z</time>
      </trkpt>
      <trkpt lat="45.49252" lon="4.59611">
        <ele>438</ele>
        <time>2014-11-14T21:07:56Z</time>
      </trkpt>
      <trkpt lat="45.49258" lon="4.59617">
        <ele>438</ele>
        <time>2014-11-14T21:07:59Z</time>
      </trkpt>
      <trkpt lat="45.49265" lon="4.59624">
        <ele>439</ele>
        <time>2014-11-14T21:08:02Z</time>
      </trkpt>
      <trkpt lat="45.4927" lon="4.59632">
        <ele>439</ele>
        <time>2014-11-14T21:08:05Z</time>
      </trkpt>
      <trkpt lat="45.49274" lon="4.59641">
        <ele>440</ele>
        <time>2014-11-14T21:08:08Z</time>
      </trkpt>
      <trkpt lat="45.49277" lon="4.5965">
        <ele>440</ele>
        <time>2014-11-14T21:08:11Z</time>
      </trkpt>
      <trkpt lat="45.4928" lon="4.59659">
        <ele>440</ele>
        <time>2014-11-14T21:08:14Z</time>
      </trkpt>
      <trkpt lat="45.49284" lon="4.59669">
        <ele>440</ele>
        <time>2014-11-14T21:08:17Z</time>
      </trkpt>
      <trkpt lat="45.49287" lon="4.59678">
        <ele>441</ele>
        <time>2014-11-14T21:08:20Z</time>
      </trkpt>
      <trkpt lat="45.49288" lon="4.59684">
        <ele>442</ele>
        <time>2014-11-14T21:08:23Z</time>
      </trkpt>
      <trkpt lat="45.49287" lon="4.59689">
        <ele>442</ele>
        <time>2014-11-14T21:08:26Z</time>
      </trkpt>
      <trkpt lat="45.49284" lon="4.59694">
        <ele>442</ele>
        <time>2014-11-14T21:08:30Z</time>
      </trkpt>
      <trkpt lat="45.49281" lon="4.59697">
        <ele>443</ele>
        <time>2014-11-14T21:08:33Z</time>
      </trkpt>
      <trkpt lat="45.49277" lon="4.59701">
        <ele>447</ele>
        <time>2014-11-14T21:08:37Z</time>
      </trkpt>
      <trkpt lat="45.49273" lon="4.59702">
        <ele>448</ele>
        <time>2014-11-14T21:08:40Z</time>
      </trkpt>
      <trkpt lat="45.49269" lon="4.59704">
        <ele>448</ele>
        <time>2014-11-14T21:08:43Z</time>
      </trkpt>
      <trkpt lat="45.49263" lon="4.59708">
        <ele>448</ele>
        <time>2014-11-14T21:08:46Z</time>
      </trkpt>
      <trkpt lat="45.49257" lon="4.59713">
        <ele>449</ele>
        <time>2014-11-14T21:08:49Z</time>
      </trkpt>
      <trkpt lat="45.4925" lon="4.5972">
        <ele>451</ele>
        <time>2014-11-14T21:08:52Z</time>
      </trkpt>
      <trkpt lat="45.49246" lon="4.59728">
        <ele>452</ele>
        <time>2014-11-14T21:08:55Z</time>
      </trkpt>
      <trkpt lat="45.4924" lon="4.59737">
        <ele>454</ele>
        <time>2014-11-14T21:08:58Z</time>
      </trkpt>
      <trkpt lat="45.49233" lon="4.5975">
        <ele>456</ele>
        <time>2014-11-14T21:09:02Z</time>
      </trkpt>
      <trkpt lat="45.49229" lon="4.59757">
        <ele>459</ele>
        <time>2014-11-14T21:09:05Z</time>
      </trkpt>
      <trkpt lat="45.49221" lon="4.59758">
        <ele>460</ele>
        <time>2014-11-14T21:09:08Z</time>
      </trkpt>
      <trkpt lat="45.49213" lon="4.59757">
        <ele>460</ele>
        <time>2014-11-14T21:09:11Z</time>
      </trkpt>
      <trkpt lat="45.49207" lon="4.59752">
        <ele>460</ele>
        <time>2014-11-14T21:09:14Z</time>
      </trkpt>
      <trkpt lat="45.49203" lon="4.59749">
        <ele>460</ele>
        <time>2014-11-14T21:09:17Z</time>
      </trkpt>
      <trkpt lat="45.492" lon="4.59747">
        <ele>460</ele>
        <time>2014-11-14T21:09:21Z</time>
      </trkpt>
      <trkpt lat="45.49199" lon="4.59746">
        <ele>460</ele>
        <time>2014-11-14T21:09:24Z</time>
      </trkpt>
      <trkpt lat="45.49198" lon="4.59745">
        <ele>460</ele>
        <time>2014-11-14T21:09:33Z</time>
      </trkpt>
      <trkpt lat="45.49197" lon="4.59745">
        <ele>460</ele>
        <time>2014-11-14T21:09:41Z</time>
      </trkpt>
      <trkpt lat="45.49197" lon="4.59743">
        <ele>460</ele>
        <time>2014-11-14T21:09:44Z</time>
      </trkpt>
      <trkpt lat="45.49199" lon="4.59744">
        <ele>459</ele>
        <time>2014-11-14T21:10:05Z</time>
      </trkpt>
      <trkpt lat="45.49199" lon="4.59745">
        <ele>459</ele>
        <time>2014-11-14T21:10:23Z</time>
      </trkpt>
      <trkpt lat="45.49197" lon="4.59747">
        <ele>459</ele>
        <time>2014-11-14T21:10:39Z</time>
      </trkpt>
      <trkpt lat="45.49197" lon="4.59745">
        <ele>459</ele>
        <time>2014-11-14T21:10:48Z</time>
      </trkpt>
      <trkpt lat="45.49196" lon="4.59745">
        <ele>459</ele>
        <time>2014-11-14T21:11:01Z</time>
      </trkpt>
      <trkpt lat="45.49192" lon="4.59746">
        <ele>459</ele>
        <time>2014-11-14T21:11:04Z</time>
      </trkpt>
      <trkpt lat="45.49186" lon="4.59749">
        <ele>459</ele>
        <time>2014-11-14T21:11:07Z</time>
      </trkpt>
      <trkpt lat="45.49183" lon="4.5975">
        <ele>459</ele>
        <time>2014-11-14T21:11:10Z</time>
      </trkpt>
      <trkpt lat="45.49183" lon="4.59748">
        <ele>457</ele>
        <time>2014-11-14T21:11:33Z</time>
      </trkpt>
      <trkpt lat="45.49184" lon="4.59749">
        <ele>455</ele>
        <time>2014-11-14T21:11:44Z</time>
      </trkpt>
      <trkpt lat="45.49185" lon="4.59749">
        <ele>454</ele>
        <time>2014-11-14T21:12:11Z</time>
      </trkpt>
    </trkseg>
  </trk>
</gpx>